     2.10           OBSERVATION DATA    G (GPS)             RINEX VERSION / TYPE
teqc 2005Jan28 UNAVCO Archive Ops 20050505 19:40:28UTC      PGM / RUN BY / DATE
Solaris 2.7|Ultra 2|cc SC5.0|=+-|*Sparc                     COMMENT
BIT 2 OF LLI FLAGS DATA COLLECTED UNDER A/S CONDITION       COMMENT
PARC                                                        MARKER NAME
                                                            MARKER NUMBER
P.LaFemina UM-RSMAS                                         OBSERVER / AGENCY
3837A24148 TRIMBLE 4000SSI NP 7.19 / SP 3.04                REC # / TYPE / VERS
0220123600 TRM29659.00                                      ANT # / TYPE
 -2426453.0000 -4449456.0000  3862143.0000                  APPROX POSITION XYZ
        0.5000        0.0000        0.0000                  ANTENNA: DELTA H/E/N
     1     1                                                WAVELENGTH FACT L1/2
     6    L1    L2    C1    P2    P1    D1                  # / TYPES OF OBSERV
    15.0000                                                 INTERVAL
NOTICE: YOUR USE OF THIS FILE IMPLIES YOUR                  COMMENT
ACCEPTANCE OF THE UNAVCO DATA SHARING POLICY                COMMENT
READ THE POLICY AT:                                         COMMENT
http://www.unavco.org/community/policies_forms              COMMENT
/DataPolicy.html                                            COMMENT
AND FOLLOW THE POLICY OR DELETE THIS FILE.                  COMMENT
                                                            COMMENT
RINEX file created by UNAVCO GPS Archive.                   COMMENT
For more information contact archive@unavco.org             COMMENT
Monument ID: 15449                                          COMMENT
UNAVCO 4-char name: PARC                                    COMMENT
4-char name from log or data file: PARC                     COMMENT
Monument name: PARADISE                                     COMMENT
Monument location: 37.495 -118.6053 1676.6798               COMMENT
Original XYZ: -2426456.8017 -4449457.2406 3862144.4065      COMMENT
New XYZ position is based on association with SCEC monument COMMENT
E1F7Z1E8+0011.                                              COMMENT
Visit ID: 59511 RawID: 238263                               COMMENT
Filename: PARC2750 DAT EPH ION MES                          COMMENT
Antenna height measured: .5                                 COMMENT
Antenna height measured type: V                             COMMENT
Corrected antenna height validated? Y                       COMMENT
If Yes, then logsheet & data file values are identical      COMMENT
End of DB comments                                          COMMENT
SNR is mapped to RINEX snr flag value [1-9]                 COMMENT
L1: 3 -> 1; 8 -> 5; 40 -> 9                                 COMMENT
L2: 1 -> 1; 5 -> 5; 60 -> 9                                 COMMENT
  2001    10     2     0     0   15.0000000     GPS         TIME OF FIRST OBS
                                                            END OF HEADER
 01 10  2  0  0 15.0000000  0  9G 2G13G 8G28G27G 3G 1G31G10
  -1221086.99953   -859705.87355  23074434.1414   23074444.0004
      1256.8914
  -3597624.33357  -1280953.88056  21467114.1884   21467121.7154
     -3210.4374
  -5745204.87657  -4377533.49156  21010924.0704   21010932.1954
       587.7194
 -11178297.12356  -7065427.74056  21916359.8674   21916368.2974
      1164.7504
  -5655145.00358  -6316836.14357  20895135.1484   20895142.6414
      -578.8594
   3591073.85055   7049050.61655  24361874.3984   24361884.9734
     -3365.5474
  22051765.28154  17222643.40555  24121065.6804   24121079.1484
     -4387.5164
 -10255376.38957  -7448866.08656  22002451.3204   22002460.5474
     -1451.1874
    724192.98752    548488.14955  23887248.4694   23887259.3364
     -1015.5164
 01 10  2  0  0 30.0000000  0  9G 2G13G 8G28G27G 3G 1G31G10
  -1239902.25943   -874367.06545  23070853.4774   23070864.0274
      1252.2974
  -3549406.57347  -1243381.65246  21476289.7664   21476297.0594
     -3218.1254
  -5753987.12947  -4384376.79146  21009252.8834   21009260.7854
       583.7194
 -11195718.24646  -7079002.59646  21913044.3524   21913052.1604
      1158.5314
  -5646426.10948  -6310042.20247  20896794.1954   20896801.6644
      -583.2034
   3641614.79945   7088433.10945  24371495.0784   24371507.0124
     -3372.7504
  22117607.11044  17273948.63845  24133595.9224   24133610.0594
     -4390.9064
 -10233522.55647  -7431837.12746  22006609.8984   22006619.1484
     -1462.1874
    739501.08942    560416.50345  23890160.0784   23890171.5904
     -1025.0944
 01 10  2  0  0 45.0000000  0  9G 2G13G 8G28G27G 3G 1G31G10
  -1258643.59143   -888970.62445  23067287.2194   23067297.2424
      1246.8914
  -3501068.33147  -1205715.53146  21485488.5704   21485496.2154
     -3226.6414
  -5762704.14847  -4391169.25646  21007594.0864   21007601.9184
       578.8914
 -11213041.13446  -7092500.92346  21909747.8594   21909756.1724
      1151.5164
  -5637636.80748  -6303193.39647  20898466.9144   20898474.4774
      -588.3754
   3692268.41545   7127903.42745  24381132.8754   24381144.1054
     -3380.7344
  22183504.76144  17325297.30645  24146134.9224   24146150.8164
     -4395.1094
 -10211498.76147  -7414675.73446  22010800.6644   22010809.5744
     -1473.9844
    754957.80441    572460.67445  23893100.5864   23893116.6564
     -1035.4844
 01 10  2  0  1  0.0000000  0  9G 2G13G 8G28G27G 3G 1G31G10
  -1277306.69443   -903513.26545  23063736.0004   23063745.8014
      1241.6414
  -3452605.59747  -1167952.40646  21494710.6484   21494718.1994
     -3234.9374
  -5771351.74447  -4397907.63646  21005948.4614   21005956.6214
       574.2504
 -11230261.65246  -7105919.47446  21906471.2424   21906479.8954
      1144.6724
  -5628772.81048  -6296286.38847  20900153.5394   20900160.8674
      -593.3754
   3743038.69445   7167464.65545  24390792.9304   24390808.4144
     -3388.5004
  22249462.18744  17376692.57445  24158687.1484   24158703.6764
     -4399.1094
 -10189300.77247  -7397378.60446  22015024.8594   22015034.3554
     -1485.6254
    770567.21742    584623.85445  23896071.2814   23896090.8674
     -1045.6414
 01 10  2  0  1 15.0000000  0  9G 2G13G 8G28G27G 3G 1G31G10
  -1295893.70143   -917996.59545  23060198.1094   23060208.9304
      1236.9224
  -3404020.67047  -1130094.05746  21503956.0704   21503963.5634
     -3242.7504
  -5779932.05447  -4404593.56646  21004315.6254   21004323.6454
       570.0944
 -11247381.72646  -7119259.75546  21903213.1724   21903221.3324
      1138.2974
  -5619836.10648  -6289322.72247  20901854.1884   20901861.6214
      -597.8914
   3793923.16345   7207114.82145  24400475.4384   24400491.0744
     -3395.7974
  22315476.96243  17428132.46245  24171247.5234   24171261.9884
     -4402.5944
 -10166930.74947  -7379947.41646  22019281.6334   22019290.5434
     -1496.7504
    786327.15742    596904.32945  23899072.2664   23899086.7544
     -1055.3754
 01 10  2  0  1 30.0000000  0  9G 2G13G 8G28G27G 3G 1G31G10
  -1314406.27943   -932421.89445  23056675.0234   23056685.4574
      1232.1724
  -3355315.36447  -1092141.91446  21513224.1884   21513231.4104
     -3250.5624
  -5788446.47747  -4411228.17846  21002695.1484   21002703.3914
       565.9064
 -11264402.88846  -7132522.95746  21899973.9304   21899981.3754
      1131.9224
  -5610828.25148  -6282303.61247  20903568.2894   20903575.7704
      -602.4374
   3844919.89545   7246852.52945  24410181.1724   24410192.9534
     -3403.0624
  22381547.27444  17479615.74745  24183821.5944   24183837.7584
     -4406.0944
 -10144390.50047  -7362383.58946  22023570.9694   22023580.1134
     -1507.8914
    802235.93641    609300.72945  23902098.3594   23902113.1764
     -1065.1094
 01 10  2  0  1 45.0000000  0  9G 2G13G 8G28G27G 3G 1G31G10
  -1332851.18143   -946794.52645  23053165.8134   23053175.3554
      1226.4534
  -3306496.69347  -1054101.43546  21522514.0554   21522521.6054
     -3259.2974
  -5796901.80747  -4417816.72946  21001086.4224   21001094.3244
       560.7664
 -11281331.85146  -7145714.32746  21896752.2584   21896760.7234
      1124.5634
  -5601755.86648  -6275234.21747  20905294.8054   20905302.3094
      -607.9224
   3896021.90445   7286672.26145  24419904.8054   24419916.1994
     -3411.2504
  22447666.06943  17531136.79845  24196403.4384   24196419.8954
     -4410.4534
 -10121686.83147  -7344692.42646  22027891.4454   22027900.4964
     -1519.9694
    818286.51941    621807.62545  23905152.5704   23905169.9534
     -1075.7194
 01 10  2  0  2  0.0000000  0  9G 2G13G 8G28G27G 3G 1G31G10
  -1351213.94243   -961103.09745  23049670.9774   23049683.0394
      1221.3594
  -3257550.38147  -1015961.48246  21531828.5004   21531836.1094
     -3267.4224
  -5805283.52447  -4424347.92546  20999491.4774   20999499.3674
       556.2504
 -11298154.26546  -7158822.66746  21893551.6884   21893559.8134
      1117.8594
  -5592604.50848  -6268103.28847  20907036.2664   20907043.6644
      -612.8124
   3947243.29145   7326584.93245  24429652.3834   24429664.6094
     -3418.7974
  22513847.49544  17582706.52845  24208998.2344   24209013.7074
     -4414.2664
 -10098805.41047  -7326862.74146  22032245.3594   22032254.6214
     -1531.4374
    834493.27641    634436.26445  23908235.1484   23908248.4414
     -1085.7034
 01 10  2  0  2 15.0000000  0  9G 2G13G 8G28G27G 3G 1G31G10
  -1369494.85643   -975347.92745  23046192.5004   23046202.9924
      1216.2194
  -3208476.96147   -977722.50246  21541166.7814   21541174.3914
     -3275.5784
  -5813591.84447  -4430821.92946  20997910.2664   20997918.0274
       551.6414
 -11314870.49946  -7171848.26846  21890370.4224   21890377.4454
      1111.0784
  -5583374.44848  -6260911.03647  20908792.7274   20908800.0664
      -617.7664
   3998583.26245   7366590.10745  24439422.1644   24439434.4614
     -3426.4224
  22580090.98944  17634324.65445  24221603.8984   24221619.2074
     -4418.0784
 -10075746.66147  -7308894.89346  22036633.9304   22036643.0164
     -1542.9534
    850855.83241    647186.31144  23911350.6334   23911360.8204
     -1095.8284
 01 10  2  0  2 30.0000000  0  9G 2G13G 8G28G27G 3G 1G31G10
  -1387702.85443   -989535.92745  23042727.3134   23042738.4614
      1211.2344
  -3159285.54847   -939391.57546  21550527.7664   21550535.6334
     -3283.5314
  -5821835.49947  -4437245.54346  20996341.6564   20996349.5234
       547.2194
 -11331489.33646  -7184797.97446  21887208.0314   21887215.7934
      1104.5004
  -5574074.42948  -6253664.26947  20910562.3284   20910569.8914
      -622.5164
   4050032.84245   7406680.68445  24449211.6954   24449221.6374
     -3433.7974
  22646387.33244  17685983.99445  24234219.9384   24234238.5394
     -4421.7194
 -10052519.54047  -7290795.83046  22041053.7504   22041062.4614
     -1554.2664
    867365.15041    660050.64144  23914490.4384   23914497.2584
     -1105.6564
 01 10  2  0  2 45.0000000  0  9G 2G13G 8G28G27G 3G 1G31G10
  -1405835.16543  -1003664.93845  23039276.6954   23039286.0044
      1206.5474
  -3109973.66647   -900966.76946  21559911.4064   21559918.9344
     -3291.2344
  -5830011.80247  -4443616.67346  20994785.4844   20994793.4924
       543.0944
 -11348008.04346  -7197669.65746  21884064.5394   21884072.3134
      1098.1564
  -5564701.67348  -6246360.82247  20912346.0004   20912353.5634
      -627.0314
   4101594.45245   7446858.50845  24459026.3914   24459039.2384
     -3440.9064
  22712738.98644  17737686.47345  24246846.3204   24246863.4344
     -4425.0314
 -10029121.37947  -7272563.50146  22045505.9144   22045515.0354
     -1565.3284
    884023.81841    673031.41945  23917664.0704   23917680.5394
     -1115.3124
 01 10  2  0  3  0.0000000  0  9G 2G13G 8G28G27G 3G 1G31G10
  -1423890.60743  -1017734.07845  23035841.3524   23035853.0744
      1201.2504
  -3060540.30947   -862447.31546  21569318.1484   21569325.5824
     -3299.4694
  -5838119.50347  -4449934.34846  20993242.4534   20993250.5554
       538.3444
 -11364425.41546  -7210462.37746  21880940.2734   21880948.1764
      1091.2344
  -5555254.96848  -6238999.75647  20914143.7894   20914151.2584
      -632.1254
   4153268.87345   7487124.27345  24468858.0864   24468871.0164
     -3448.5944
  22779146.81944  17789432.78845  24259483.1414   24259499.4224
     -4428.9224
 -10005551.12947  -7254197.07246  22049991.7034   22050000.6954
     -1576.9534
    900832.87341    686129.29245  23920860.5474   23920872.1174
     -1125.5004
 01 10  2  0  3 15.0000000  0  9G 2G13G 8G28G27G 3G 1G31G10
  -1441872.87843  -1031746.17545  23032418.6254   23032431.2624
      1196.1564
  -3010989.42247   -823836.27946  21578747.6724   21578755.3164
     -3307.5314
  -5846162.12747  -4456201.31646  20991712.0944   20991720.0664
       533.7814
 -11380745.05346  -7223178.93546  21877834.8674   21877842.9804
      1084.5004
  -5545737.89848  -6231583.86447  20915954.6024   20915962.0004
      -637.0474
   4205052.08345   7527474.73845  24478710.2734   24478721.0594
     -3456.0624
  22845606.91244  17841219.64145  24272131.0084   24272143.9384
     -4432.6254
  -9981812.50747  -7235699.45046  22054508.5704   22054517.2934
     -1588.4064
    917788.42241    699341.45045  23924086.3284   23924102.9614
     -1135.4534
 01 10  2  0  3 30.0000000  0  9G 2G13G 8G28G27G 3G 1G31G10
  -1459778.32043  -1045698.42545  23029011.6564   23029025.2774
      1191.0004
  -2961317.51747   -785130.92846  21588199.9924   21588207.7074
     -3315.6094
  -5854136.11147  -4462414.79746  20990194.7504   20990202.9804
       529.1724
 -11396963.31746  -7235816.50646  21874748.5084   21874756.4104
      1077.7034
  -5536146.66248  -6224110.17647  20917779.8754   20917787.3324
      -642.0314
   4256947.51645   7567912.73745  24488588.1094   24488601.5204
     -3463.5624
  22912122.80044  17893050.05345  24284788.5164   24284804.0474
     -4436.3594
  -9957901.88547  -7217067.80046  22059058.8204   22059067.8134
     -1599.9064
    934894.13641    712670.51845  23927342.5704   23927354.9144
     -1145.5314
 01 10  2  0  3 45.0000000  0  9G 2G13G 8G28G27G 3G 1G31G10
  -1477609.00643  -1059592.42245  23025618.5554   23025630.5354
      1186.6724
  -2911527.05747   -746333.21446  21597674.6644   21597682.2154
     -3322.8754
  -5862043.35547  -4468576.26846  20988690.0394   20988698.2814
       525.3914
 -11413082.24846  -7248376.69646  21871681.2034   21871689.3284
      1071.7504
  -5526483.29648  -6216580.28747  20919618.6484   20919625.9654
      -646.1724
   4308952.69945   7608436.18145  24498483.7424   24498496.3094
     -3470.1874
  22978692.00145  17944922.03145  24297457.3054   24297469.4264
     -4439.2344
  -9933821.57147  -7198303.92246  22063641.0314   22063649.9064
     -1610.5624
    952147.69841    726114.76345  23930626.4614   23930642.0984
     -1154.7344
 01 10  2  0  4  0.0010000  0  9G 2G13G 8G28G27G 3G 1G31G10
  -1495370.85343  -1073432.75945  23022238.3644   23022250.9424
      1181.7974
  -2861619.58147   -707444.31346  21607171.7244   21607179.5324
     -3330.6254
  -5869888.98547  -4474689.73646  20987197.3334   20987205.3064
       521.0474
 -11429107.70046  -7260864.01046  21868631.2554   21868640.0604
      1065.2344
  -5516751.82948  -6208997.32747  20921470.6774   20921478.0524
      -650.8594
   4361065.96745   7649043.93145  24508400.2714   24508413.8564
     -3477.3594
  23045313.98944  17996835.14045  24310133.5994   24310146.1064
     -4442.6724
  -9909574.79947  -7179410.32846  22068255.1144   22068264.0714
     -1621.7344
    969545.32041    739671.48143  23933936.7314   23933952.4974
     -1164.4064
 01 10  2  0  4 15.0010000  0  9G 2G13G 8G28G27G 3G 1G31G10
  -1513055.76343  -1087213.15545  23018873.5604   23018885.3884
      1176.2974
  -2811596.20247   -668465.10146  21616691.0134   21616698.9854
     -3339.0474
  -5877666.27447  -4480749.94246  20985717.0604   20985725.1614
       516.0634
 -11445031.78546  -7273272.36546  21865600.9354   21865608.6854
      1058.0944
  -5506947.72348  -6201357.76847  20923336.2314   20923343.6064
      -656.2194
   4413285.90745   7689734.67345  24518337.5994   24518350.7394
     -3485.1414
  23111985.35144  18048786.71745  24322821.5444   24322837.6614
     -4446.7034
  -9885159.13547  -7160385.14746  22072901.3254   22072910.4354
     -1633.5624
    987090.34641    753342.84944  23937275.3964   23937286.1464
     -1174.7814
 01 10  2  0  4 30.0010000  0  9G 2G13G 8G28G27G 3G 1G31G10
  -1530667.89443  -1100936.83145  23015522.4504   23015533.8104
      1171.7344
  -2761456.69547   -629395.39746  21626232.0674   21626239.7354
     -3346.4844
  -5885378.55447  -4486759.49746  20984249.4814   20984257.7354
       512.0164
 -11460858.47846  -7285604.81246  21862589.5364   21862597.8724
      1051.8914
  -5497073.21348  -6193663.35147  20925215.1224   20925222.6494
      -660.6254
   4465612.72445   7730508.81145  24528295.7554   24528308.9074
     -3492.0004
  23178707.15944  18100777.53445  24335516.3414   24335533.7004
     -4449.8124
  -9860576.08747  -7141229.53546  22077578.8494   22077588.0524
     -1644.4224
   1004780.80541    767127.36244  23940641.6464   23940651.5874
     -1184.1564
 01 10  2  0  4 45.0010000  0  9G 2G13G 8G28G27G 3G 1G31G10
  -1548205.41143  -1114602.39345  23012184.7784   23012197.0634
      1166.7344
  -2711199.52547   -590234.00146  21635795.7784   21635803.3294
     -3354.3284
  -5893023.97047  -4492716.94646  20982794.7084   20982802.9624
       507.5164
 -11476585.88146  -7297859.88946  21859596.7004   21859604.8604
      1045.2664
  -5487126.29048  -6185912.50947  20927108.0674   20927115.5244
      -665.4694
   4518047.91145   7771367.33445  24538273.1384   24538285.9384
     -3499.2194
  23245481.15944  18152809.07445  24348224.7084   24348238.3994
     -4453.2664
  -9835823.87047  -7121942.10046  22082289.4034   22082298.2904
     -1655.7194
   1022618.52441    781027.03245  23944035.5284   23944040.2164
     -1194.0164
 01 10  2  0  5  0.0010000  0  9G 2G13G 8G28G27G 3G 1G31G10
  -1565664.47943  -1128206.79845  23008862.0604   23008873.8764
      1161.5004
  -2660821.00447   -550978.06346  21645382.7084   21645390.6464
     -3362.4374
  -5900598.49947  -4498619.16646  20981353.4354   20981361.3374
       502.7814
 -11492210.13046  -7310034.59246  21856623.4194   21856631.6734
      1038.3444
  -5477103.10648  -6178102.23447  20929015.6694   20929023.0214
      -670.5944
   4570595.04945   7812313.17445  24548272.1384   24548286.4034
     -3506.7034
  23312310.84743  18204884.07345  24360942.2714   24360960.4274
     -4457.0004
  -9810898.75147  -7102519.93246  22087032.4744   22087041.5714
     -1667.2504
   1040607.08542    795044.09945  23947461.0054   23947472.9154
     -1204.1254
 01 10  2  0  5 15.0010000  0  9G 2G13G 8G28G27G 3G 1G31G10
  -1583047.69943  -1141752.10145  23005553.9814   23005565.6344
      1156.5004
  -2610324.02447   -511629.81646  21654991.9894   21655000.0444
     -3370.2504
  -5908104.74547  -4504468.17346  20979924.7714   20979932.8254
       498.2814
 -11507733.80046  -7322130.93746  21853669.2244   21853677.1734
      1031.7034
  -5467006.11448  -6170234.45447  20930936.8644   20930944.3334
      -675.4374
   4623251.12645   7853343.82445  24558293.1854   24558308.1424
     -3513.8754
  23379193.31944  18257000.11245  24373668.9974   24373686.3684
     -4460.4224
  -9785803.47547  -7082965.18346  22091807.7714   22091816.6574
     -1678.5474
   1058743.69841    809176.46244  23950909.4664   23950921.7044
     -1213.8754
 01 10  2  0  5 30.0010000  0  9G 2G13G 8G28G27G 3G 1G31G10
  -1600358.16043  -1155240.72645  23002259.8964   23002272.6494
      1151.6884
  -2559711.81447   -472191.76546  21664623.3644   21664631.1144
     -3377.9224
  -5915545.77547  -4510266.37346  20978508.7314   20978516.7394
       493.9534
 -11523159.96646  -7334151.28546  21850734.1534   21850742.0214
      1025.2344
  -5456838.36148  -6162311.53947  20932871.7244   20932879.2164
      -680.1564
   4676012.74145   7894456.71045  24568332.8334   24568344.6964
     -3520.9224
  23446125.19944  18309154.62645  24386407.6464   24386422.8724
     -4463.7194
  -9760541.27747  -7063280.36346  22096615.5284   22096624.7084
     -1689.6564
   1077025.10442    823421.66045  23954388.5994   23954396.6424
     -1223.5314
 01 10  2  0  5 45.0010000  0  9G 2G13G 8G28G27G 3G 1G31G10
  -1617598.69543  -1168674.88345  22998978.4114   22998990.1814
      1147.1884
  -2508987.60447   -432666.45446  21674275.6614   21674283.2824
     -3385.2194
  -5922924.27947  -4516015.83446  20977104.8104   20977112.7004
       489.9534
 -11538491.49246  -7346097.88646  21847816.2474   21847824.0324
      1019.0784
  -5446602.65448  -6154335.67047  20934819.5134   20934827.0054
      -684.5164
   4728876.79245   7935649.46945  24578392.4274   24578407.2434
     -3527.5474
  23513103.31744  18361345.25845  24399152.7004   24399169.1694
     -4466.5944
  -9735115.04647  -7043467.72446  22101453.5994   22101462.4744
     -1700.4064
   1095448.47842    837777.60744  23957896.3024   23957903.9354
     -1232.8124
 01 10  2  0  6  0.0010000  0  9G 2G13G 8G28G27G 3G 1G31G10
  -1634765.49443  -1182051.55045  22995712.5134   22995722.3024
      1141.7664
  -2458147.69847   -393050.99246  21683949.8884   21683957.6964
     -3393.4224
  -5930236.40147  -4521713.58446  20975713.4894   20975721.2984
       485.0164
 -11553724.40346  -7357967.65946  21844917.7714   21844926.2474
      1012.0004
  -5436295.04848  -6146303.78047  20936780.9814   20936788.2864
      -689.8124
   4781846.65945   7976924.68045  24588473.8104   24588486.6694
     -3535.0784
  23580131.20344  18413574.64345  24411907.1854   24411925.8804
     -4470.4064
  -9709521.13347  -7023524.42746  22106324.2084   22106332.9894
     -1712.0944
   1114017.35841    852246.91345  23961427.1854   23961436.3764
     -1243.0164
 01 10  2  0  6 15.0010000  0  9G 2G13G 8G28G27G 3G 1G31G10
  -1651856.82243  -1195369.41545  22992459.6144   22992471.3724
      1136.8754
  -2407190.45847   -353344.10346  21693647.1774   21693654.9154
     -3401.0944
  -5937480.18547  -4527358.07846  20974335.2314   20974343.1104
       480.6094
 -11568857.08346  -7369759.33646  21842037.9814   21842045.9894
      1005.4694
  -5425913.69848  -6138214.41647  20938756.5214   20938763.7674
      -694.5784
   4834923.92545   8018283.52845  24598573.1924   24598586.4624
     -3542.0944
  23647210.43544  18465843.99145  24424672.2944   24424684.2744
     -4473.7034
  -9683757.76647  -7003449.08446  22111226.8884   22111236.0914
     -1723.2344
   1132733.50441    866830.76445  23964988.6384   23964997.0794
     -1252.6564
 01 10  2  0  6 30.0010000  0  9G 2G13G 8G28G27G 3G 1G31G10
  -1668871.73443  -1208627.76045  22989222.3724   22989233.2044
      1131.5474
  -2356115.27547   -313545.30046  21703366.4274   21703373.8024
     -3409.1564
  -5944654.77147  -4532948.64746  20972969.6614   20972977.6464
       475.7814
 -11583888.54346  -7381472.11946  21839177.6614   21839185.1884
       998.5004
  -5415457.64848  -6130066.85047  20940746.3174   20940753.7044
      -699.7974
   4888109.08845   8059726.53145  24608694.8104   24608708.4424
     -3549.5004
  23714341.71544  18518153.96445  24437446.4504   24437463.0604
     -4477.3754
  -9657824.17247  -6983241.10346  22116161.9354   22116171.1734
     -1734.8124
   1151597.50642    881529.96745  23968581.2864   23968592.5634
     -1262.7344
 01 10  2  0  6 45.0010000  0  9G 2G13G 8G28G27G 3G 1G31G10
  -1685808.95643  -1221825.52445  22985999.7314   22986013.7744
      1127.1094
  -2304921.18847   -273653.84546  21713108.3884   21713116.3374
     -3416.3444
  -5951758.74647  -4538484.20246  20971617.9584   20971626.0014
       471.8134
 -11598817.46946  -7393105.01746  21836336.4114   21836343.9384
       992.4064
  -5404925.38748  -6121859.89347  20942750.3414   20942757.7984
      -704.1254
   4941403.24645   8101254.39345  24618833.0834   24618848.1924
     -3556.0164
  23781526.03543  18570505.17345  24450230.7164   24450244.6534
     -4480.1564
  -9631719.11347  -6962899.50746  22121129.5134   22121139.0674
     -1745.4844
   1170610.52642    896345.28945  23972198.1304   23972210.8254
     -1271.9534
 01 10  2  0  7  0.0010000  0  9G 2G13G 8G28G27G 3G 1G31G10
  -1702674.80943  -1234967.70245  22982789.3254   22982800.4384
      1121.6094
  -2253614.59647   -233674.73146  21722871.7394   21722879.7124
     -3424.5624
  -5958798.24747  -4543969.51446  20970278.6534   20970286.4624
       466.7664
 -11613650.07946  -7404662.85546  21833514.2784   21833521.3494
       985.2504
  -5394323.19648  -6113598.45347  20944767.9034   20944775.2204
      -709.5314
   4994799.77646   8142862.00045  24628997.9584   24629009.2354
     -3563.5474
  23848756.73843  18622892.58545  24463024.2714   24463042.4974
     -4483.9844
  -9605449.11547  -6942429.37646  22126128.7634   22126137.8844
     -1757.2194
   1189766.10542    911271.65745  23975842.6774   23975858.7244
     -1282.1874
 01 10  2  0  7 15.0010000  0  9G 2G13G 8G28G27G 3G 1G31G10
  -1719459.91843  -1248046.97645  22979595.0524   22979606.9744
      1116.5164
  -2202186.41147   -193600.86446  21732658.2004   21732665.5284
     -3432.4064
  -5965763.87047  -4549397.26046  20968952.4034   20968960.0604
       462.1094
 -11628377.02646  -7416138.38446  21830711.7314   21830719.5874
       978.4694
  -5383641.65848  -6105275.18047  20946800.6064   20946808.0524
      -714.5624
   5048307.67445   8184556.47445  24639177.0754   24639192.0444
     -3570.7034
  23916042.96444  18675323.30745  24475829.9974   24475849.3724
     -4487.4224
  -9579004.91447  -6921823.52046  22131160.5054   22131170.0484
     -1768.5474
   1209073.51142    926316.38745  23979517.6924   23979530.9154
     -1292.0004
 01 10  2  0  7 30.0010000  0  9G 2G13G 8G28G27G 3G 1G31G10
  -1736172.48543  -1261069.71145  22976414.6304   22976425.1694
      1111.7664
  -2150645.05247   -153438.81746  21742466.3334   21742473.9544
     -3439.8284
  -5972663.94047  -4554773.92346  20967639.8024   20967647.5634
       457.8284
 -11643006.51646  -7427537.95046  21827927.8104   21827935.8174
       972.0784
  -5372888.85148  -6096896.36747  20948846.8564   20948854.2204
      -719.2034
   5101918.32445   8226330.95345  24649380.2554   24649392.9974
     -3577.4374
  23983376.24343  18727790.59545  24488642.4664   24488660.7284
     -4490.4224
  -9552394.84547  -6901088.40846  22136224.6064   22136233.9504
     -1779.5164
   1228524.41042    941472.95945  23983218.6924   23983229.2784
     -1301.4694
 01 10  2  0  7 45.0010000  0  9G 2G13G 8G28G27G 3G 1G31G10
  -1752808.67243  -1274032.89345  22973249.1924   22973260.9854
      1106.2344
  -2098986.92747   -113185.78546  21752296.3174   21752303.7634
     -3448.0624
  -5979494.40147  -4560096.34546  20966339.8564   20966347.3844
       452.7504
 -11657534.78446  -7438858.64446  21825163.5524   21825171.5014
       964.8754
  -5362060.87048  -6088458.98347  20950907.1854   20950914.6534
      -724.6724
   5155635.28945   8268188.31745  24659602.7784   24659618.1574
     -3584.9694
  24050760.04043  18780297.32445  24501464.9034   24501483.6464
     -4494.2344
  -9525615.21847  -6880221.17046  22141320.2244   22141329.0404
     -1791.2664
   1248122.42442    956744.01745  23986948.7784   23986961.5794
     -1311.7504
 01 10  2  0  8  0.0010000  0  9G 2G13G 8G28G27G 3G 1G31G10
  -1769370.23043  -1286937.97745  22970096.6384   22970107.6574
      1101.2504
  -2047214.10547    -72843.37046  21762148.4814   21762156.5834
     -3455.6874
  -5986256.84247  -4565365.76746  20965052.8724   20965060.6814
       448.2034
 -11671963.55446  -7450101.80546  21822417.3804   21822425.5284
       958.2504
  -5351159.39948  -6079964.33347  20952981.7474   20952989.1814
      -729.5624
   5209456.51945   8310126.88545  24669844.5364   24669859.4114
     -3591.9064
  24118192.40943  18832841.88344  24514298.0834   24514315.4664
     -4497.4374
  -9498667.88547  -6859223.26346  22146448.5054   22146458.0604
     -1802.4224
   1267865.73342    972128.34545  23990706.0054   23990718.0794
     -1321.4064
 01 10  2  0  8 15.0010000  0  9G 2G13G 8G28G27G 3G 1G31G10
  -1785853.00143  -1299781.65545  22966960.6064   22966972.8564
      1096.2504
  -1995322.43747    -32408.35446  21772023.3174   21772031.6654
     -3463.3754
  -5992947.10047  -4570578.93746  20963779.9194   20963787.7634
       443.6254
 -11686288.53846  -7461264.10646  21819690.9894   21819698.9624
       951.5474
  -5340180.16448  -6071409.09047  20955071.2244   20955078.5874
      -734.5314
   5263385.92245   8352149.74345  24680107.5364   24680121.0524
     -3598.8754
  24185677.24243  18885427.27845  24527139.4664   24527157.0954
     -4500.7034
  -9471548.72947  -6838091.45946  22151608.8494   22151617.3964
     -1813.6564
   1287758.21642    987629.03145  23994491.2714   23994500.1574
     -1331.1254
 01 10  2  0  8 30.0010000  0  9G 2G13G 8G28G27G 3G 1G31G10
  -1802258.43443  -1312565.05945  22963839.1384   22963850.3684
      1090.7974
  -1943313.69547      8117.88746  21781920.0604   21781927.7984
     -3471.4374
  -5999566.44847  -4575736.86246  20962520.0834   20962528.0674
       438.6254
 -11700511.11146  -7472346.60946  21816984.7864   21816992.4314
       944.4534
  -5329124.49048  -6062794.28247  20957174.8414   20957182.3104
      -739.8914
   5317421.70745   8394255.54145  24690389.1144   24690400.5914
     -3606.2194
  24253212.90244  18938052.35745  24539991.8334   24540003.8374
     -4504.3754
  -9444259.24447  -6816826.93746  22156801.9664   22156810.8064
     -1825.2664
   1307798.41842   1003244.71345  23998304.5444   23998313.7714
     -1341.2504
 01 10  2  0  8 45.0010000  0  9G 2G13G 8G28G27G 3G 1G31G10
  -1818586.47843  -1325288.17445  22960731.4584   22960742.3254
      1086.3284
  -1891188.20547     48735.10546  21791839.5364   21791847.3104
     -3478.5784
  -6006114.86247  -4580839.50746  20961274.3494   20961282.1924
       434.5474
 -11714631.33646  -7483349.34146  21814297.9504   21814305.8644
       938.2814
  -5317992.24148  -6054119.80747  20959293.3024   20959300.7594
      -744.3444
   5371563.60845   8436444.01345  24700691.5444   24700703.4544
     -3612.6254
  24320799.08644  18990716.71445  24552854.1614   24552872.1064
     -4507.0784
  -9416799.68347  -6795429.88446  22162027.1854   22162036.3174
     -1835.9534
   1327986.13642   1018975.40945  24002144.7314   24002156.8644
     -1350.4064
 01 10  2  0  9  0.0010000  0  9G 2G13G 8G28G27G 3G 1G31G10
  -1834840.71343  -1337953.76445  22957639.4194   22957649.9114
      1081.0944
  -1838949.58747     89440.47946  21801780.0364   21801787.7984
     -3486.4224
  -6012595.60947  -4585889.41946  20960040.9584   20960049.0244
       429.7344
 -11728652.62746  -7494274.99246  21811629.3724   21811636.4194
       931.3754
  -5306786.83948  -6045388.32947  20961425.6384   20961433.1774
      -749.5474
   5425807.77545   8478712.16545  24711015.3334   24711029.7284
     -3619.7344
  24388431.99443  19043417.55545  24565722.3414   24565741.3064
     -4510.5004
  -9389173.60147  -6773903.08246  22167284.0994   22167292.9154
     -1847.3594
   1348317.67942   1034818.19345  24006014.9584   24006036.1774
     -1360.2974
 01 10  2  0  9 15.0010000  0  9G 2G13G 8G28G27G 3G 1G31G10
  -1851021.61643  -1350562.20045  22954559.7244   22954570.9894
      1075.9384
  -1786598.60847    130233.39546  21811742.2554   21811750.3334
     -3494.1254
  -6019009.38147  -4590887.15146  20958820.3494   20958828.3454
       425.0164
 -11742575.55846  -7505124.00246  21808980.1854   21808988.5564
       924.5944
  -5295508.72348  -6036600.18547  20963571.6614   20963578.9664
      -754.6254
   5480153.21445   8521059.25145  24721354.1694   24721368.1064
     -3626.7344
  24456110.79043  19096154.06545  24578602.3334   24578619.5054
     -4513.7664
  -9361381.67547  -6752247.04246  22172572.8414   22172581.8804
     -1858.6414
   1368792.35142   1050772.33544  24009909.9114   24009932.3254
     -1370.0474
 01 10  2  0  9 30.0010000  0  9G 2G13G 8G28G27G 3G 1G31G10
  -1867125.60043  -1363110.72145  22951494.9274   22951506.1344
      1071.2194
  -1734131.97647    171116.44146  21821726.5214   21821734.7394
     -3501.4374
  -6025352.26247  -4595829.63946  20957613.3024   20957621.2164
       420.6884
 -11756396.39546  -7515893.44546  21806349.8964   21806357.5524
       918.1884
  -5284154.18648  -6027752.50247  20965732.4194   20965739.8534
      -759.3284
   5534603.45146   8563487.90045  24731718.8024   24731731.4274
     -3633.3124
  24523838.94443  19148929.15645  24591489.0994   24591504.4424
     -4516.6564
  -9333420.49347  -6730459.12146  22177893.7784   22177902.9814
     -1869.5314
   1389413.58842   1066840.87944  24013834.5674   24013849.0914
     -1379.4534
 01 10  2  0  9 45.0010000  0  9G 2G13G 8G28G27G 3G 1G31G10
  -1883147.29943  -1375595.12245  22948445.9194   22948458.0754
      1065.7034
  -1681544.57547    212093.57946  21831733.6534   21831741.5444
     -3509.5164
  -6031618.96647  -4600712.77346  20956420.4354   20956428.5364
       415.5474
 -11770109.84546  -7526579.22446  21803740.5524   21803748.7004
       910.9844
  -5272717.81248  -6018841.04447  20967908.6534   20967916.0284
      -764.8284
   5589163.43244   8606002.26345  24742098.0364   24742108.9274
     -3640.6724
  24591621.49843  19201746.50645  24604389.4584   24604410.6654
     -4520.3124
  -9305284.78247  -6708535.19246  22183247.7394   22183256.9544
     -1881.2034
   1410186.55041   1083027.44645  24017786.6464   24017800.7714
     -1389.5944
 01 10  2  0 10  0.0010000  0  9G 2G13G 8G28G27G 3G 1G31G10
  -1899096.81144  -1388023.24145  22945411.5914   22945421.4274
      1060.5314
  -1628846.45447    253156.99446  21841761.7864   21841769.5134
     -3517.2504
  -6037819.36947  -4605544.23946  20955240.8104   20955248.5244
       410.7974
 -11783726.02646  -7537189.19546  21801149.2634   21801157.0954
       904.1564
  -5261209.63248  -6009873.63447  20970098.6694   20970106.1034
      -769.9694
   5643822.73245   8648593.82745  24752502.5754   24752515.5284
     -3647.6254
  24659448.01043  19254598.17445  24617294.2864   24617312.0214
     -4523.5784
  -9276984.76047  -6686483.24046  22188632.8964   22188641.7944
     -1892.5164
   1431100.96741   1099324.44045  24021767.1144   24021781.9784
     -1399.3754
 01 10  2  0 10 15.0010000  0  9G 2G13G 8G28G27G 3G 1G31G10
  -1914974.86544  -1400395.72545  22942389.4664   22942399.7944
      1056.3594
  -1576038.80147    294305.76846  21851810.4744   21851818.4584
     -3523.9534
  -6043954.26147  -4610324.65846  20954073.4744   20954081.2244
       407.0164
 -11797245.68446  -7547723.96846  21798576.8564   21798584.3724
       898.2974
  -5249630.29448  -6000850.77447  20972302.1384   20972309.6774
      -774.1254
   5698580.28545   8691262.04945  24762920.6144   24762932.8644
     -3653.5624
  24727317.58643  19307483.43045  24630210.4894   24630227.4504
     -4525.8754
  -9248521.31347  -6664303.94046  22194049.5754   22194058.8604
     -1902.7974
   1452155.93841   1115730.79445  24025774.7784   24025788.7164
     -1408.1254
 01 10  2  0 10 30.0010000  0  9G 2G13G 8G28G27G 3G 1G31G10
  -1930776.10444  -1412708.31245  22939383.2944   22939392.6034
      1050.9694
  -1523116.46447    335543.90046  21861881.4354   21861889.5244
     -3531.8754
  -6050018.08847  -4615049.70346  20952919.6384   20952927.3994
       402.0004
 -11810663.40046  -7558179.29346  21796023.3564   21796031.0364
       891.2344
  -5237974.29248  -5991768.18147  20974520.2084   20974527.8064
      -779.5164
   5753441.19945   8734010.81545  24773361.4194   24773376.2824
     -3660.7194
  24795235.27243  19360406.18545  24643135.4034   24643153.5014
     -4529.3284
  -9219889.17647  -6641993.19146  22199497.7474   22199506.5054
     -1914.3284
   1473356.74742   1132250.97445  24029809.5604   24029822.8174
     -1418.1414
 01 10  2  0 10 45.0010000  0  9G 2G13G 8G28G27G 3G 1G31G10
  -1946501.23744  -1424961.62745  22936389.8334   22936398.5914
      1045.8754
  -1470080.33947    376870.69846  21871973.9424   21871981.4704
     -3539.4844
  -6056011.47547  -4619719.85646  20951779.1224   20951787.1184
       397.2664
 -11823979.83046  -7568555.70646  21793489.4114   21793497.8294
       884.4534
  -5226242.22848  -5982626.31647  20976752.6694   20976760.1854
      -784.6094
   5808404.49345   8776839.34145  24783820.0134   24783834.3964
     -3667.5474
  24863200.12043  19413365.67645  24656069.6224   24656084.5324
     -4532.4844
  -9191089.18247  -6619551.65046  22204978.4974   22204987.7714
     -1925.5164
   1494702.48742   1148883.98645  24033871.5914   24033881.5564
     -1427.8124
 01 10  2  0 11  0.0010000  0  9G 2G13G 8G28G27G 3G 1G31G10
  -1962151.21744  -1437156.36545  22933412.0284   22933423.3994
      1040.9224
  -1416931.56047    418285.28346  21882087.9584   21882095.6144
     -3546.9064
  -6061935.33947  -4624335.84046  20950651.6614   20950659.6574
       392.6884
 -11837195.85746  -7578853.87546  21790974.5054   21790982.4784
       877.8134
  -5214434.93748  -5973425.83647  20978999.4974   20979006.8964
      -789.5624
   5863468.79246   8819746.51445  24794300.1924   24794313.7434
     -3674.2194
  24931210.88243  19466360.84345  24669010.9584   24669025.2474
     -4535.4844
  -9162122.43147  -6596980.16046  22210490.3724   22210499.7514
     -1936.5784
   1516192.07042   1165629.01045  24037961.8964   24037972.3644
     -1437.3444
 01 10  2  0 11 15.0010000  0  9G 2G13G 8G28G27G 3G 1G31G10
  -1977724.11744  -1449291.05645  22930448.1774   22930457.7314
      1035.8284
  -1363668.55747    459788.87446  21892223.6614   21892231.6924
     -3554.4694
  -6067787.60647  -4628896.02946  20949537.5604   20949545.4744
       387.9534
 -11850309.59146  -7589072.33246  21788478.6854   21788486.9034
       871.0314
  -5202550.46548  -5964165.20747  20981261.0834   20981268.5634
      -794.6724
   5918635.65445   8862733.74245  24804796.1144   24804809.7004
     -3681.0164
  24999269.22343  19519393.16745  24681961.0674   24681970.7984
     -4538.6094
  -9132987.26847  -6574277.45046  22216035.1534   22216044.7784
     -1947.7664
   1537827.11542   1182487.50545  24042078.4504   24042092.0484
     -1446.9844
 01 10  2  0 11 30.0010000  0  9G 2G13G 8G28G27G 3G 1G31G10
  -1993224.85544  -1461369.52945  22927499.3644   22927509.9504
      1031.0784
  -1310296.46347    501377.45946  21902379.9274   21902387.8884
     -3561.6874
  -6073573.07047  -4633404.17046  20948437.2004   20948445.0324
       383.5314
 -11863325.99246  -7599214.95246  21786001.8024   21786009.8104
       864.5944
  -5190593.56848  -5954848.14647  20983536.6304   20983544.0404
      -799.4694
   5973899.97745   8905796.81345  24815313.2084   24815326.1034
     -3687.4374
  25067369.89243  19572458.47845  24694920.6534   24694937.4744
     -4541.3754
  -9103688.63547  -6551447.35446  22221610.2394   22221619.3374
     -1958.6094
   1559602.66642   1199455.46444  24046220.7244   24046230.9934
     -1456.3124
 01 10  2  0 11 45.0010000  0  9G 2G13G 8G28G27G 3G 1G31G10
  -2008646.35444  -1473386.18545  22924564.6384   22924576.4784
      1025.7504
  -1256808.40547    543056.41846  21912558.5674   21912566.6574
     -3569.4374
  -6079284.48847  -4637854.60346  20947350.0134   20947357.8454
       378.5944
 -11876237.92846  -7609276.16746  21783544.8254   21783552.2354
       857.6254
  -5178557.01348  -5945469.01747  20985826.6924   20985834.1144
      -804.7974
   6029268.43645   8948941.04345  24825849.5284   24825859.4584
     -3694.4064
  25135519.75643  19625562.09245  24707890.1694   24707909.1574
     -4544.6564
  -9074219.51847  -6528484.41346  22227218.3494   22227227.7284
     -1969.9844
   1581525.64441   1216538.17045  24050392.7244   24050404.7044
     -1466.1414
 01 10  2  0 12  0.0010000  0  9G 2G13G 8G28G27G 3G 1G31G10
  -2023989.53144  -1485341.88045  22921644.6924   22921654.4934
      1020.0944
  -1203205.50347    584824.85346  21922758.5674   21922766.0834
     -3577.5164
  -6084922.88747  -4642248.14446  20946277.1694   20946285.0134
       373.2974
 -11889046.29746  -7619256.68046  21781107.1774   21781114.5994
       850.2814
  -5166441.67948  -5936028.49847  20988132.4354   20988139.8564
      -810.4694
   6084739.90345   8992165.63345  24836404.8174   24836424.8724
     -3701.6724
  25203717.61543  19678703.10145  24720867.6304   24720883.3844
     -4548.2814
  -9044581.11647  -6505389.56546  22232858.2864   22232867.3134
     -1981.6874
   1603594.88741   1233734.98144  24054592.1694   24054613.7394
     -1476.3444
 01 10  2  0 12 15.0010000  0  9G 2G13G 8G28G27G 3G 1G31G10
  -2039255.41744  -1497237.32045  22918739.5674   22918751.1144
      1015.0784
  -1149488.91747    626681.89046  21932980.7784   21932988.7984
     -3584.9844
  -6090489.05347  -4646585.40246  20945218.3254   20945226.1464
       368.5784
 -11901752.01846  -7629157.21146  21778689.4114   21778697.5484
       843.5314
  -5154248.45748  -5926527.28847  20990452.7244   20990460.1464
      -815.5784
   6140312.97045   9035469.20745  24846980.2864   24846995.1144
     -3708.3594
  25271962.22943  19731880.72344  24733853.8254   24733878.2674
     -4551.3124
  -9014774.49547  -6482163.62646  22238530.2004   22238539.4384
     -1992.8124
   1625809.29541   1251044.83045  24058819.5914   24058833.1654
     -1485.8594
 01 10  2  0 12 30.0010000  0  9G 2G13G 8G28G27G 3G 1G31G10
  -2054446.80344  -1509074.71145  22915848.8964   22915859.3644
      1010.2664
  -1095661.87147    668624.99246  21943223.6534   21943231.8024
     -3592.1724
  -6095985.81047  -4650868.57246  20944172.0444   20944179.9584
       364.1094
 -11914357.90646  -7638979.94846  21776290.4354   21776298.3964
       837.0474
  -5141980.08748  -5916967.52247  20992787.2474   20992794.5284
      -820.4224
   6195984.59045   9078849.85045  24857573.6064   24857584.1694
     -3714.7504
  25340250.50243  19785092.10645  24746849.5284   24746868.8684
     -4554.0004
  -8984802.70347  -6458808.98646  22244233.5834   22244242.5524
     -2003.6414
   1648165.75141   1268465.43743  24063074.5674   24063094.9274
     -1495.1724
 01 10  2  0 12 45.0010000  0  9G 2G13G 8G28G27G 3G 1G31G10
  -2069558.44044  -1520849.96745  22912973.3334   22912983.6034
      1004.9534
  -1041719.25847    710658.14846  21953488.5364   21953496.7554
     -3599.8754
  -6101407.68147  -4655093.39246  20943140.5524   20943148.4194
       359.0944
 -11926858.78746  -7648720.85846  21773911.8334   21773919.3604
       830.0314
  -5129631.20148  -5907345.01747  20995137.0364   20995144.5404
      -825.7974
   6251759.60345   9122310.83945  24868188.5214   24868203.6184
     -3721.6254
  25408587.33743  19838341.34944  24759852.8024   24759873.1144
     -4557.2664
  -8954660.59247  -6435321.63846  22249969.6384   22249978.9704
     -2015.0164
   1670669.43041   1286000.72345  24067356.4664   24067367.5914
     -1505.0004
 01 10  2  0 13  0.0010000  0  9G 2G13G 8G28G27G 3G 1G31G10
  -2084594.11444  -1532566.02445  22910111.1614   22910121.3844
       999.5784
   -987665.09346    752778.22846  21963774.7394   21963782.8764
     -3607.5944
  -6106758.37447  -4659262.74346  20942122.0524   20942129.9544
       354.0784
 -11939258.35646  -7658382.82946  21771552.3104   21771560.1184
       823.0004
  -5117205.44148  -5897662.60847  20997501.8724   20997509.4814
      -831.2194
   6307633.95545   9165849.35145  24878821.7714   24878836.0834
     -3728.5314
  25476968.86143  19891625.50243  24772864.6694   24772879.3684
     -4560.5474
  -8924351.96947  -6411704.53246  22255736.9974   22255746.0714
     -2026.3914
   1693316.38541   1303647.66445  24071667.5524   24071682.8024
     -1514.8284
 01 10  2  0 13 15.0010000  0  9G 2G13G 8G28G27G 3G 1G31G10
  -2099556.97244  -1544225.34345  22907264.1304   22907275.9704
       995.1564
   -933502.84246    794982.52946  21974081.5134   21974089.7434
     -3614.3594
  -6112040.96447  -4663379.03646  20941116.8724   20941124.8684
       349.9534
 -11951559.79046  -7667968.31946  21769211.2394   21769218.9314
       816.8914
  -5104705.89248  -5887922.70547  20999880.4814   20999887.9384
      -835.7034
   6363604.22545   9209462.43245  24889472.0994   24889486.2594
     -3734.4844
  25545391.57943  19944941.79345  24785886.4194   24785909.7244
     -4562.8284
  -8893880.19047  -6387960.30646  22261536.1774   22261544.9114
     -2036.8284
   1716103.35141   1321403.70444  24076003.0914   24076015.1304
     -1523.7664
 01 10  2  0 13 30.0010000  0  9G 2G13G 8G28G27G 3G 1G31G10
  -2114443.27244  -1555825.01545  22904430.9664   22904440.4974
       990.1414
   -879228.91346    837273.84346  21984409.6384   21984417.6694
     -3621.7194
  -6117251.51947  -4667439.19046  20940125.4894   20940133.4854
       345.2344
 -11963759.26146  -7677474.37546  21766889.6144   21766897.5054
       810.1564
  -5092128.74948  -5878122.33747  21002273.7244   21002281.1814
      -840.7974
   6419673.62945   9253153.01445  24900140.4034   24900148.6344
     -3741.0004
  25613858.90743  19998292.84245  24798914.5524   24798935.1854
     -4565.7194
  -8863241.61347  -6364086.08746  22267365.9274   22267375.3174
     -2047.8594
   1739033.77341   1339271.49043  24080365.9814   24080376.3454
     -1533.2194
 01 10  2  0 13 45.0010000  0  9G 2G13G 8G28G27G 3G 1G31G10
  -2129256.21444  -1567367.51745  22901612.3644   22901623.4424
       985.2194
   -824846.70146    879649.53646  21994758.5994   21994766.8414
     -3628.9534
  -6122393.21147  -4671445.69146  20939147.0214   20939155.0174
       340.6094
 -11975859.91146  -7686903.41146  21764587.2004   21764594.7394
       803.5474
  -5079476.97948  -5868263.82047  21004681.1464   21004688.6734
      -845.8284
   6475839.02045   9296918.17845  24910828.2004   24910845.1734
     -3747.4224
  25682367.41043  20051675.78245  24811953.5994   24811970.8064
     -4568.4534
  -8832439.58047  -6340084.50646  22273227.5754   22273236.5444
     -2058.7974
   1762104.29741   1357248.55645  24084756.8494   24084765.8994
     -1542.6094
 01 10  2  0 14  0.0010000  0  9G 2G13G 8G28G27G 3G 1G31G10
  -2143991.75944  -1578849.71545  22898809.0674   22898820.1344
       979.2974
   -770352.44246    922112.54246  22005128.3724   22005136.6144
     -3637.1874
  -6127461.79947  -4675395.22946  20938182.3254   20938189.9114
       334.9844
 -11987857.75346  -7696252.35346  21762303.5994   21762311.2204
       795.9064
  -5066746.46148  -5858343.93247  21007103.8964   21007111.3414
      -851.8284
   6532103.94145   9340761.04845  24921535.5994   24921546.8064
     -3754.8124
  25750920.87843  20105093.96945  24824998.5604   24825018.8374
     -4572.2034
  -8801470.24147  -6315952.55946  22279120.6774   22279129.7864
     -2070.7034
   1785318.88341   1375337.80644  24089174.2944   24089196.7204
     -1552.9064
 01 10  2  0 14 15.0010000  0  9G 2G13G 8G28G27G 3G 1G31G10
  -2158650.50844  -1590272.04545  22896018.8724   22896029.1304
       975.4694
   -715746.95446    964662.21546  22015519.5604   22015527.8844
     -3643.2814
  -6132458.03947  -4679288.38646  20937231.4584   20937238.9034
       331.4384
 -11999753.47646  -7705521.70246  21760039.7634   21760047.2434
       790.4224
  -5053937.74448  -5848363.11647  21009541.2944   21009548.8564
      -855.7344
   6588467.45945   9384680.71845  24932261.6534   24932277.4424
     -3760.0474
  25819518.38743                  24838051.5994
     -4573.8124
  -8770334.43147  -6291690.89746  22285045.8104   22285055.0484
     -2080.4844
   1808676.63841   1393538.64343  24093622.4584   24093634.1344
     -1561.1414
 01 10  2  0 14 30.0010000  0  9G 2G13G 8G28G27G 3G 1G31G10
  -2173236.54944  -1601637.77845  22893242.8564   22893253.5834
       969.7344
   -661034.67346   1007295.10946  22025930.7714   22025938.6854
     -3651.2814
  -6137385.80147  -4683128.19146  20936293.7634   20936301.3604
       326.0004
 -12011551.11146  -7714714.64046  21757795.1774   21757802.7864
       783.0004
  -5041054.82748  -5838324.47947  21011992.7784   21012000.1884
      -861.5784
   6644925.09545   9428673.58245  24943004.0444   24943019.7744
     -3767.2194
  25888155.67943                  24851112.6694
     -4577.3754
  -8739036.31647  -6267302.76146  22291001.8334   22291011.1064
     -2092.1874
   1832173.22041   1411847.50544  24098090.1774   24098098.5244
     -1571.3284
 01 10  2  0 14 45.0010000  0  9G 2G13G 8G28G27G 3G 1G31G10
  -2187744.82944  -1612942.89745  22890482.3414   22890494.5564
       964.5314
   -606210.60546   1050015.10546  22036363.3494   22036371.5444
     -3658.7504
  -6142239.79947  -4686910.51446  20935370.3254   20935378.0634
       321.0474
 -12023245.50246  -7723827.11046  21755569.5284   21755576.7864
       776.0944
  -5028092.46648  -5828223.93747  21014459.3024   21014466.8414
      -866.8914
   6701481.61845   9472743.61045  24953767.5364   24953777.1494
     -3773.8284
  25956837.55343                  24864182.1144
     -4580.3444
  -8707570.89747  -6242784.25746  22296989.3884   22296998.6614
     -2103.3594
   1855813.65141   1430268.71543  24102587.8254   24102596.5954
     -1580.9374
 01 10  2  0 15  0.0010000  0  9G 2G13G 8G28G27G 3G 1G31G10
  -2202177.03944  -1624188.70445  22887735.3254   22887747.7864
       960.1564
   -551276.75546   1092820.63846  22046817.3334   22046824.8844
     -3665.3754
  -6147021.61347  -4690636.58446  20934460.2864   20934467.9424
       316.9224
 -12034838.40046  -7732860.51746  21753363.6924   21753371.6304
       770.0164
  -5015052.27048  -5818062.74347  21016941.0364   21016948.5054
      -871.3914
   6758135.07945   9516889.34345  24964547.0134   24964559.0284
     -3779.5784
  26025562.06342                  24877258.4034
     -4582.5004
  -8675940.10147  -6218136.88946  22303008.3884   22303017.9074
     -2113.6874
   1879596.00241   1448800.35745  24107114.8884   24107120.0674
     -1589.6564
 01 10  2  0 15 15.0010000  0  9G 2G13G 8G28G27G 3G 1G31G10
  -2216541.15144  -1635381.46445  22885002.5214   22885013.7394
       955.0004
   -496241.27246   1135705.37646  22057290.1144   22057298.2044
     -3672.7504
  -6151739.24347  -4694312.65246  20933562.5284   20933570.1384
       312.0314
 -12046337.72346  -7741820.99346  21751175.3884   21751183.4894
       763.1724
  -5001942.15648  -5807847.07247  21019435.6304   21019443.2164
      -876.6724
   6814877.32045   9561103.93245  24975345.8174   24975358.5954
     -3786.0944
  26094320.97343     25003.66755  24890345.5994   24890361.6104
     -4585.4064
  -8644152.10147  -6193367.01946  22309057.2394   22309066.2674
     -2124.7664
   1903512.32741   1467436.42144  24111666.6534   24111676.5604
     -1599.2344
 01 10  2  0 15 30.0010000  0  9G 2G13G 8G28G27G 3G 1G31G10
  -2230824.88844  -1646511.60245  22882284.4814   22882295.2674
       949.0944
   -441092.11646   1178678.69046  22067784.8024   22067792.8924
     -3680.8754
  -6156380.25947  -4697929.01446  20932679.2634   20932686.8844
       306.3594
 -12057731.18846  -7750698.97746  21749007.0134   21749014.2824
       755.5474
  -4988749.66748  -5797567.21347  21021946.1924   21021953.7554
      -882.7344
   6871720.07044   9605397.12344  24986161.0834   24986174.9274
     -3793.3594
  26163126.29242     78618.01845  24903437.5994   24903454.2084
     -4589.0624
  -8612194.77247  -6168465.22146  22315138.7714   22315147.4934
     -2136.6094
   1927574.45141   1486186.07442  24116243.9744   24116252.5214
     -1609.5164
 01 10  2  0 15 45.0010000  0  9G 2G13G 8G28G27G 3G 1G31G10
  -2245027.04944  -1657578.18945  22879582.2784   22879593.0874
       944.1884
   -385828.44646   1221741.23146  22078301.1464   22078309.1884
     -3687.9534
  -6160943.27747  -4701484.59746  20931810.7164   20931818.3724
       301.7034
 -12069017.55546  -7759493.51946  21746859.9354   21746867.7434
       748.9534
  -4975473.53048  -5787222.17347  21024472.4664   21024479.8994
      -887.7814
   6928664.52045   9649769.31345  24996999.1304   24997014.5914
     -3799.5624
  26231978.96443    132269.25143  24916540.4894   24916556.2204
     -4591.6724
  -8580067.03347  -6143430.62346  22321252.3804   22321261.4664
     -2147.4374
   1951783.45941   1505050.27543  24120849.7634   24120868.2244
     -1618.7194
 01 10  2  0 16  0.0010000  0  9G 2G13G 8G28G27G 3G 1G31G10
  -2259154.45444  -1668586.50245  22876893.5674   22876903.7314
       939.1094
   -330457.20946   1264887.59846  22088837.9814   22088845.8724
     -3695.2034
  -6165435.11247  -4704984.71146  20930955.9974   20930963.8414
       296.8444
 -12080203.62346  -7768209.89346  21744730.4814   21744738.0674
       742.1884
  -4962120.46248  -5776817.18347  21027013.4274   21027020.7434
      -892.9844
   6985703.08645   9694215.00545  25007852.8024   25007866.5404
     -3805.9374
  26300871.92642    185952.00145  24929650.3254   24929673.8534
     -4594.4224
  -8547775.87247  -6118268.68446  22327396.7084   22327405.9934
     -2158.3914
   1976132.27041                  24125484.9354
     -1628.1094
 01 10  2  0 16 15.0010000  0  9G 2G13G 8G28G27G 3G 1G31G10
  -2273204.26344  -1679534.37745  22874220.6534   22874231.1344
       934.1884
   -274975.88446   1308119.73446  22099395.5834   22099403.8254
     -3702.3124
  -6169852.74347  -4708427.01246  20930115.3254   20930123.0874
       292.1564
 -12091286.50546  -7776845.86446  21742621.8964   21742629.5874
       735.5474
  -4948687.52048  -5766349.95947  21029569.8334   21029577.2084
      -898.0784
   7042838.78545   9738736.36145  25018726.2714   25018737.1734
     -3812.1564
  26369807.62643    239667.84043  24942769.5364   24942792.2674
     -4596.9844
  -8515318.63747  -6092977.34446  22333573.1694   22333582.1384
     -2169.2344
   2000623.64641                  24130146.7244
     -1637.3594
 01 10  2  0 16 30.0010000  0  9G 2G13G 8G28G27G 3G 1G31G10
  -2287182.95844  -1690426.81345  22871560.1694   22871570.8254
       929.4844
   -219391.03546   1351432.54846  22109973.4664   22109981.7434
     -3709.1724
  -6174202.61547  -4711816.50546  20929287.6304   20929295.3104
       287.6564
 -12102272.78046  -7785406.56446  21740531.0674   21740538.5604
       729.1094
  -4935180.97148  -5755825.37047  21032139.9504   21032147.4664
      -902.9694
   7100064.47146   9783327.82645  25029616.3964   25029627.8844
     -3818.1254
  26438779.40243    293412.03145  24955894.7714   24955912.0134
     -4599.3914
  -8482701.87547  -6067561.68246  22339780.2714   22339789.7434
     -2179.8444
   2025251.07041                  24134830.0054
     -1646.4844
 01 10  2  0 16 45.0010000  0  9G 2G13G 8G28G27G 3G 1G31G10
  -2301088.12944  -1701261.97145  22868914.1224   22868922.7634
       924.4384
   -163700.65946   1394827.58046  22120570.9194   22120579.0794
     -3716.3124
  -6178482.15147  -4715151.19046  20928473.0214   20928480.7124
       282.8134
 -12113159.90946  -7793890.00546  21738459.5994   21738467.1264
       722.3914
  -4921598.39848  -5745241.54947  21034724.7634   21034732.2084
      -908.1564
   7157382.49144   9827991.41045  25040521.1064   25040535.8294
     -3824.3914
  26507789.44543    347186.01145  24969027.0994   24969048.8334
     -4602.0474
  -8449923.40447  -6042020.01946  22346017.4584   22346026.8724
     -2190.7344
     13223.50451                  24139548.4894
     -1655.7344
 01 10  2  0 17  0.0010000  0  9G 2G13G 8G28G27G 3G 1G31G10
  -2314914.08344  -1712035.40745  22866282.1614   22866291.5994
       919.1094
   -107899.25146   1438309.14946  22131188.9354   22131196.4744
     -3723.7664
  -6182685.47547  -4718426.49846  20927673.6304   20927681.1224
       277.7034
 -12123942.25946  -7802291.80946  21736407.1774   21736415.0794
       715.3444
  -4907933.96448  -5734593.94047  21037324.9664   21037332.3294
      -913.6874
   7214798.06545   9872730.62945  25051448.8334   25051465.8294
     -3830.9374
  26576843.18143    400993.94444  24982166.6384   24982180.2474
     -4605.0164
  -8416977.69147  -6016348.03346  22352287.1064   22352296.3564
     -2201.9374
     38132.53241                  24144282.8254
     -1665.4374
 01 10  2  0 17 15.0010000  0  9G 2G13G 8G28G27G 3G 1G31G10
  -2328661.03844  -1722747.23645  22863666.3884   22863676.3414
       914.3594
    -51987.23746   1481876.90246  22141829.1614   22141836.6884
     -3730.6414
  -6186812.70147  -4721642.49346  20926887.8724   20926895.5874
       273.1564
 -12134619.98346  -7810612.06746  21734375.4274   21734383.2944
       708.8914
  -4894187.72648  -5723882.58347  21039940.6854   21039948.1534
      -918.6094
   7272310.81045   9917545.86145  25062391.8964   25062400.9814
     -3836.8914
  26645940.13343    454835.55645  24995316.3104   24995332.3564
     -4607.3594
  -8383864.99047  -5990545.94146  22358588.1924   22358597.1734
     -2212.5474
     13375.77251                  24149051.6464
     -1674.3754
 01 10  2  0 17 30.0010000  0  9G 2G13G 8G28G27G 3G 1G31G10
  -2342335.67045  -1733402.78745  22861065.5364   22861076.4744
       908.9694
      4028.50246   1525525.47346  22152488.6854   22152497.3604
     -3738.0944
  -6190870.43347  -4724804.35246  20926115.7944   20926123.4154
       267.9384
 -12145199.78346  -7818856.05846  21732362.2164   21732369.9074
       701.7814
  -4880366.25048  -5713112.60747  21042570.6694   21042578.0444
      -924.2034
   7329913.56445   9962431.20645  25073354.9894   25073366.0674
     -3843.4224
  26715073.40943    508705.37044  25008471.8174   25008492.0714
     -4610.3444
  -8350592.17947  -5964619.07846  22364920.1854   22364929.6924
     -2223.7664
     38564.29841                  24153842.6144
     -1684.0624
 01 10  2  0 17 45.0010000  0  9G 2G13G 8G28G27G 3G 1G31G10
  -2355932.54045  -1743997.69145  22858477.7004   22858488.5914
       904.0164
     60153.20946   1569258.94746  22163168.8254   22163175.9894
     -3745.1254
  -6194853.19447  -4727907.78946  20925357.9894   20925365.6344
       263.1724
 -12155676.11846  -7827019.40546  21730368.7474   21730375.4974
       695.1254
  -4866463.97848  -5702279.66447  21045216.2314   21045223.6534
      -929.3594
   7387611.46745  10007390.48645  25084332.3804   25084344.3494
     -3849.5474
  26784248.13843    562607.63645  25021635.6694   25021655.1034
     -4612.8594
  -8317154.07947  -5938563.43846  22371283.2314   22371292.4464
     -2234.5624
     13524.50651                  24158664.1144
     -1693.2504
 01 10  2  0 18  0.0010000  0  9G 2G13G 8G28G27G 3G 1G31G10
  -2369457.14145  -1754536.28545  22855904.3174   22855915.3494
       899.3134
    116380.93046   1613072.70446  22173868.7004   22173876.3564
     -3751.8594
  -6198766.35647  -4730956.98346  20924613.5754   20924621.2904
       258.6254
 -12166054.59046  -7835106.49646  21728393.9744   21728402.0874
       688.7034
  -4852486.38648  -5691388.03147  21047876.2864   21047883.7674
      -934.2664
   7445398.79345  10052419.43845  25095331.0054   25095346.4314
     -3855.3754
  26853458.54643    616537.69044  25034805.4354   25034825.1964
     -4615.1254
  -8283556.28747  -5912383.33146  22377676.4114   22377685.4384

     -2245.1094                   24163510.2784
     -1702.2034
 01 10  2  0 18 15.0010000  0  9G 2G13G 8G28G27G 3G 1G31G10
  -2382903.27045  -1765013.76645  22853345.3494   22853356.5324
       893.8444
    172717.75746   1656971.48246  22184589.2554   22184596.7124
     -3759.3754
  -6202603.48047  -4733946.94346  20923883.2944   20923890.9154
       253.3284
 -12176328.86846  -7843112.39046  21726438.9114   21726446.7674
       681.5314
  -4838427.08848  -5680432.73047  21050551.3724   21050558.8414
      -939.9534
   7503281.48444  10097523.21545  25106343.4894   25106355.0954
     -3861.9534
  26922710.67843    670500.17745  25047983.5834   25048003.2984
     -4618.1564
  -8249792.65147  -5886074.03046  22384101.3024   22384110.3884

     -2256.3754                   24168384.3254
     -1722.8914
 01 10  2  0 18 30.0010000  0  9G 2G13G 8G28G27G 3G 1G31G10
  -2396278.66745  -1775436.08645  22850799.5214   22850810.1884
       889.1724
    229155.73246   1700949.05746  22195328.9744   22195337.4034
     -3766.0784
  -6206372.33747  -4736883.69746  20923165.9664   20923173.7284
       248.7974
 -12186506.68146  -7851043.11446  21724501.8494   21724509.6694
       675.1254
  -4824293.73648  -5669419.72947  21053240.9114   21053248.3214
      -944.8754
   7561251.38546  10142694.28045  25117377.4894   25117391.5214
     -3867.7344
  26991996.51443    724488.97145  25061169.4194   25061193.6964
     -4620.3444
  -8215871.15247  -5859641.68946  22390556.7474   22390565.9154

     -2266.8754      18888.62941  24173284.2084
     -1720.8124
 01 10  2  0 18 45.0010000  0  9G 2G13G 8G28G27G 3G 1G31G10
  -2409581.49744  -1785801.89745  22848267.9114   22848278.6264
       883.8754
    285696.48546   1745006.72846  22206088.4664   22206096.5914
     -3773.3754
  -6210070.89147  -4739765.67446  20922462.2244   20922469.8104
       243.6414
 -12196586.33146  -7858897.35346  21722583.7084   21722591.0014
       668.1414
  -4810084.35048  -5658347.48647  21055944.9664   21055952.3884
      -950.4064
   7619310.08745  10187934.74845  25128423.2164   25128443.2354
     -3874.1254
  27061317.58843    778505.25545  25074360.3804   25074384.2124
     -4623.1414
  -8181790.18647  -5833085.10746  22397042.1304   22397051.6854

     -2277.9534                   24178207.1144
     -1730.2504
 01 10  2  0 19  0.0010000  0  9G 2G13G 8G28G27G 3G 1G31G10
  -2422804.72644  -1796105.64045  22845751.7634   22845762.5244
       878.9844
    342346.80346   1789149.76646  22216868.5834   22216877.0714
     -3780.2504
  -6213691.89047  -4742587.22146  20921773.2944   20921780.9154
       238.9064
 -12206560.71246  -7866669.56946  21720685.8334   21720693.3134
       661.5314
  -4795791.82048  -5647210.44647  21058664.7474   21058672.3214
      -955.5314
   7677464.45445                  25139491.1694
     -3880.0474
  27130680.62243    832554.17444  25087561.2554   25087580.1144
     -4625.5164
  -8147542.89447  -5806398.92046  22403558.8494   22403568.2164

     -2288.6094                   24183157.2714
     -1739.3444
 01 10  2  0 19 15.0010000  0  9G 2G13G 8G28G27G 3G 1G31G10
  -2435950.21844  -1806348.82445  22843249.6924   22843260.2904
       873.5004
    399104.71746   1833376.67446  22227669.1694   22227677.4114
     -3787.7034
  -6217237.29847  -4745349.86146  20921098.3414   20921105.9744
       233.5634
 -12216431.75446  -7874361.26546  21718807.1924   21718814.7434
       654.3444
  -4781417.85548  -5636009.95247  21061399.8804   21061407.2204
      -961.2664
   7735711.96345                  25150574.9584
     -3886.5624
  27200083.57943    886634.26844  25100769.5444   25100791.2084
     -4628.4694
  -8113131.35247  -5779584.74146  22410107.1774   22410116.3454
     -2299.8594
     24418.56741      8166.06154  24188138.5364   24188150.7394
     -1748.9694
 01 10  2  0 19 30.0010000  0  9G 2G13G 8G28G27G 3G 1G31G10
  -2449018.88544  -1816532.18945  22840763.2474   22840774.0324
       868.8914
    455968.78146   1877686.27246  22238490.0214   22238498.7784
     -3794.2504
  -6220707.79547  -4748054.13046  20920437.9974   20920445.8884
       229.0784
 -12226200.17646  -7881972.99946  21716948.5754   21716955.9384
       648.0314
  -4766963.20648  -5624746.59147  21064150.7714   21064158.2164
      -966.1094
   7794051.79743                  25161676.5214
     -3892.1564
  27269525.22543    940744.51344  25113980.1694   25114002.8064
     -4630.5164
  -8078556.55647  -5752643.36646  22416686.7784   22416695.9584
     -2310.2034
     50718.13441     28659.10443  24193143.0364   24193161.7434
     -1757.7194
 01 10  2  0 19 45.0010000  0  9G 2G13G 8G28G27G 3G 1G31G10
  -2462012.82344  -1826657.30545  22838290.7474   22838299.7744
       863.9064
    512936.76346   1922076.85546  22249331.0604   22249339.8294
     -3801.1874
  -6224105.16047  -4750701.41546  20919791.3964   20919798.6774
       224.1884
 -12235868.15146  -7889506.43846  21715108.6304   21715116.3804
       641.3134
  -4752429.92748  -5613421.96147  21066916.2084   21066923.6534
      -971.3754
   7852481.03946                  25172796.7164
     -3898.1254
  27339003.18343    994882.99745  25127203.2084   25127224.1224
     -4632.9374
  -8043820.77347  -5725576.53746  22423296.7554   22423305.8644
     -2320.9534
                                  24198173.1774
     -1766.8284
 01 10  2  0 20  0.0010000  0  9G 2G13G 8G28G27G 3G 1G31G10
  -2474930.54744  -1836722.99845  22835832.1304   22835843.7004
       858.8754
    570009.91146   1966549.38546  22260191.6774   22260199.8724
     -3808.1414
  -6227428.20947  -4753290.79046  20919159.0604   20919166.6814
       219.2814
 -12245434.19646  -7896960.47146  21713288.0054   21713295.5794
       634.5784
  -4737816.45448  -5602034.83747  21069696.9894   21069704.3294
      -976.6724
   7911001.05543                  25183929.1224
     -3904.1414
  27408518.68943   1049050.69844  25140431.8804   25140450.4814
     -4635.3594
  -8008922.77447  -5698383.30146  22429937.7394   22429947.1884
     -2331.7034
                                  24203229.4584
     -1776.0164
 01 10  2  0 20 15.0010000  0  9G 2G13G 8G28G27G 3G 1G31G10
  -2487775.44844  -1846731.99345  22833387.2864   22833398.2354
       854.2194
    627184.78446   2011101.17646  22271071.3964   22271080.3064
     -3814.7194
  -6230679.82447  -4755824.50246  20918540.4354   20918548.1264
       214.7194
 -12254901.51246  -7904337.57546  21711486.6224   21711494.1854
       628.1884
  -4723125.94648  -5590587.68747  21072492.5834   21072500.1224
      -981.6094
   7969608.53545                  25195084.2634
     -3909.7194
  27478068.13843   1103245.01745  25153666.0134   25153689.0134
     -4637.4374
  -7973866.04647  -5671066.38446  22436608.6064   22436617.5634
     -2342.0784
     24931.24741                  24208314.1774
     -1784.8124
 01 10  2  0 20 30.0010000  0  9G 2G13G 8G28G27G 3G 1G31G10
  -2500544.14144  -1856681.56145  22830957.8964   22830968.8104
       848.4844
    684464.35746   2055734.55746  22281971.6534   22281980.1064
     -3822.3284
  -6233856.83047  -4758300.07546  20917935.8334   20917943.3024
       209.0944
 -12264266.95546  -7911635.29546  21709704.3174   21709711.3174
       620.7504
  -4708354.94748  -5579077.82047  21075303.5054   21075310.9624
      -987.6414
   8028306.03545                  25206253.8174
     -3916.3914
  27547654.68843   1157468.10344  25166907.4194   25166930.7944
     -4640.5624
  -7938647.49247  -5643623.37346  22443310.7314   22443319.7824
     -2353.5004
     51778.63641                  24213422.1854
     -1794.5944
 01 10  2  0 20 45.0010000  0  9G 2G13G 8G28G27G 3G 1G31G10
  -2513233.01844  -1866568.94145  22828543.7944   22828555.0014
       843.2664
    741851.97546   2100452.11346  22292892.3724   22292900.8604
     -3829.4374
  -6236955.21047  -4760714.38046  20917346.0214   20917353.6534
       203.9384
 -12273526.74546  -7918850.69546  21707942.5054   21707950.1494
       613.7974
  -4693499.67448  -5567502.28347  21078130.2394   21078137.7434
      -993.1724
   8087097.38143                  25217440.1304
     -3922.5624
  27617281.71443   1211722.77744  25180158.6464   25180172.6184
     -4643.1414
  -7903263.51547  -5616051.45446  22450043.8884   22450052.9384
     -2364.4534
     78767.29941                  24218557.0284
     -1803.9374
 01 10  2  0 21  0.0010000  0  9G 2G13G 8G28G27G 3G 1G31G10
  -2525845.16344  -1876396.56145  22826142.6464   22826154.0524
       838.3594
    799344.24846   2145251.22846  22303832.8254   22303841.2314
     -3836.2034
  -6239978.00047  -4763069.78846  20916770.9504   20916778.5364
       199.1094
 -12282684.01146  -7925986.18946  21706200.0754   21706207.3684
       607.1724
  -4678563.09748  -5555863.39547  21080972.6304   21080979.9934
      -998.3914
   8145978.82445     12237.24353  25228645.6614   25228656.8804
     -3928.3124
  27686945.80443   1266006.29144  25193415.5134   25193435.4154
     -4645.4064
  -7867717.33147  -5588353.13646  22456807.7784   22456817.4034
     -2375.0474
    105893.88241                  24223716.9584
     -1812.9374
 01 10  2  0 21 15.0010000  0  9G 2G13G 8G28G27G 3G 1G31G10
  -2538380.01344  -1886163.91245  22823758.2864   22823770.5604
       832.9534
    856941.52146   2190132.16746  22314792.9424   22314801.1854
     -3843.4374
  -6242924.61447  -4765365.83546  20916210.1384   20916217.9814
       193.7814
 -12291738.22846  -7933041.40146  21704476.5834   21704483.6304
       600.0634
  -4663544.58748  -5544160.66347  21083830.5834   21083837.9814
     -1004.0944
   8204950.61843     58189.51145  25239866.6224   25239882.2714
     -3934.5784
  27756647.31143   1320319.00844  25206677.9194   25206698.7394
     -4648.1414
  -7832008.72847  -5560528.27546  22463603.2634   22463612.0674
     -2386.1094
    133158.95341                  24228907.5674
     -1822.4224
 01 10  2  0 21 30.0010000  0  9G 2G13G 8G28G27G 3G 1G31G10
  -2550844.01844  -1895876.08745  22821385.4274   22821396.5284
       828.6094
    914637.33046   2235089.86946  22325772.3494   22325780.9074
     -3849.6254
  -6245801.20547  -4767607.32546  20915662.7474   20915670.4744
       189.4844
 -12300695.69546  -7940021.21746  21702771.8024   21702778.8254
       593.9694
  -4648450.35048  -5532398.91947  21086702.8644   21086710.4154
     -1008.7814
   8264006.07645    104206.49945  25251106.6064   25251121.2124
     -3939.7974
  27826379.56743   1374655.64644  25219948.3564   25219965.3884
     -4649.7814
  -7796144.29347  -5532581.98446  22470427.5674   22470436.9814
     -2396.1254
      9143.64451     17085.28053  24234122.3254   24234138.6884
     -1830.8124
 01 10  2  0 21 45.0010000  0  9G 2G13G 8G28G27G 3G 1G31G10
  -2563237.89444  -1905533.59945  22819026.6924   22819038.0874
       823.8594
    972430.66746   2280123.58546  22336769.9114   22336778.7864
     -3856.1724
  -6248608.35947  -4769794.70746  20915128.4354   20915136.0444
       184.7974
 -12309557.13646  -7946926.20146  21701085.7864   21701093.0214
       587.5004
  -4633280.96648  -5520578.62247  21089589.4744   21089596.9424
     -1013.8444
   8323144.30043    150288.38844  25262356.3724   25262369.5954
     -3945.3594
  27896141.66743   1429015.55744  25233223.9034   25233246.4934
     -4651.8284
  -7760124.84847  -5504514.89246  22477282.2554   22477291.3534
     -2406.5004
     36671.39641     38535.58045  24239359.7944   24239372.2674
     -1839.5474
 01 10  2  0 22  0.0010000  0  9G 2G13G 8G28G27G 3G 1G31G10
  -2575555.55144  -1915131.73545  22816683.4354   22816693.7864
       818.6564
   1030327.25746   2325237.76346  22347787.7944   22347796.6574
     -3863.2034
  -6251340.11347  -4771923.33146  20914608.7944   20914616.3454
       179.6094
 -12318316.57546  -7953751.71246  21699418.5994   21699426.3964
       580.5634
  -4618030.32748  -5508695.00947  21092491.8104   21092499.2674
     -1019.4064
   8382370.95145    196439.11045  25273630.7554   25273644.6924
     -3951.3754
  27965939.24043   1483403.13943  25246505.0444   25246514.4464
     -4654.3594
  -7723944.63347  -5476322.54346  22484167.3644   22484176.3804
     -2417.3594
     64335.73741     60092.17244  24244623.8414   24244636.6774
     -1848.8284
 01 10  2  0 22 15.0010000  0  9G 2G13G 8G28G27G 3G 1G31G10
  -2587796.66344  -1924670.22645  22814354.3804   22814364.1224
       813.3444
   1088327.28346   2370432.52546  22358824.3644   22358833.4504
     -3870.2974
  -6253995.66147  -4773992.57846  20914103.5674   20914111.0604
       174.3444
 -12326973.54346  -7960497.36646  21697771.4974   21697779.2474
       573.5164
  -4602697.92548  -5496747.68147  21095409.2164   21095416.6854
     -1025.0784
   8441685.95745    242658.49045  25284917.7944   25284930.0324
     -3957.4534
  28035772.58643   1537818.60943  25259795.6384   25259808.1104
     -4656.9224
  -7687603.43847  -5448004.73846  22491082.6614   22491091.5954
     -2428.2974
      3712.88751                  24249916.2394
     -1858.2034
 01 10  2  0 22 30.0010000  0  9G 2G13G 8G28G27G 3G 1G31G10
  -2599961.71244  -1934149.43545  22812039.2554   22812049.6654
       808.7034
   1146429.94546   2415707.26946  22369881.3414   22369889.4194
     -3876.6874
  -6256575.76147  -4776003.03546  20913612.6144   20913620.2354
       169.7194
 -12335528.52946  -7967163.56046  21696143.5134   21696150.6424
       567.2034
  -4587284.19848  -5484736.98847  21098342.4584   21098349.9624
     -1030.0474
   8501088.79041    288946.31744  25296219.3964   25296238.4544
     -3962.8754
  28105640.74943   1592261.10345  25273093.1534   25273115.6034
     -4658.7504
  -7651101.92847  -5419562.02046  22498028.7084   22498037.3134
     -2438.5314
      9325.07251                  24255232.2634
     -1866.7974
 01 10  2  0 22 45.0010000  0  9G 2G13G 8G28G27G 3G 1G31G10
  -2612058.32844  -1943575.31745  22809736.9034   22809746.9034
       803.9384
   1204627.44446   2461055.90646  22380955.9894   22380964.4664
     -3883.2194
  -6259087.56047  -4777960.26446  20913134.4274   20913141.9424
       164.9534
 -12343989.16346  -7973756.24746  21694533.6464   21694540.7634
       560.6724
  -4571796.51248  -5472668.65947  21101289.7634   21101297.1384
     -1035.2034
   8560571.32945                  25307540.7244
     -3968.3594
  28175535.99843   1646724.72545  25286392.0674   25286414.3064
     -4660.7814
  -7614447.81847  -5391000.39146  22505004.1534   22505013.2744
     -2448.9064
     14981.47651                  24260570.6384
     -1875.5164
 01 10  2  0 23  0.0010000  0  9G 2G13G 8G28G27G 3G 1G31G10
  -2624075.97645  -1952939.65645  22807451.2314   22807461.7244
       798.9064
   1262929.99246   2506486.40246  22392050.3254   22392057.8064
     -3889.9534
  -6261520.59447  -4779856.12146  20912671.5364   20912678.9704
       159.9534
 -12352345.01246  -7980267.26746  21692943.7244   21692950.9584
       553.9384
  -4556224.36548  -5460534.52347  21104252.8804   21104260.3494
     -1040.5944
   8620143.61744                  25318877.3254
     -3974.0944
  28245468.53143   1701217.55445  25299698.5834   25299721.7474
     -4663.0474
  -7577630.73747  -5362311.77146  22512009.9894   22512019.2044
     -2459.5314
      9414.59051                  24265936.8334
     -1884.5944
 01 10  2  0 23 15.0010000  0  7G 2G13G 8G28G27G 1G31
  -2636018.39245  -1962245.41645  22805177.9114   22805188.7434
       793.7344
   1321333.60046   2551995.65746  22403164.5054   22403172.5604
     -3896.8754
  -6263878.44648  -4781693.39646  20912222.8804   20912230.4784
       154.7504
 -12360599.79246  -7986699.53346  21691372.4274   21691379.6854
       547.0314
  -4540571.31748  -5448337.34247  21107231.8804   21107239.3494
     -1046.1564
  28315434.33943   1755736.14445  25313014.3804   25313033.3454
     -4665.4374
  -7540654.64047  -5333499.24446  22519045.8024   22519055.2744
     -2470.3124
 01 10  2  0 23 30.0010000  0  8G 2G13G 8G28G27G 3G 1G31
  -2647878.91644  -1971487.32845  22802920.4034   22802932.0214
       788.0944
   1379844.76046   2597588.69246  22414299.1694   22414307.4114
     -3904.2034
  -6266154.30347  -4783466.77446  20911789.7784   20911797.2944
       149.1094
 -12368746.78346  -7993047.82046  21689822.2784   21689829.4074
       539.6564
  -4524830.54448  -5436071.80147  21110227.1144   21110234.4664
     -1052.1874
     19921.53355                  25341600.1854
     -3986.2974
  28385439.88743   1810285.79044  25326336.8724   25326356.2474
     -4668.2344
  -7503513.00647  -5304557.73546  22526113.9424   22526123.4744
     -2481.5004
 01 10  2  0 23 45.0010000  0  8G 2G13G 8G28G27G 3G 1G31
  -2659664.62745  -1980670.94045  22800678.0604   22800688.0484
       783.3914
   1438455.97746   2643259.72246  22425452.2394   22425460.9974
     -3910.5944
  -6268355.17447  -4785181.72746  20911370.6924   20911378.3724
       144.3754
 -12376793.00346  -7999317.57346  21688290.9664   21688298.3064
       533.2344
  -4509009.06448  -5423743.37947  21113237.5754   21113245.0444
     -1057.2974
     79756.92843                  25352984.4194
     -3991.7194
  28455477.85843   1864860.65144  25339663.3964   25339681.1064
     -4670.1094
  -7466213.17447  -5275492.94146  22533211.7244   22533221.1264
     -2491.7504
 01 10  2  0 24  0.0010000  0  8G 2G13G 8G28G27G 3G 1G31
  -2671376.73245  -1989797.21245  22798450.1224   22798461.1534
       777.7814
   1497166.04246   2689007.75946  22436624.3804   22436632.4584
     -3917.8754
  -6270482.05847  -4786839.02546  20910966.1064   20910973.7284
       138.7504
 -12384739.71146  -8005509.77746  21686778.9274   21686785.9744
       525.8754
  -4493107.97448  -5411352.92047  21116263.4504   21116271.0134
     -1063.3284
    139675.87843                  25364388.2394
     -3997.9534
  28525546.76343   1919459.46844  25352996.0834   25353011.6614
     -4672.8594
  -7428756.63347  -5246306.04846  22540339.7554   22540349.1224
     -2502.9224
 01 10  2  0 24 15.0010000  0  8G 2G13G 8G28G27G 3G 1G31
  -2683013.68745  -1998864.93245  22796235.4274   22796245.2634
       773.5004
   1555976.03446   2734833.66846  22447815.8254   22447825.1344
     -3923.7814
  -6272533.37047  -4788437.43346  20910575.5604   20910583.1924
       134.4534
 -12392585.40946  -8011623.29246  21685285.8414   21685293.3924
       519.8914
  -4477125.60548  -5398899.12547  21119304.9424   21119312.3414
     -1068.0004
    199679.18543                  25375805.5604
     -4002.8124
  28595647.91242   1974083.77645  25366335.0754   25366356.4354
     -4674.2974
  -7391141.95947  -5216995.92246  22547497.3104   22547507.3214
     -2512.7034
 01 10  2  0 24 30.0010000  0  8G 2G13G 8G28G27G 3G 1G31
  -2694576.75245  -2007875.05245  22794034.6064   22794044.0674
       768.2034
   1614884.52646   2780736.31246  22459025.8494   22459034.3494
     -3930.7194
  -6274510.22148  -4789977.82046  20910199.6464   20910207.3604
       129.1094
 -12400331.26446  -8017658.99846  21683812.5284   21683820.1034
       512.8594
  -4461063.10348  -5386382.88947  21122361.5054   21122368.9744
     -1073.7194
    259765.58743                  25387239.8724
     -4008.7344
  28665779.73043   2028731.81144  25379681.7244   25379699.7984
     -4676.6564
  -7353370.76947  -5187563.85046  22554684.9664   22554694.6264
     -2523.5004
 01 10  2  0 24 45.0010000  0  8G 2G13G 8G28G27G 3G31G10
  -2706062.95845  -2016825.29345  22791848.2864   22791858.7554
       763.0784
   1673894.28346   2826717.89346  22470254.6854   22470263.0094
     -3937.4694
  -6276409.47447  -4791457.74446  20909838.0914   20909845.7244
       123.9224
 -12407974.31046  -8023614.58546  21682357.3334   21682365.2824
       506.0164
  -4444917.30748  -5373801.75047  21125433.9584   21125441.3924
     -1079.2814
    319937.70843     21886.42155  25398689.3334   25398704.4894
     -4014.4374
  -7315440.07947  -5158007.47446  22561903.5994   22561912.8254
     -2534.1414
                                  24304226.8254
     -1947.7194
 01 10  2  0 25  0.0010000  0  8G 2G13G 8G28G27G 3G31G10
  -2717476.32545  -2025718.78745  22789676.8804   22789686.5404
       758.2344
   1733000.95946   2872774.97346  22481502.3414   22481511.3924
     -3943.8914
  -6278234.96147  -4792880.18946  20909490.6534   20909498.2514
       119.0164
 -12415518.58746  -8029493.21846  21680921.5834   21680929.2864
       499.4384
  -4428692.07448  -5361158.71247  21128521.4744   21128528.9664
     -1084.5624
    380191.11443     68837.11445  25410154.9504   25410170.4704
     -4019.8284
  -7277354.08347  -5128330.09546  22569150.7554   22569160.1814
     -2544.4694
                                  24309798.8254
     -1955.3444
 01 10  2  0 25 15.0010000  0  8G 2G13G 8G28G27G 3G31G10
  -2728810.88445  -2034550.86245  22787519.2314   22787528.8334
       753.3594
   1792210.22246   2918912.00546  22492770.1304   22492778.9934
     -3950.3594
  -6279980.63248  -4794240.43046  20909158.3964   20909165.9354
       114.0784
 -12422958.11546  -8035290.22646  21679505.6854   21679512.9314
       492.8284
  -4412381.36648  -5348449.06747  21131625.2474   21131632.6344
     -1089.8754
    440531.62342    115855.92742  25421636.9424   25421654.3374
     -4025.2504
  -7239106.98147  -5098527.16546  22576429.3104   22576438.5604
     -2554.8124
     15702.31851                  24315396.1774
     -1965.1564
 01 10  2  0 25 30.0010000  0  8G 2G13G 8G28G27G 3G31G10
  -2740076.87545  -2043329.50645  22785375.8334   22785385.3294
       748.4384
   1851511.89546   2965121.03846  22504054.4354   22504063.1104
     -3956.8594
  -6281656.45047  -4795546.24846  20908839.5284   20908847.0914
       109.0634
 -12430303.08846  -8041013.55646  21678108.4744   21678115.6964
       486.1724
  -4395995.16648  -5335680.60347  21134743.3724   21134750.8294
     -1095.2664
    500948.74544                  25433136.0914
     -4030.6724
  -7200709.20247  -5068606.83746  22583735.8724   22583745.3924

     -2565.2034                   24321017.7714
     -1973.9374
 01 10  2  0 25 45.0010000  0  8G 2G13G 8G28G27G 3G31G10
  -2751264.19945  -2052046.83645  22783246.6144   22783257.0014
       743.8134
   1910915.70746   3011409.65046  22515358.8804   22515368.0364
     -3963.0314
  -6283252.26847  -4796789.72646  20908535.6774   20908543.3214
       104.3444
 -12437543.33746  -8046655.27546  21676730.5134   21676737.8064
       479.8134
  -4379523.35248  -5322845.42347  21137877.9354   21137885.2514
     -1100.3594
    561451.99744                  25444649.2244
     -4035.8124
  -7162150.91747  -5038561.43546  22591073.2944   22591082.4274

     -2575.2814                   24326666.8104
     -1982.3444
 01 10  2  0 26  0.0010000  0  7G 2G13G 8G28G27G31G10
  -2762371.58545  -2060701.91245  22781132.9974   22781143.7124
       737.5944
   1970422.68646   3057778.67246  22526682.6774   22526691.8214
     -3970.8124
  -6284766.83847  -4797969.89646  20908247.6304   20908255.1694
        98.0164
 -12444677.64346  -8052214.45346  21675372.5524   21675380.0214
       471.8444
  -4362964.48448  -5309942.41447  21141028.9114   21141036.4504
     -1107.0784
  -7123431.02347  -5008390.09946  22598441.4504   22598451.0754

     -2586.9534      21874.89341  24332340.9744
     -1992.3594
 01 10  2  0 26 15.0010000  0  7G 2G13G 8G28G27G31G10
  -2773401.28645  -2069296.42645  22779033.9744   22779044.2204
       732.9224
   2030030.33646   3104226.11946  22538026.2164   22538035.0214
     -3977.0004
  -6286201.97947  -4799088.16746  20907974.4274   20907982.0714
        93.2194
 -12451708.30946  -8057692.86546  21674035.3644   21674042.5404
       465.4534
  -4346320.69048  -5296973.22347  21144196.2864   21144203.8724
     -1112.2344
  -7084551.99847  -4978094.76146  22605839.4354   22605849.2004

     -2597.0474      51823.05541  24338037.9194
     -2000.8284
 01 10  2  0 26 30.0010000  0  8G 2G13G 8G28G27G 3G31G10
  -2784356.74445  -2077833.09145  22776949.8964   22776960.9154
       727.6414
   2089735.03846   3150749.20546  22549387.2244   22549395.9814
     -3983.7974
  -6287561.27047  -4800147.34046  20907716.0214   20907723.6534
        87.8284
 -12458638.65746  -8063093.10846  21672716.2084   21672723.6884
       458.4224
  -4329595.37248  -5283940.51247  21147379.1064   21147386.5634
     -1118.0004
     44557.49254                  25479286.3174
     -4053.3594
  -7045517.52847  -4947678.30246  22613267.8174   22613277.3964

     -2607.7344      81901.99041  24343763.3494
     -2009.8754
 01 10  2  0 26 45.0010000  0  8G 2G13G 8G28G27G 3G31G10
  -2795237.68045  -2086311.70145  22774878.9814   22774889.7554
       723.2664
   2149536.61546   3197347.76846  22560766.5754   22560774.7824
     -3989.6254
  -6288844.09548  -4801146.93346  20907471.5754   20907479.1614
        83.3284
 -12465468.44246  -8068414.98646  21671416.5524   21671423.2314
       452.3284
  -4312788.08248  -5270843.92647  21150577.2634   21150584.8134
     -1122.8754
    105394.84842                  25490861.2554
     -4058.1254
  -7006327.45347  -4917140.59346  22620725.5914   22620734.7824

     -2617.5004     112111.84441  24349513.3644
     -2017.9224
 01 10  2  0 27  0.0010000  0  8G 2G13G 8G28G27G 3G31G10
  -2806040.67845  -2094729.56145  22772823.6304   22772834.9424
       717.3914
   2209438.13246   3244024.22446  22572165.4814   22572174.2984
     -3996.9534
  -6290047.14147  -4802084.35646  20907242.9194   20907250.4464
        77.3284
 -12472194.31746  -8073655.89546  21670136.8884   21670143.8644
       444.7344
  -4295895.26448  -5257680.69147  21153791.9194   21153799.5874
     -1129.2344
                                  25502454.6224
     -4064.4064
  -6966978.60847  -4886479.16646  22628213.3964   22628222.4114

     -2628.7504                   24355284.1854
     -2027.5944
 01 10  2  0 27 15.0010000  0  8G 2G13G 8G28G27G 3G31G10
  -2816771.51345  -2103091.21445  22770781.2784   22770791.8884
       712.9694
   2269433.73246   3290773.97546  22583582.4664   22583591.2244
     -4002.8594
  -6291175.75547  -4802963.78046  20907027.9504   20907035.6064
        72.7504
 -12478822.05046  -8078820.33246  21668875.5214   21668883.2944
       438.5634
  -4278922.50248  -5244455.16647  21157021.6224   21157029.1384
     -1134.2034
     56930.58342                  25514063.3254
     -4069.2504
  -6927476.94647  -4855698.66846  22635730.3024   22635739.6694

     -2638.5624      28441.72141  24361082.7244
     -2035.8124
 01 10  2  0 27 30.0010000  0  8G 2G13G 8G28G27G 3G31G10
  -2827424.93145  -2111392.52445  22768753.7474   22768763.9234
       707.8594
   2329528.59646   3337601.08246  22595018.2944   22595026.3724
     -4009.4224
  -6292224.82147  -4803781.21846  20906828.5054   20906836.0794
        67.5004
 -12485346.36846  -8083904.19246  21667633.6614   21667640.7554
       431.7034
  -4261864.48848  -5231163.20647  21160267.8254   21160275.1304
     -1139.8444
    118012.90843                  25525687.7784
     -4074.6874
  -6887817.48147  -4824795.18546  22643277.5994   22643286.6734

     -2649.0164      59046.92241  24366908.4034
     -2044.6094
 01 10  2  0 27 45.0010000  0  8G 2G13G 8G28G27G 3G31G10
  -2837995.50345  -2119629.29845  22766742.4584   22766753.2084
       702.3134
   2389727.75646   3384509.45446  22606474.0284   22606482.6814
     -4016.3754
  -6293188.57748  -4804532.18246  20906644.9894   20906652.4814
        61.7814
 -12491761.81346  -8088903.20846  21666413.2314   21666420.2904
       424.4384
  -4244715.61648  -5217800.45147  21163530.9354   21163538.3454
     -1145.9064
    179182.95043                  25537326.2944
     -4080.5624
  -6847994.95847  -4793764.66346  22650855.4894   22650864.3994

     -2659.8914                   24372758.4664
     -2053.7664
 01 10  2  0 28  0.0010000  0  8G 2G13G 8G28G27G 3G31G10
  -2848489.49045  -2127806.36445  22764745.3254   22764756.2284
       697.5474
   2450024.70946   3431494.02946  22617948.0444   22617957.1424
     -4022.5314
  -6294073.06548  -4805221.38346  20906476.7084   20906484.2714
        56.8284
 -12498074.50246  -8093822.16746  21665211.5134   21665218.8294
       417.9384
  -4227482.02748  -5204371.68647  21166810.4664   21166818.0404
     -1151.2344
    240434.85441                  25548981.2314
     -4085.6724
  -6808015.78647  -4762612.06646  22658463.0054   22658472.2084

     -2669.9844      22651.97141  24378633.5524
     -2062.2504
 01 10  2  0 28 15.0010000  0  8G 2G13G 8G28G27G 3G31G10
  -2858907.83445  -2135924.51945  22762762.5054   22762772.2824
       691.6254
   2510418.19246   3478553.81146  22629440.7864   22629449.2284
     -4029.8754
  -6294879.28448  -4805849.59346  20906323.1774   20906330.5284
        50.7194
 -12504285.50146  -8098661.88346  21664029.6854   21664037.1424
       410.2504
  -4210164.59148  -5190877.58447  21170105.8724   21170113.4114
     -1157.7194
    301766.96043                  25560654.2714
     -4091.8914
  -6767881.22247  -4731338.39246  22666100.6614   22666109.9814

     -2681.2344      53658.10841  24384536.5284
     -2071.8444
 01 10  2  0 28 30.0010000  0  8G 2G13G 8G28G27G 3G31G10
  -2869248.13445  -2143981.83145  22760795.0054   22760803.9154
       686.9384
   2570910.49146   3525690.60946  22640952.1064   22640960.5014
     -4035.9374
  -6295604.61848  -4806414.76246  20906185.2634   20906192.7084
        45.8284
 -12510392.41346  -8103420.47446  21662867.4584   21662874.6224
       403.8444
  -4192760.68948  -5177316.10247  21173417.7394   21173425.2784
     -1162.9694
    363181.32643        -3.89654  25572340.1304   25572356.0364
     -4096.8444
  -6727589.00447  -4699941.84546  22673767.7634   22673776.8134

     -2691.2194                   24390457.9974
     -2079.5784
 01 10  2  0 28 45.0010000  0  7G 2G13G 8G28G27G31G10
  -2879512.55145  -2151980.03045  22758841.5444   22758851.6034
       681.6094
   2631499.08346   3572902.42046  22652481.7714   22652490.5174
     -4042.5784
  -6296251.16848  -4806918.55646  20906062.1854   20906069.5604
        40.3284
 -12516397.44346  -8108099.68446  21661724.7164   21661731.8104
       396.7974
  -4175272.37948  -5163688.85147  21176745.7554   21176753.2714
     -1168.8444
  -6687141.56047  -4668424.37446  22681464.5994   22681473.4974
     -2701.8124
      4174.56351                  24396409.3884
     -2089.1254
 01 10  2  0 29  0.0010000  0  7G 2G13G 8G28G27G31G10
  -2889699.41145  -2159917.80345  22756903.6774   22756913.2904
       676.7814
   2692185.43446   3620190.43546  22664030.1224   22664039.1034
     -4048.7814
  -6296817.03448  -4807359.47946  20905954.5284   20905962.1964
        35.2664
 -12522298.91146  -8112698.21146  21660601.7864   21660609.0674
       390.2194
  -4157697.85848  -5149994.42247  21180090.0364   21180097.4934
     -1174.2664
  -6646537.30947  -4636784.70146  22689191.6224   22689201.1304
     -2711.9224
     10478.96851                  24402385.0054
     -2097.5624
 01 10  2  0 29 15.0010000  0  7G 2G13G 8G28G27G31G10
  -2899812.51945  -2167798.10045  22754979.3884   22754989.1774
       671.3284
   2752965.59746   3667551.53146  22675596.1534   22675604.9464
     -4055.5474
  -6297305.99548  -4807740.47346  20905861.3494   20905868.8994
        29.6094
 -12528100.67946  -8117219.03246  21659497.3804   21659504.1424
       383.0314
  -4140040.88648  -5136235.74747  21183449.9664   21183457.2714
     -1180.2974
  -6605780.41447  -4605026.08746  22696947.4034   22696957.1344
     -2722.6254
     42008.37441                  24408383.9194
     -2106.6724
 01 10  2  0 29 30.0010000  0  7G 2G13G 8G28G27G31G10
  -2909847.80145  -2175617.72145  22753068.7864   22753078.1774
       666.5474
   2813843.30646   3714988.63445  22687180.5524   22687189.6034
     -4061.6414
  -6297713.65248  -4808058.11046  20905783.7944   20905791.1464
        24.5784
 -12533798.41546  -8121658.80346  21658413.2554   21658420.1494
       376.5164
  -4122297.11148  -5122409.43047  21186826.6464   21186834.2904
     -1185.6874
  -6564866.86247  -4573145.40146  22704733.1694   22704742.6424
     -2732.6724
     73669.55741                  24414411.3334
     -2114.9694
 01 10  2  0 29 45.0010000  0  7G 2G13G 8G28G27G31G10
  -2919807.41145  -2183378.42345  22751173.3804   22751183.8964
       661.5314
   2874816.21146   3762499.92545  22698783.5134   22698791.9784
     -4067.9694
  -6298042.12248  -4808314.05046  20905721.3104   20905728.6144
        19.3284
 -12539394.33246  -8126019.22246  21657348.5914   21657355.9784
       369.7504
  -4104468.53748  -5108517.03847  21190219.3564   21190226.7784
     -1191.3284
  -6523798.95347  -4541144.44246  22712547.7394   22712557.0604
     -2742.9374
      4243.09451                  24420462.2714
     -2123.6094
 01 10  2  0 30  0.0010000  0  6G 2G13G 8G28G27G31
  -2929690.55045  -2191079.51845  22749292.8564   22749303.2554
       656.4844
   2935884.79946   3810085.77645  22710404.9894   22710414.2394
     -4074.2664
  -6298290.34748  -4808507.45546  20905674.1224   20905681.7554
        14.0314
 -12544887.72246  -8130299.76346  21656303.0284   21656310.1574
       362.9694
  -4086554.23148  -5094557.84047  21193628.0834   21193635.5174
     -1197.0004
  -6482576.12647  -4509022.76546  22720392.2474   22720401.4034
     -2753.1874
 01 10  2  0 30 15.0010000  0  6G 2G13G 8G28G27G31
  -2939497.21245  -2198721.02245  22747427.1464   22747436.9934
       651.2504
   2997048.78546   3857745.94245  22722043.9034   22722052.5674
     -4080.7504
  -6298458.24448  -4808638.27246  20905642.1694   20905649.6854
         8.5474
 -12550278.50246  -8134500.33546  21655277.1694   21655284.3104
       356.0004
  -4068554.15348  -5080531.80747  21197053.4354   21197060.8804
     -1202.8284
  -6441198.70347  -4476780.63346  22728266.2714   22728275.9194
     -2763.6094
 01 10  2  0 30 30.0010000  0  6G 2G13G 8G28G27G31
  -2949226.25045  -2206302.04145  22745574.7864   22745583.8844
       645.9384
   3058309.22146   3905481.29745  22733701.1774   22733709.5714
     -4087.3284
  -6298544.53548  -4808705.49646  20905625.4584   20905632.7984
         2.9384
 -12555565.63246  -8138620.15046  21654271.1144   21654277.6064
       348.9384
  -4050467.04548  -5066437.96047  21200495.3724   21200502.7824
     -1208.7974
  -6399665.75447  -4444417.29446  22736169.6534   22736179.0214
     -2774.1414
 01 10  2  0 30 45.0010000  0  6G 2G13G 8G28G27G31
  -2958877.69745  -2213822.59745  22743738.3414   22743748.4584
       640.7504
   3119665.74846   3953291.50145  22745377.2004   22745385.7124
     -4093.7194
  -6298549.08848  -4808709.02846  20905624.8414   20905632.4854
        -2.5004
 -12560749.17246  -8142659.23246  21653285.0834   21653292.1184
       342.0314
  -4032292.77548  -5052276.19147  21203953.5604   21203961.0524
     -1214.6254
  -6357977.45847  -4411932.90746  22744102.5524   22744111.8374
     -2784.4844
 01 10  2  0 31  0.0010000  0  7G 2G13G 8G28G27G31G10
  -2968453.74645  -2221284.41745  22741917.0364   22741927.1064
       635.5784
   3181116.02746   4001174.78345  22757070.6304   22757079.5634
     -4100.1094
  -6298473.91848  -4808650.43946  20905639.3104   20905646.9074
        -7.9844
 -12565831.15946  -8146619.19046  21652317.2634   21652324.7554
       335.1094
  -4014033.34748  -5038048.07047  21207428.5604   21207435.9464
     -1220.4534
  -6316136.25047  -4379329.38246  22752064.6924   22752073.7434
     -2794.8284
                                  24451078.7864
     -2167.1724
 01 10  2  0 31 15.0010000  0  7G 2G13G 8G28G27G31G10
  -2977944.82745  -2228680.01745  22740110.6304   22740121.0754
       629.8594
   3242669.12446   4049138.15145  22768784.2784   22768793.6694
     -4107.0164
  -6298309.37948  -4808522.21146  20905670.3024   20905677.7244
       -13.9844
 -12570802.19346  -8150492.69146  21651371.5134   21651379.1464
       327.6564
  -3995679.10948  -5023746.07047  21210920.9664   21210928.4354
     -1226.8284
  -6274132.77347  -4346599.40146  22760057.4814   22760066.1814
     -2805.6724
     17389.03851                  24457278.5214
     -2176.3444
 01 10  2  0 31 30.0020000  0  7G 2G13G 8G28G27G31G10
  -2987356.01345  -2236013.34745  22738318.9864   22738329.5374
       624.9224
   3304324.60146   4097181.30145  22780516.4794   22780525.1434
     -4113.1254
  -6298059.79648  -4808327.71846  20905717.8464   20905725.3384
       -19.2504
 -12575666.87246  -8154283.32346  21650445.9864   21650453.2214
       320.9694
  -3977233.08348  -5009372.54347  21214431.3144   21214438.7014
     -1232.4534
  -6231968.79247  -4313744.36246  22768081.4084   22768090.1784

     -2815.7664                   24463501.0494
     -2184.7664
 01 10  2  0 31 45.0020000  0  7G 2G13G 8G28G27G31G10
  -2996689.95145  -2243286.52245  22736543.2444   22736553.0334
       619.3914
   3366070.06746   4145294.58745  22792266.7444   22792275.3854
     -4119.8124
  -6297728.77648  -4808069.76646  20905780.5884   20905788.2794
       -25.1094
 -12580428.41546  -8157993.58946  21649540.2914   21649547.6074
       313.6884
  -3958701.42448  -4994932.29447  21217957.7684   21217965.2254
     -1238.6564
  -6189654.04647  -4280771.83846  22776133.1974   22776142.1434

     -2826.4064                   24469752.9944
     -2193.8124
 01 10  2  0 32  0.0020000  0  7G 2G13G 8G28G27G31G10
  -3005948.60645  -2250501.00945  22734782.0494   22734791.5804
       614.7504
   3427908.10146   4193480.01045  22804033.5184   22804042.8144
     -4125.6094
  -6297317.58848  -4807749.34546  20905859.0334   20905866.5964
       -30.0944
 -12585088.59146  -8161624.87146  21648652.9474   21648660.2294
       307.2974
  -3940084.14748  -4980425.32947  21221500.4164   21221507.8504
     -1244.0004
  -6147187.39347  -4247680.94946  22784214.4004   22784223.3574

     -2836.1724      24183.27341  24476024.4164
     -2201.7974
 01 10  2  0 32 15.0020000  0  7G 2G13G 8G28G27G31G10
  -3015130.58645  -2257655.74145  22733033.6504   22733042.6434
       610.0004
   3489839.83546   4241738.43545  22815819.3614   22815828.8574
     -4131.4844
  -6296824.67748  -4807365.24046  20905952.9714   20905960.3934
       -35.1724
 -12589645.95446  -8165176.03046  21647785.9714   21647792.8424
       300.8134
  -3921379.79048  -4965850.50647  21225059.6974   21225067.1784
     -1249.4534
  -6104567.68147  -4214470.78146  22792324.5024   22792333.8694

     -2846.0004                   24482322.9084
     -2210.0624
 01 10  2  0 32 30.0020000  0  7G 2G13G 8G28G27G31G10
  -3024237.33745  -2264751.87245  22731301.3074   22731312.1274
       604.2194
   3551863.46846   4290068.46045  22827622.2754   22827631.8424
     -4138.3594
  -6296251.30648  -4806918.44546  20906061.8614   20906069.4004
       -41.3124
 -12594101.85046  -8168648.12746  21646938.1664   21646945.4004
       293.2814
  -3902589.52748  -4951208.74747  21228635.5494   21228643.0764
     -1255.9374
  -6061796.51947  -4181142.60646  22800463.9394   22800473.6004

     -2856.8444                   24488645.1504
     -2219.1874
 01 10  2  0 32 45.0020000  0  7G 2G13G 8G28G27G31G10
  -3033260.36745  -2271782.76645  22729584.7294   22729594.0964
       598.9534
   3613987.36146   4338476.60545  22839443.5884   22839451.8894
     -4144.7194
  -6295588.91848  -4806402.28746  20906187.7994   20906195.3614
       -46.9224
 -12598447.91446  -8172034.63346  21646111.1664   21646118.0964
       286.2974
  -3883704.82148  -4936493.39347  21232229.0574   21232236.4204
     -1261.9224
  -6018865.64047  -4147689.99846  22808633.2054   22808642.5494

     -2867.1724                   24494987.7914
     -2232.7814
 01 10  2  0 33  0.0020000  0  6G 2G13G 8G28G27G31
  -3042205.01245  -2278752.58046  22727881.3464   22727891.7564
       593.8134
   3676205.90146   4386958.52845  22851283.7914   22851292.4904
     -4150.9374
  -6294842.63448  -4805820.75246  20906329.8384   20906337.3544
       -52.4374
 -12602689.57546  -8175339.80246  21645303.9794   21645311.0374
       279.4064
  -3864730.92848  -4921708.54547  21235839.5724   21235846.9824
     -1267.7974
  -5975780.68547  -4114117.31246  22816832.5644   22816841.8264
     -2877.3444
 01 10  2  0 33 15.0020000  0  6G 2G13G 8G28G27G31
  -3051068.59345  -2285659.22246  22726195.1354   22726205.2054
       588.6414
   3738521.49246   4435516.06045  22863141.8144   22863150.8424
     -4157.1874
  -6294009.62548  -4805171.64346  20906488.6114   20906496.1504
       -58.0004
 -12606824.13246  -8178561.49746  21644516.8304   21644523.9124
       272.4844
  -3845664.95848  -4906851.95147  21239467.8614   21239475.3184
     -1273.7034
  -5932539.02847  -4080422.51246  22825060.6744   22825070.0294
     -2887.5624
 01 10  2  0 33 30.0020000  0  6G 2G13G 8G28G27G31
  -3059855.51545  -2292506.12846  22724522.8694   22724532.2604
       583.4534
   3800929.61446   4484145.69545  22875018.3224   22875027.7134
     -4163.3914
  -6293094.14648  -4804458.27146  20906662.5104   20906669.9674
       -63.5624
 -12610855.78746  -8181703.01946  21643749.7604   21643756.1114
       265.5784
  -3826511.06948  -4891926.84346  21243112.6354   21243120.0454
     -1279.6414
  -5889145.26247  -4046609.19446  22833318.5724   22833327.8344
     -2897.7664
 01 10  2  0 33 45.0020000  0  6G 2G13G 8G28G27G31
  -3068563.94445  -2299291.87445  22722865.3854   22722875.5844
       577.5784
   3863431.62446   4532848.47945  22886912.2134   22886921.9204
     -4170.2974
  -6292094.15548  -4803679.04146  20906853.0574   20906860.6314
       -69.8594
 -12614782.85646  -8184763.04946  21643002.7364   21643009.4164
       257.9534
  -3807267.32348  -4876931.72146  21246774.6044   21246782.1434
     -1286.2814
  -5845597.84647  -4012676.15746  22841605.3464   22841614.8774
     -2908.6414
 01 10  2  0 34  0.0020000  0  6G 2G13G 8G28G27G31
  -3077186.11145  -2306010.40445  22721224.7684   22721234.1004
       572.5314
   3926035.17546   4581630.40545  22898824.9324   22898833.3504
     -4176.3594
  -6291001.80148  -4802827.84746  20907060.7604   20907068.2524
       -75.3124
 -12618597.63846  -8187735.57446  21642275.9324   21642282.9794
       251.1724
  -3787925.89248  -4861860.48146  21250455.2684   21250462.6194
     -1292.1094
  -5801889.33946  -3978617.58646  22849922.0574   22849932.0104
     -2918.6724
 01 10  2  0 34 15.0020000  0  6G 2G13G 8G28G27G31
  -3085734.75545  -2312671.64945  22719598.0494   22719607.3574
       567.6094
   3988727.31546   4630481.37045  22910754.2214   22910763.2714
     -4182.2664
  -6289829.71248  -4801914.51946  20907283.9244   20907291.6044
       -80.6414
 -12622312.76746  -8190630.45546  21641569.7444   21641576.9434
       244.5164
  -3768499.39048  -4846722.94547  21254151.9944   21254159.3464
     -1297.7814
  -5758032.68747  -3944443.58046  22858268.6044   22858278.0064
     -2928.5474
 01 10  2  0 34 30.0020000  0  7G 2G13G 8G28G27G31G10
  -3094205.90345  -2319272.50146  22717986.2364   22717996.1074
       562.0164
   4051511.71846   4679404.19545  22922702.3544   22922711.7214
     -4188.8594
  -6288573.67848  -4800935.78346  20907522.7054   20907530.1274
       -86.6874
 -12625924.29846  -8193444.59346  21640882.2294   21640889.4164
       237.1414
  -3748983.68148  -4831515.89847  21257865.7214   21257873.1434
     -1304.1874
  -5714024.10446  -3910151.16646  22866642.2294   22866652.0644
     -2939.1254
                                  24540110.4164
     -2288.0164
 01 10  2  0 34 45.0020000  0  7G 2G13G 8G28G27G31G10
  -3102600.29145  -2325813.54946  22716388.6744   22716398.9324
       556.8284
   4114387.47546   4728398.21645  22934667.1744   22934676.6004
     -4194.9844
  -6287234.28348  -4799892.08546  20907777.9864   20907785.3034
       -92.3124
 -12629432.81146  -8196178.47346  21640214.5104   21640221.5804
       230.2344
  -3729379.26348  -4816239.73647  21261596.3384   21261603.6894
     -1310.1724
  -5669864.47746  -3875741.08046  22875046.1044   22875055.7644
     -2949.2504
                                  24546646.0574
     -2295.9534
 01 10  2  0 35  0.0020000  0  7G 2G13G 8G28G27G31G10
  -3110912.32145  -2332290.39846  22714806.7444   22714816.3934
       551.6254
   4177359.86246   4777467.55145  22946650.3384   22946659.3654
     -4201.1414
  -6285805.73048  -4798778.91946  20908049.5884   20908057.0214
       -97.9844
 -12632832.84646  -8198827.82846  21639567.2834   21639574.3544
       223.2814
  -3709680.43948  -4800890.00447  21265344.9794   21265352.4364
     -1316.1724
  -5625548.51946  -3841209.17346  22883478.9474   22883487.5184
     -2959.3754
     11514.66051                  24553219.7294
     -2304.9694
 01 10  2  0 35 15.0020000  0  6G 2G13G 8G28G27G31
  -3119148.60545  -2338708.24345  22713239.7294   22713249.2134
       546.4224
   4240422.11246   4826606.89145  22958650.7364   22958660.5964
     -4207.2664
  -6284294.49048  -4797601.31546  20908337.0574   20908344.3034
      -103.6414
 -12636131.01946  -8201397.80046  21638939.4474   21638946.5884
       216.3444
  -3689893.70148  -4785471.76647  21269110.3074   21269117.6934
     -1322.1874
  -5581083.08646  -3806560.76546  22891940.5804   22891949.5254
     -2969.4844
 01 10  2  0 35 30.0020000  0  6G 2G13G 8G28G27G31
  -3127309.12245  -2345067.05546  22711686.3304   22711696.5884
       541.4844
   4303573.89846   4875816.00145  22970668.6194   22970677.6004
     -4213.1254
  -6282700.45148  -4796359.20046  20908640.4554   20908647.9594
      -109.0784
 -12639327.29246  -8203888.37046  21638331.7834   21638338.5574
       209.6564
  -3670018.91848  -4769984.92447  21272892.2444   21272899.7134
     -1327.9534
  -5536468.36446  -3771796.07346  22900430.8074   22900440.1504
     -2979.3124
 01 10  2  0 35 45.0020000  0  6G 2G13G 8G28G27G31
  -3135394.97945  -2351367.67045  22710147.5024   22710157.6074
       536.1254
   4366813.80646   4925093.75745  22982702.5804   22982712.2874
     -4219.3594
  -6281024.51948  -4795053.26846  20908959.5334   20908967.0374
      -114.8914
 -12642422.71346  -8206300.35946  21637742.3614   21637749.5844
       202.5784
  -3650057.08648  -4754430.25147  21276690.6824   21276698.1744
     -1334.1254
  -5491705.66146  -3736916.03646  22908948.3614   22908957.8574
     -2989.5474
 01 10  2  0 36  0.0020000  0  6G 2G13G 8G28G27G31
  -3143396.33645  -2357602.45246  22708624.9474   22708634.5844
       530.8444
   4430151.40146   4974447.66645  22994755.1894   22994764.6864
     -4225.5314
  -6279256.71148  -4793675.75246  20909295.7054   20909303.1624
      -120.6874
 -12645407.47346  -8208626.12546  21637174.4324   21637181.2754
       195.5314
  -3629998.19048  -4738799.94347  21280507.9794   21280515.5064
     -1340.2504
  -5446785.44246  -3701913.26346  22917496.8464   22917506.0024
     -2999.6874
 01 10  2  0 36 15.0020000  0  7G 2G13G 8G28G27G31G10
  -3151318.97445  -2363775.90945  22707117.2214   22707127.3504
       525.6564
   4493580.79646   5023873.09645  23006825.3694   23006834.6784
     -4231.5784
  -6277402.61948  -4792230.98946  20909648.7054   20909656.1274
      -126.3914
 -12648287.34646  -8210870.15746  21636626.1274   21636633.3854
       188.6094
  -3609847.80048  -4723098.34447  21284342.4084   21284349.7954
     -1346.2974
  -5401713.60846  -3666792.36146  22926073.5414   22926082.9674
     -3009.7344
      4689.11951                  24586413.0724
     -2347.4374
 01 10  2  0 36 30.0020000  0  7G 2G13G 8G28G27G31G10
  -3159164.52845  -2369889.28646  22705625.4554   22705634.8694
       521.0944
   4557100.12146   5073368.59345  23018912.8854   23018921.4794
     -4237.0004
  -6275463.72748  -4790720.15246  20910017.4324   20910024.7604
      -131.4694
 -12651063.94646  -8213033.69946  21636098.1824   21636105.1354
       182.2664
  -3589607.47248  -4707326.65747  21288194.2054   21288201.6624
     -1351.7504
  -5356492.04746  -3631554.78346  22934679.4944   22934688.6044

     -3019.1564                   24593125.0494
     -2354.7344
 01 10  2  0 36 45.0020000  0  7G 2G13G 8G28G27G31G10
  -3166936.63245  -2375945.42346  22704145.6974   22704155.5574
       515.6724
   4620705.43046   5122931.09845  23031016.3304   23031025.8504
     -4243.2194
  -6273443.59148  -4789146.00946  20910402.1114   20910409.6154
      -137.3914
 -12653741.02446  -8215119.70746  21635588.5414   21635595.3734
       175.1414
  -3569280.73548  -4691487.64447  21292062.1744   21292069.5254
     -1358.0164
  -5311124.61646  -3596203.54346  22943312.4324   22943322.1154
     -3029.3754
      4722.26151                  24599860.8384
     -2363.1254
 01 10  2  0 37  0.0020000  0  7G 2G13G 8G28G27G31G10
  -3174633.83145  -2381943.21146  22702680.8544   22702690.3734
       510.4224
   4684397.85246   5172561.48045  23043136.4084   23043146.0684
     -4249.2814
  -6271340.45548  -4787507.19546  20910802.3614   20910809.5614
      -143.1874
 -12656317.05546  -8217126.97546  21635098.2754   21635104.8734
       168.1724
  -3548865.91548  -4675579.99147  21295947.0184   21295954.4394
     -1364.1254
  -5265610.03146  -3560737.63446  22951973.4944   22951983.0024

     -3039.4064                   24606614.8544
     -2371.4374
 01 10  2  0 37 15.0020000  0  6G 2G13G 8G28G27G31
  -3182251.83545  -2387879.28646  22701231.7604   22701241.1154
       505.2194
   4748181.45846   5222262.92045  23055275.1744   23055284.5414
     -4255.2974
  -6269150.02448  -4785800.35346  20911218.9714   20911226.4164
      -148.9694
 -12658787.74646  -8219052.16046  21634628.1354   21634634.6154
       161.1884
  -3528358.67148  -4659600.32247  21299849.2604   21299856.6234
     -1370.2664
  -5219944.40746  -3525154.01846  22960662.9164   22960671.8264
     -3049.4224
 01 10  2  0 37 30.0020000  0  6G 2G13G 8G28G27G31
  -3189790.76945  -2393753.72846  22699796.8304   22699806.7604
       499.7504
   4812055.95346   5272035.17045  23067430.1974   23067440.5614
     -4261.5164
  -6266872.06048  -4784025.30246  20911652.6044   20911660.0964
      -154.9844
 -12661153.22746  -8220895.36146  21634178.0184   21634184.6154
       154.0004
  -3507758.86448  -4643548.52347  21303769.2834   21303776.8464
     -1376.6094
  -5174128.07246  -3489452.98746  22969381.4634   22969390.8654
     -3059.6414
 01 10  2  0 37 45.0020000  0  6G 2G13G 8G28G27G31
  -3197249.26745  -2399565.51046  22698377.3464   22698387.2644
       494.6094
   4876022.38646   5321879.05945  23079601.8934   23079611.4474
     -4267.4374
  -6264505.12048  -4782180.92046  20912102.8224   20912110.1864
      -160.7034
 -12663412.13346  -8222655.51246  21633748.2834   21633755.4004
       147.0944
  -3487064.98148  -4627423.41547  21307707.1194   21307714.7054
     -1382.6874
  -5128159.86346  -3453633.61546  22978129.2914   22978138.6464
     -3069.5624
 01 10  2  0 38  0.0020000  0  6G 2G13G 8G28G27G31
  -3204636.60145  -2405321.83246  22696971.5884   22696981.1074
       489.9534
   4940071.25846   5371787.23745  23091790.2134   23091800.3654
     -4272.8284
  -6262058.31448  -4780274.30646  20912568.4394   20912575.7914
      -165.9534
 -12665573.78746  -8224339.89846  21633337.2994   21633344.2174
       140.6884
  -3466286.24548  -4611232.19147  21311661.4004   21311668.8694
     -1388.2504
  -5082049.23646  -3417703.25346  22986903.6744   22986913.1704
     -3078.9534
 01 10  2  0 38 15.0020000  0  7G 2G13G 8G28G27G 7G31
  -3211948.58345  -2411019.43446  22695580.2444   22695589.7174
       484.5004
   5004206.40646   5421762.61845  23103994.4324   23104005.0064
     -4278.9844
  -6259527.37248  -4778302.12346  20913049.9474   20913057.4514
      -171.9844
 -12667633.93846  -8225945.18246  21632944.6044   21632951.9674
       133.5164
  -3445418.31048  -4594971.46047  21315632.4004   21315640.0804
     -1394.6254
     -4999.14052                  25299293.3694
      2500.3594
  -5035792.31046  -3381658.89446  22995705.9794   22995714.9714
     -3089.1254
 01 10  2  0 38 30.0020000  0  7G 2G13G 8G28G27G 7G31
  -3219177.97145  -2416652.67846  22694204.2364   22694213.8854
       479.5944
   5068435.10746   5471810.86845  23116217.4084   23116226.6234
     -4284.6414
  -6256904.73448  -4776258.49246  20913549.0644   20913556.4754
      -177.5314
 -12669585.33946  -8227465.72746  21632573.3694   21632580.4284
       126.8284
  -3424453.69248  -4578635.38947  21319621.7364   21319629.2054
     -1400.5004
    -42496.30941                  25292156.3304
      2499.3444
  -4989381.93146  -3345494.97146  23004537.6744   23004547.4044
     -3098.7504
 01 10  2  0 38 45.0020000  0  7G 2G13G 8G28G27G 7G31
  -3226328.17445  -2422224.22546  22692843.9244   22692853.3504
       473.7974
   5132753.41446   5521928.92745  23128456.9084   23128465.5724
     -4291.1094
  -6254193.79548  -4774146.05846  20914064.7444   20914072.0614
      -183.9224
 -12671431.44146  -8228904.22246  21632222.5104   21632229.1434
       119.3284
  -3403395.73248  -4562226.59047  21323628.8544   21323636.3694
     -1407.2194
    -79973.66941                  25285023.9164
      2497.6254
  -4942821.87746  -3309214.42246  23013397.1974   23013406.0724
     -3109.2344
 01 10  2  0 39  0.0020000  0  7G 2G13G 8G28G27G 7G31
  -3233402.91645  -2427736.97046  22691496.9004   22691505.7874
       469.1094
   5197157.31046   5572113.71745  23140712.4634   23140720.0024
     -4296.4534
  -6251398.12648  -4771967.59946  20914596.8934   20914604.1974
      -189.2344
 -12673175.98646  -8230263.57946  21631890.0644   21631897.0534
       112.8914
  -3382247.99948  -4545747.83847  21327653.4004   21327660.8694
     -1412.8594
   -117434.61641                  25277894.6354
      2496.8444
  -4896116.18946  -3272820.39946  23022285.6664   23022295.2794
     -3118.5784
 01 10  2  0 39 15.0020000  0  7G 2G13G 8G28G27G 7G31
  -3240399.72645  -2433188.99246  22690165.9244   22690175.7364
       464.1564
   5261649.27746   5622367.13345  23152984.3934   23152993.6544
     -4302.0944
  -6248514.99048  -4769720.98147  20915145.5964   20915152.9124
      -194.8124
 -12674816.46946  -8231541.85146  21631577.9554   21631584.9434
       106.2034
  -3361007.89348  -4529197.10447  21331695.1504   21331702.5254
     -1418.7814
   -154876.26141                  25270769.6974
      2495.7504
  -4849262.62046  -3236311.12946  23031201.1894   23031211.2834
     -3128.2034
 01 10  2  0 39 30.0020000  0  7G 2G13G 8G28G27G 7G31
  -3247320.68045  -2438581.90146  22688848.9084   22688858.9904
       459.0634
   5326226.82446   5672687.22145  23165273.8544   23165283.2094
     -4307.8284
  -6245546.38748  -4767407.76547  20915710.4474   20915717.9284
      -200.5624
 -12676355.07346  -8232740.73646  21631285.4864   21631292.7324
        99.3754
  -3339677.36748  -4512575.91447  21335754.1744   21335761.5614
     -1424.8444
   -192300.48341                  25263647.5254
      2494.5634
  -4802263.42846  -3199688.39546  23040145.0184   23040154.5614
     -3137.9374
 01 10  2  0 39 45.0020000  0  7G 2G13G 8G28G27G 7G31
  -3254161.85145  -2443912.64746  22687547.2604   22687556.6864
       453.1414
   5390893.74946   5723076.96445  23177579.6974   23177588.6894
     -4314.3914
  -6242488.16348  -4765024.72147  20916292.6274   20916300.0144
      -207.1724
 -12677787.75146  -8233857.07346  21631012.3774   21631019.3774
        91.7034
  -3318252.28348  -4495881.03947  21339831.2684   21339838.6074
     -1431.7814
   -229702.91441                  25256529.6274
      2492.4844
  -4755114.86546  -3162949.27946  23049116.8304   23049126.2214
     -3148.5164
 01 10  2  0 40  0.0020000  0  7G 2G13G 8G28G27G 7G31
  -3260927.13645  -2449184.25746  22686259.4324   22686269.0924
       448.5944
   5455645.82146   5773533.04645  23189901.5024   23189911.2794
     -4319.5164
  -6239344.01648  -4762574.71647  20916890.8304   20916898.1704
      -212.3754
 -12679118.30846  -8234893.83946  21630759.2134   21630766.3184
        85.4064
  -3296736.34748  -4479115.37447  21343925.7054   21343933.0574
     -1437.3124
    -27411.17451                  25249417.1354
      2491.7974
  -4707821.14646  -3126097.02546  23058116.4474   23058126.0144
     -3157.6564
 01 10  2  0 40 15.0020000  0  7G 2G13G 8G28G27G 7G31
  -3267615.30445  -2454395.76646  22684986.9794   22684997.4474
       443.0634
   5520483.93846   5824056.16945  23202239.8074   23202250.2874
     -4325.6414
  -6236112.60148  -4760056.71547  20917505.6504   20917512.9794
      -218.5784
 -12680345.65346  -8235850.19346  21630525.4794   21630532.2294
        78.1414
  -3275128.31848  -4462277.94947  21348037.5184   21348044.9394
     -1443.8594
    -64775.67041                  25242305.2054
      2490.0474
  -4660381.33746  -3089130.96046  23067144.3614   23067153.5884
     -3167.7664
 01 10  2  0 40 30.0020000  0  7G 2G13G 8G28G27G 7G31
  -3274227.36245  -2459547.98646  22683728.6194   22683738.3964
       438.2664
   5585406.85546   5874645.38445  23214593.8384   23214605.2324
     -4331.0164
  -6232794.77148  -4757471.37947  20918137.1824   20918144.5214
      -224.0624
 -12681470.82346  -8236726.91346  21630311.3774   21630318.5534
        71.6094
  -3253429.06648  -4445369.43847  21352166.7294   21352173.9984
     -1449.6564
   -102121.21041                  25235200.3224
      2489.0634
  -4612796.60146  -3052051.95846  23076199.7054   23076209.2364
     -3177.1414
 01 10  2  0 40 45.0020000  0  7G 2G13G 8G28G27G 7G31
  -3280762.88645  -2464640.55146  22682484.8464   22682494.6004
       433.0474
   5650414.82246   5925300.87445  23226964.4554   23226974.5844
     -4336.7974
  -6229389.82248  -4754818.15447  20918784.7444   20918792.0254
      -230.0164
 -12682493.33346  -8237523.65446  21630116.9634   21630123.7014
        64.6414
  -3231637.91148  -4428389.31547  21356313.6504   21356320.9434
     -1455.9064
   -139446.90641                  25228097.2604
      2487.5784
  -4565066.70546  -3014859.84646  23085282.3854   23085292.1504
     -3186.9374
 01 10  2  0 41  0.0020000  0  7G 2G13G 8G28G27G 7G31
  -3287223.68445  -2469674.89246  22681255.1504   22681263.8964
       428.3134
   5715505.68446   5976020.93645  23239351.3614   23239361.3964
     -4342.0474
  -6225899.42848  -4752098.35447  20919449.0964   20919456.5184
      -235.4694
 -12683415.09246  -8238241.87346  21629941.3144   21629948.4084
        58.1564
  -3209756.56848  -4411338.91447  21360477.2524   21360484.6864
     -1461.6874
   -176754.14141                  25220997.6194
      2486.5944
  -4517193.74246  -2977556.25546  23094391.9864   23094401.0254
     -3196.2194
 01 10  2  0 41 15.0020000  0  7G 2G13G 8G28G27G 7G31
  -3293609.96845  -2474651.17246  22680039.8144   22680048.7604
       423.3444
   5780679.09546   6026805.34845  23251752.8934   23251761.1234
     -4347.5624
  -6222323.65648  -4749312.01147  20920129.3074   20920136.5764
      -241.1564
 -12684236.20546  -8238881.68746  21629785.1584   21629792.1004
        51.4694
  -3187785.08048  -4394218.27247  21364658.3074   21364665.7054
     -1467.7034
   -214042.94341                  25213901.3544
      2485.3914
  -4469178.18246  -2940141.54546  23103529.2294   23103538.7714
     -3205.7194
 01 10  2  0 41 30.0020000  0  7G 2G13G 8G28G27G 7G31
  -3299919.79845  -2479567.88846  22678839.4634   22678848.7134
       417.8134
   5845936.82446   6077655.40845  23264171.4794   23264180.7294
     -4353.6094
  -6218660.55748  -4746457.63147  20920826.7364   20920834.2054
      -247.4224
 -12684954.80246  -8239441.60446  21629648.6044   21629655.4244
        44.2034
  -3165721.36448  -4377025.76147  21368856.9084   21368864.1784
     -1474.2814
    -12418.01051                  25206807.2444
      2483.5784
  -4421018.23246  -2902614.31246  23112693.6044   23112702.7714
     -3215.7664
 01 10  2  0 41 45.0020000  0  7G 2G13G 8G28G27G 7G31
  -3306150.86045  -2484423.20946  22677653.5184   22677663.1894
       412.9064
   5911280.77746   6128572.73345  23276605.9244   23276616.6044
     -4359.0004
  -6214907.50148  -4743533.15547  20921540.6114   20921547.8224
      -253.0784
 -12685568.57946  -8239919.85046  21629531.8614   21629538.3654
        37.5474
  -3143562.98648  -4359759.49047  21373073.6744   21373081.1074
     -1480.2664
    -49662.82041                  25199720.4554
      2482.3594
  -4372711.97646  -2864973.11146  23121885.7214   23121895.4044
     -3225.1564
 01 10  2  0 42  0.0020000  0  7G 2G13G 8G28G27G 7G31
  -3312304.59345  -2489218.27746  22676482.5804   22676492.1354
       407.9844
   5976709.29046   6179555.92345  23289056.8934   23289066.1784
     -4364.4064
  -6211065.83748  -4740539.63347  20922271.7444   20922279.1194
      -258.7664
 -12686078.88146  -8240317.46146  21629434.3464   21629441.1784
        30.8914
  -3121311.17648  -4342420.40847  21377307.8144   21377315.2484
     -1486.2504
    -12404.32851                  25192640.3074
      2481.0474
  -4324261.03046  -2827219.14046  23131105.9944   23131115.1504
     -3234.5624
 01 10  2  0 42 15.0020000  0  7G 2G13G 8G28G27G 7G31
  -3318383.14545  -2493954.77546  22675325.9554   22675335.6864
       402.5314
   6042220.02646   6230603.15645  23301523.2444   23301532.3894
     -4370.3284
  -6207137.50248  -4737478.57847  20923019.0644   20923026.4164
      -265.0004
 -12686488.02946  -8240636.23946  21629356.5804   21629363.2604
        23.7034
  -3098968.00148  -4325010.14047  21381559.4244   21381566.8814
     -1492.7974
    -49606.38241                  25185562.4554
      2479.1884
  -4275667.77846  -2789354.28746  23140353.1274   23140361.9554
     -3244.4844
 01 10  2  0 42 30.0020000  0  7G 2G13G 8G28G27G 7G31
  -3324383.90245  -2498630.63546  22674184.3074   22674193.8504
       397.6254
   6107815.31546   6281716.30745  23314005.6974   23314015.2524
     -4375.6564
  -6203119.66748  -4734347.78147  20923783.7294   20923791.1744
      -270.6564
 -12686793.29646  -8240874.09346  21629298.1114   21629304.9554
        17.0634
  -3076530.62748  -4307526.46947  21385829.2444   21385836.6664
     -1498.7814
    -12388.03551     -9653.62154  25178484.9554   25178504.3544
      2477.9844
  -4226929.81246  -2751376.67346  23149627.7054   23149636.7794
     -3253.8444
 01 10  2  0 42 45.0020000  0  7G 2G13G 8G28G27G 7G31
  -3330306.72345  -2503245.76446  22673056.8224   22673066.4124
       391.9694
   6173495.06046   6332895.25345  23326504.1744   23326514.4434
     -4381.7504
  -6199011.84648  -4731146.86047  20924565.5964   20924572.9594
      -277.1414
 -12686994.46946  -8241030.82246  21629259.9864   21629266.8464
         9.6564
  -3053998.82248  -4289969.21246  21390116.8854   21390124.4944
     -1505.5624
     -4950.78351    -38605.27444  25171414.4004   25171430.9394
      2475.8284
  -4178047.21846  -2713286.36046  23158929.9084   23158938.5614
     -3263.9534
 01 10  2  0 43  0.0020000  0  7G 2G13G 8G28G27G 7G31
  -3336152.79845  -2507801.09746  22671944.6044   22671953.9474
       387.0004
   6239257.65846   6384138.74845  23339018.2684   23339028.4434
     -4387.1094
  -6194815.32348  -4727876.82447  20925364.1194   20925371.4124
      -282.9064
 -12687092.87146  -8241107.47846  21629241.6114   21629248.6464
         2.9694
  -3031373.61648  -4272339.17546  21394422.3614   21394429.7954

     -1511.6414                   25164347.1744
      2474.5164
  -4129021.55146  -2675084.55346  23168259.3694   23168268.7604
     -3273.3124
 01 10  2  0 43 15.0020000  0  7G 2G13G 8G28G27G 7G31
  -3341926.76245  -2512300.24046  22670845.7294   22670854.8964
       382.4224
   6305098.37646   6435443.12645  23351547.1434   23351557.6004
     -4392.0784
  -6190534.51448  -4724541.10647  20926178.8464   20926186.2094
      -288.2974
 -12687093.09646  -8241107.63946  21629241.6894   21629248.7604
        -3.3594
  -3008659.53148  -4254639.88346  21398744.5414   21398751.9394

     -1517.3444     -34636.50541  25157283.0184
      2473.4844
  -4079857.62746  -2636775.02546  23177614.4394   23177623.4904
     -3282.2814
 01 10  2  0 43 30.0020000  0  7G 2G13G 8G28G27G 7G31
  -3347625.54345  -2516740.80746  22669760.8934   22669769.7564
       377.3444
   6371019.96546   6486810.51845  23364092.3384   23364102.0214
     -4397.5474
  -6186166.13648  -4721137.15347  20927009.8694   20927017.2094
      -294.2504
 -12686992.04346  -8241028.85946  21629260.6894   21629267.2994
       -10.1874
  -2985853.34248  -4236868.82446  21403084.4244   21403091.7874

     -1523.5624     -71727.36041  25150225.8854
      2471.8284
  -4030552.59646  -2598355.53446  23186997.0644   23187006.4904
     -3291.7664
 01 10  2  0 43 45.0020000  0  7G 2G13G 8G28G27G 7G31
  -3353248.69945  -2521122.43046  22668690.9554   22668699.8074
       372.3754
   6437022.62446   6538241.07345  23376652.4474   23376662.7524
     -4402.8594
  -6181709.59848  -4717664.51547  20927858.1274   20927865.5494
      -300.0314
 -12686789.39246  -8240870.93246  21629299.1274   21629305.9714
       -16.8754
  -2962954.48748  -4219025.55546  21407442.0724   21407449.6354

     -1529.6724    -108795.29041  25143172.6194
      2470.4694
  -3981106.32446  -2559825.99846  23196406.2294   23196414.7054
     -3301.1094
 01 10  2  0 44  0.0020000  0  7G 2G13G 8G28G27G 7G31
  -3358795.31045  -2525444.42446  22667635.9554   22667645.4394
       367.1414
   6503107.05145   6589735.35045  23389227.1584   23389236.4324
     -4408.4374
  -6177163.70348  -4714122.24147  20928723.1044   20928730.1394
      -306.1094
 -12686484.20046  -8240633.09046  21629357.0334   21629363.8074
       -23.8594
  -2939961.84948  -4201109.20546  21411817.1114   21411824.4984

     -1536.0624    -145839.16141  25136123.2444
      2468.7034
  -3931518.18946  -2521185.89846  23205843.0254   23205852.2524
     -3310.6874
 01 10  2  0 44 15.0020000  0  7G 2G13G 8G28G27G 7G31
  -3364267.08245  -2529708.10346  22666594.1194   22666603.8854
       362.0944
   6569271.40345   6641291.90945  23401818.0804   23401828.1394
     -4413.8124
  -6172530.07548  -4710511.59547  20929604.9244   20929612.1234
      -312.0474
 -12686078.15846  -8240316.67046  21629434.6974   21629441.1544
       -30.6094
  -2916876.92048  -4183120.94246  21416210.3934   21416217.9084

     -1542.2664      -4933.07051  25129076.7914
      2467.1094
  -3881790.12646  -2482436.78046  23215306.1434   23215315.5334
     -3320.0474
 01 10  2  0 44 30.0020000  0  7G 2G13G 8G28G27G 7G31
  -3369661.83445  -2533911.74346  22665567.2364   22665576.7794
       357.1094
   6635517.48045   6692912.15845  23414424.1894   23414434.5764
     -4419.0944
  -6167806.30448  -4706830.72147  20930503.6824   20930510.9394
      -317.8914
 -12685569.02646  -8239919.92546  21629531.4794   21629538.0184
       -37.3444
  -2893697.42848  -4165058.99446  21420621.3224   21420628.6864

     -1548.4064     -41928.79842  25122038.3694
      2465.5634
  -3831920.17546  -2443577.10346  23224795.8614   23224805.4284
     -3329.3594
 01 10  2  0 44 45.0020000  0  7G 2G13G 8G28G27G 7G31
  -3374981.54345  -2538056.91346  22664554.6894   22664564.6434
       352.4384
   6701843.00445   6744594.29045  23427045.4794   23427056.3344
     -4424.0624
  -6162994.31448  -4703081.10147  20931419.4474   20931426.7644
      -323.4534
 -12684958.84246  -8239444.43346  21629647.6044   21629654.1434
       -43.7664
  -2870425.20548  -4146924.78846  21425049.7364   21425057.3114

     -1554.2974     -78900.94741  25115000.3544
      2464.2814
  -3781910.65246  -2404608.66046  23234312.1824   23234321.3144
     -3338.3284
 01 10  2  0 45  0.0020000  0  7G 2G13G 8G28G27G 7G31
  -3380235.85945  -2542151.13846  22663555.0724   22663564.9674
       348.3594
   6768238.17445   6796330.72045  23439680.7754   23439690.9394
     -4428.4064
  -6158103.47848  -4699270.03347  20932349.9394   20932357.0574
      -328.4374
 -12684257.17646  -8238897.65246  21629780.8694   21629787.5494
       -49.5784
  -2847069.73048  -4128725.70946  21429494.1664   21429501.5414

     -1559.5624    -115858.56841  25107968.6664
      2463.6254
  -3731771.36946  -2365539.09846  23243853.1114   23243861.7994
     -3346.6874
 01 10  2  0 45 15.0020000  0  7G 2G13G 8G28G27G 7G31
  -3385413.14345  -2546185.34446  22662569.6114   22662579.5064
       342.7814
   6834714.29645   6848130.19645  23452330.4164   23452340.2174
     -4434.2344
  -6153122.13348  -4695388.44447  20933298.0254   20933305.2364
      -334.9374
 -12683452.43446  -8238270.56146  21629934.0334   21629940.8424
       -56.8914
  -2823619.22848  -4110452.58346  21433956.5494   21433963.9244

     -1566.3444    -152789.81342  25100943.7294
      2461.3754
  -3681490.96746  -2326359.59046  23253421.6504   23253431.1354
     -3356.5314
 01 10  2  0 45 30.0020000  0  7G 2G13G 8G28G27G 7G31
  -3390518.81445  -2550163.73346  22661598.2604   22661607.8034
       337.7194
   6901265.69045   6899988.36645  23464994.7364   23465006.1544
     -4439.5164
  -6148055.29848  -4691440.24247  20934262.2294   20934269.4044
      -340.8914
 -12682550.02146  -8237567.35746  21630105.9554   21630112.5644
       -63.6874
  -2800078.93248  -4092109.49246  21438436.3464   21438443.8734
     -1572.6094
   -189699.91941    -13418.16253  25093917.7444   25093933.7914
      2459.6564
  -3631075.10946  -2287074.52546  23263015.3384   23263024.3074
     -3365.8284
 01 10  2  0 45 45.0020000  0  7G 2G13G 8G28G27G 7G31
  -3395547.37245  -2554082.04546  22660640.9244   22660650.1044
       332.8914
   6967897.69945   6951909.31445  23477674.2364   23477684.1314
     -4444.5944
  -6142897.30148  -4687421.00247  20935243.7294   20935250.8694
      -346.7034
 -12681544.58546  -8236783.87446  21630297.1434   21630303.5884
       -70.2344
  -2776443.25448  -4073692.07946  21442934.0104   21442941.4904
     -1578.6724
                                  25086897.7994
      2458.2034
  -3580518.51846  -2247679.78846  23272636.1974   23272645.4364
     -3374.9064
 01 10  2  0 46  0.0020000  0  7G 2G13G 8G28G27G 7G31
  -3400504.25545  -2557944.49646  22659698.0884   22659707.4674
       328.0784
   7034604.67245   7003888.69345  23490368.2754   23490379.4124
     -4449.6094
  -6137653.64848  -4683335.02447  20936241.5104   20936248.6394
      -352.4374
 -12680441.54246  -8235924.34546  21630507.1044   21630513.8074
       -76.7814
  -2752717.45848  -4055204.44046  21447448.8694   21447456.2444
     -1584.7194
    -27026.94342                  25079884.1974
      2456.6724
  -3529826.93446  -2208179.88346  23282282.0104   23282291.0964
     -3383.9224
 01 10  2  0 46 15.0020000  0  7G 2G13G 8G28G27G 7G31
  -3405388.63045  -2561750.45446  22658768.8934   22658778.5884
       323.4694
   7101387.05845   7055926.82545  23503076.6354   23503087.2444
     -4454.4064
  -6132323.12648  -4679181.34547  20937255.8224   20937262.9394
      -358.0004
 -12679240.11646  -8234988.13846  21630735.5964   21630742.2054
       -83.1254
  -2728900.61448  -4036645.85346  21451980.9554   21451988.3304
     -1590.5784
    -63864.73142                  25072874.4634
      2455.3134
  -3478999.87946  -2168574.39846  23291954.3224   23291963.3504
     -3392.7344
 01 10  2  0 46 30.0020000  0  7G 2G13G 8G28G27G 7G31
  -3410200.06545  -2565499.57946  22657853.0574   22657862.1194
       318.1724
   7168244.83245   7108023.74845  23515799.0804   23515810.3114
     -4459.8594
  -6126905.26848  -4674959.61747  20938286.8934   20938294.0334
      -364.2664
 -12677939.79246  -8233974.88246  21630983.0884   21630989.5684
       -90.1414
  -2704992.12548  -4018015.86046  21456530.5644   21456537.9634
     -1597.1094
   -100678.82141                  25065867.2834
      2453.2974
  -3428037.14546  -2128863.19546  23301652.2294   23301661.3504
     -3402.1874
 01 10  2  0 46 45.0020000  0  7G 2G13G 8G28G27G 7G31
  -3414933.00845  -2569187.53146  22656952.0574   22656961.5294
       313.3444
   7235183.49645   7160183.65445  23528537.3464   23528547.0764
     -4464.8444
  -6121394.21048  -4670665.26347  20939335.6894   20939342.7834
      -370.0784
 -12676534.96846  -8232880.19246  21631250.6664   21631257.3934
       -96.7034
  -2680986.33248  -3999310.04346  21461098.8464   21461106.3854
     -1603.2194
   -137463.03142                  25058870.0104
      2451.7194
  -3376933.36846  -2089042.08846  23311376.6584   23311386.2954
     -3411.1874
 01 10  2  0 47  0.0020000  0  7G 2G13G 8G28G27G 7G31
  -3419595.21545  -2572820.37446  22656064.9864   22656074.2014
       308.2504
   7302195.24145   7212400.52845  23541289.8544   23541300.0064
     -4470.0784
  -6115797.70548  -4666304.33147  20940400.3224   20940407.5104
      -376.1564
 -12675033.50646  -8231710.19846  21631536.0184   21631542.8144
      -103.5314
  -2656890.69548  -3980534.22046  21465684.0334   21465691.3614
     -1609.5784
   -174224.89341                  25051872.4244
      2449.8914
  -3325696.46946  -2049117.25346  23321127.2914   23321136.7874
     -3420.4224
 01 10  2  0 47 15.0020000  0  7G 2G13G 8G28G27G 7G31
  -3424181.54645  -2576394.09746  22655192.2364   22655201.0414
       303.1254
   7369284.75045   7264677.96545  23554056.7444   23554068.3384
     -4475.3124
  -6110110.29748  -4661872.56447  20941482.7214   20941489.8964
      -382.3124
 -12673430.30846  -8230460.93346  21631841.2914   21631847.7134
      -110.3754
  -2632700.06948  -3961684.37746  21470287.4554   21470294.8544
     -1615.9844
   -210958.84442    -22896.26954  25044883.1664   25044903.9864
      2447.9384
  -3274321.61646  -2009084.91746  23330903.2994   23330912.7484
     -3429.6724
 01 10  2  0 47 30.0020000  0  7G 2G13G 8G28G27G 7G31
  -3428695.20945  -2579911.18646  22654332.5724   22654341.2254
       298.1414
   7436448.67345   7317013.41245  23566837.1114   23566849.2214
     -4480.4224
  -6104335.05348  -4657372.36247  20942581.6894   20942588.9004
      -388.2814
 -12671728.42846  -8229134.76846  21632164.8224   21632171.2094
      -117.0944
  -2608417.45348  -3942762.85746  21474907.9244   21474915.3224
     -1622.2504
   -247667.85341    -51500.46644  25037895.5884   25037912.1624
      2446.0784
  -3222812.30246  -1968947.81346  23340705.7214   23340715.5334
     -3438.7974
 01 10  2  0 47 45.0020000  0  7G 2G13G 8G28G27G 7G31
  -3433128.20845  -2583365.42746  22653489.5184   22653498.2174
       293.1254
   7503694.72445   7369412.86545  23579634.0964   23579644.3654
     -4485.5164
  -6098463.75948  -4652797.30947  20943698.8304   20943706.0884
      -394.3594
 -12669919.88646  -8227725.49446  21632509.2914   21632515.6784
      -123.8284
  -2584034.64648  -3923763.26646  21479547.9394   21479555.3734
     -1628.5784
   -284343.45941    -80078.75643  25030916.8854   25030932.7444
      2444.2194
  -3171160.71446  -1928699.85146  23350534.0644   23350543.7714
     -3447.9064
 01 10  2  0 48  0.0020000  0  7G 2G13G 8G28G27G 7G31
  -3437488.89945  -2586763.32446  22652660.0414   22652669.2444
       287.8284
   7571014.24645   7421869.55345  23592444.5334   23592455.5414
     -4490.8914
  -6092504.56148  -4648153.74847  20944832.8934   20944840.1624
      -400.6874
 -12668013.15646  -8226239.70046  21632872.0964   21632878.8814
      -130.8594
  -2559559.90448  -3904692.03446  21484205.3694   21484212.7324
     -1635.2034
   -320993.69341   -108637.14944  25023940.5964   25023960.1114
      2442.0164
  -3119375.50746  -1888347.75546  23360388.4164   23360397.7364
     -3457.2814
 01 10  2  0 48 15.0020000  0  7G 2G13G 8G28G27G 7G31
  -3441776.06445  -2590103.92746  22651844.2994   22651852.9864
       283.2814
   7638408.06845   7474384.13845  23605269.2054   23605279.2054
     -4495.4694
  -6086456.08148  -4643440.62947  20945983.6974   20945990.9434
      -406.2664
 -12666007.02746  -8224676.46346  21633253.6664   21633260.3814
      -137.1094
  -2534991.88648  -3885548.11946  21488880.5644   21488887.9864
     -1641.0474
   -357617.03342   -137174.74143  25016974.1584   25016994.7684
      2440.5784
  -3067455.78446  -1847890.84746  23370268.8694   23370277.8734
     -3465.8444
 01 10  2  0 48 30.0020000  0  7G 2G13G 8G28G27G 7G31
  -3445986.23146  -2593384.52446  22651043.0884   22651051.7294
       278.1254
   7705879.56445   7526959.26545  23618108.5574   23618119.4824
     -4500.6874
  -6080314.86048  -4638655.24047  20947152.3304   20947159.4364
      -412.5164
 -12663898.10746  -8223033.12346  21633654.8614   21633661.6114
      -144.0164
  -2510326.97548  -3866328.70646  21493574.1114   21493581.4984
     -1647.5474
   -394209.66441   -165688.25244  25010010.6894   25010028.3424
      2438.4694
  -3015398.32146  -1807326.60146  23380174.8854   23380184.0534
     -3475.0784
 01 10  2  0 48 45.0020000  0  7G 2G13G 8G28G27G 7G31
  -3450122.82346  -2596607.78746  22650255.4714   22650264.3934
       273.2664
   7773425.05745   7579592.03145  23630961.7364   23630971.5494
     -4505.5784
  -6074083.89548  -4633799.92447  20948338.2604   20948345.5764
      -418.4534
 -12661689.73246  -8221312.28746  21634075.2134   21634081.6464
      -150.6094
  -2485568.47648  -3847036.36946  21498285.5804   21498292.8504
     -1653.7504
   -430774.68342   -194180.26144  25003051.1974   25003064.3264
      2436.6884
  -2963206.84146  -1766657.93646  23390106.7604   23390115.3774
     -3483.9534
 01 10  2  0 49  0.0020000  0  7G 2G13G 8G28G27G 7G31
  -3454183.35846  -2599771.80246  22649482.9714   22649492.0104
       268.0004
   7841046.78245   7632284.19445  23643830.2994   23643840.5334
     -4510.7974
  -6067760.58148  -4628872.64647  20949541.4324   20949548.6544
      -424.7814
 -12659379.38846  -8219511.99046  21634514.9394   21634521.5024
      -157.5784
  -2460713.71348  -3827669.02046  21503015.2134   21503022.6354
     -1660.3594
   -467309.23241   -222648.63444  24996098.7524   24996119.4204
      2434.5004
  -2910879.17046  -1725883.14046  23400063.9554   23400073.5804
     -3493.2194
 01 10  2  0 49 15.0020000  0  7G 2G13G 8G28G27G 7G31
  -3458164.42846  -2602873.88646  22648725.7684   22648734.7134
       263.2504
   7908747.74345   7685038.11845  23656713.2054   23656723.5574
     -4515.5474
  -6061341.41648  -4623870.67647  20950762.9324   20950770.1314
      -430.6724
 -12656963.80046  -8217629.69146  21634974.5964   21634981.2054
      -164.0474
  -2435759.12448  -3808223.88946  21507764.0724   21507771.4594
     -1666.4844
   -503809.62942   -251090.33844  24989154.8934   24989178.1044
      2432.6884
  -2858412.15346  -1684999.76346  23410048.2134   23410057.5574
     -3501.9534
 01 10  2  0 49 30.0020000  0  7G 2G13G 8G28G27G 7G31
  -3462073.05346  -2605919.52746  22647981.6354   22647990.2404
       258.1724
   7976520.96145   7737848.32445  23669609.9164   23669619.1544
     -4520.5944
  -6054833.15748  -4618799.28647  20952001.5024   20952008.6314
      -436.8444
 -12654449.91646  -8215670.79146  21635452.7134   21635459.3574
      -170.8594
  -2410711.51248  -3788706.27246  21512530.3384   21512537.7484
     -1672.9374
   -540282.58842   -279510.52544  24982213.5024   24982234.9794
      2430.6094
  -2805813.05246  -1644013.47246  23420057.0184   23420066.3144
     -3511.0004
 01 10  2  0 49 45.0020000  0  7G 2G13G 8G28G27G 7G31
  -3465910.12746  -2608909.40746  22647251.1434   22647259.9244
       253.0164
   8044365.12945   7790713.82745  23682520.4714   23682528.9594
     -4525.7194
  -6048236.52448  -4613659.04547  20953256.8614   20953264.0374
      -443.1254
 -12651838.61146  -8213635.98946  21635950.0254   21635956.7524
      -177.7344
  -2385571.61348  -3769116.73946  21517314.4474   21517321.9044
     -1679.4844
   -576728.49742   -307909.89344  24975278.6194   24975291.5724
      2428.4384
  -2753082.93346  -1602925.08846  23430092.0184   23430102.2294
     -3520.1094
 01 10  2  0 50  0.0020000  0  7G 2G13G 8G28G27G 7G31
  -3469668.48046  -2611837.96046  22646536.2444   22646545.2254
       248.1094
   8112287.18445   7843640.05545  23695445.8304   23695452.4864
     -4530.5784
  -6041544.11448  -4608444.16347  20954530.1194   20954537.4124
      -449.1874
 -12649122.70946  -8211519.66046  21636466.7134   21636473.2294
      -184.3914
  -2360332.09648  -3749449.58246  21522117.3614   21522124.7834
     -1685.7974
   -613139.84642   -336282.13744  24968347.4714   24968362.8264
      2426.4384
  -2700214.88946  -1561729.22446  23440152.1354   23440161.8894
     -3528.9534
 01 10  2  0 50 15.0020000  0  7G 2G13G 8G28G27G 7G31
  -3473349.61646  -2614706.31546  22645835.5884   22645844.6154
       242.9694
   8180285.32745   7896625.51145  23708385.1664   23708395.3774
     -4535.5944
  -6034757.30448  -4603155.72247  20955821.6974   20955828.8264
      -455.4694
 -12646303.75946  -8209323.05446  21637002.9864   21637009.4554
      -191.2344
  -2334994.42748  -3729705.94446  21526938.8074   21526946.1934
     -1692.3284
   -649517.80842   -364628.35043  24961425.9794   24961443.0454
      2424.2034
  -2647210.65546  -1520427.24546  23450238.4864   23450249.2134
     -3538.0314
 01 10  2  0 50 30.0020000  0  7G 2G13G 8G28G27G 7G31
  -3476960.98546  -2617520.34246  22645148.7524   22645157.6274
       238.1564
   8248351.79645   7949664.23045  23721338.4164   23721350.2444
     -4540.2974
  -6027883.44448  -4597799.45547  20957129.9794   20957137.2364
      -461.4374
 -12643389.14246  -8207051.89446  21637557.5644   21637564.0214
      -197.7664
  -2309565.85348  -3709891.46746  21531777.7684   21531785.0964
     -1698.5474
   -685869.66842   -392954.29543  24954506.6114   24954524.2294
      2422.3284
  -2594078.02346  -1479025.21246  23460349.4004   23460358.7794
     -3546.7344
 01 10  2  0 50 45.0020000  0  7G 2G13G 8G28G27G 7G31
  -3480498.06246  -2620276.47146  22644475.3934   22644483.9634
       233.3914
   8316491.04745   8002759.66945  23734304.4864   23734314.7214
     -4544.9534
  -6020917.60348  -4592371.51847  20958455.2834   20958462.4474
      -467.3914
 -12640374.41246  -8204702.72346  21638131.0724   21638137.5294
      -204.2504
  -2284041.74048  -3690002.55646  21536634.7294   21536642.0574
     -1704.7344
   -722190.27142   -421256.04345  24947595.4004   24947607.8734
      2420.4534
  -2540812.66246  -1437519.74446  23470486.0024   23470496.0494
     -3555.3754
 01 10  2  0 51  0.0020000  0  7G 2G13G 8G28G27G 7G31
  -3483960.68146  -2622974.57046  22643816.3074   22643825.1464
       228.5474
   8384702.85945   8055911.65545  23747284.6584   23747294.2014
     -4549.7034
  -6013859.77448  -4586871.90047  20959798.4794   20959805.7714
      -473.4374
 -12637259.44746  -8202275.44046  21638723.9474   21638730.3464
      -210.8284
  -2258421.81248  -3670038.97546  21541510.1744   21541517.5964
     -1711.0164
   -758479.32542   -449533.00943  24940689.5494   24940706.1004
      2418.3754
  -2487414.74046  -1395910.99946  23480647.2294   23480656.6544
     -3564.0944
 01 10  2  0 51 15.0020000  0  8G 2G13G 8G28G27G 7G11G31
  -3487348.29146  -2625614.22346  22643171.5184   22643180.8734
       223.2194
   8452987.50545   8109120.39245  23760279.1894   23760288.8504
     -4554.8444
  -6006708.91548  -4581299.79047  20961159.1044   20961166.3854
      -479.9374
 -12634043.75946  -8199769.68046  21639335.9944   21639342.4394
      -217.8594
  -2232705.29748  -3650000.13346  21546403.7134   21546411.1114
     -1717.7814
   -794735.93242   -477784.68444  24933791.7134   24933810.4554
      2415.9224
     -2161.60054                  25860077.5574
      1080.7344
  -2433883.99246  -1354198.73446  23490833.2054   23490842.5254
     -3573.2664
 01 10  2  0 51 30.0020000  0  8G 2G13G 8G28G27G 7G11G31
  -3490659.57946  -2628194.41146  22642540.6504   22642549.4434
       218.4844
   8521346.09345   8162386.74245  23773287.7754   23773297.8464
     -4559.4224
  -5999463.69548  -4575654.15147  20962537.7994   20962544.9394
      -485.8914
 -12630726.01346  -8197184.40046  21639967.4864   21639974.1314
      -224.3124
  -2206890.72848  -3629884.88646  21551316.1584   21551323.4984
     -1723.9694
   -830958.25242   -506009.73944  24926899.6114   24926917.2054
      2413.9844
    -18352.72343                  25856995.8144
      1078.2664
  -2380219.34646  -1312382.14546  23501045.6894   23501055.1044
     -3581.8444
 01 10  2  0 51 45.0020000  0  8G 2G13G 8G28G27G 7G11G31
  -3493893.58546  -2630714.37846  22641926.6434   22641935.6354
       212.5164
   8589779.33145   8215711.25045  23786310.3384   23786321.3814
     -4565.2034
  -5992122.78748  -4569933.95347  20963934.6974   20963941.9434
      -493.0944
 -12627305.21746  -8194518.80546  21640618.4864   21640624.6864
      -231.9844
  -2180977.03548  -3609692.39946  21556247.3694   21556254.9084
     -1731.3914
   -867145.19542   -534207.14044  24920011.1584   24920028.9634
      2410.7664
    -34500.56443                  25853923.7914
      1074.5634
  -2326420.12446  -1270460.69146  23511282.4084   23511291.4714
     -3591.6094
 01 10  2  0 52  0.0020000  0  8G 2G13G 8G28G27G 7G11G31
  -3497050.85846  -2633174.56046  22641325.5024   22641334.3894
       208.0784
   8658286.43845   8269093.31945  23799346.2994   23799355.7254
     -4569.4374
  -5984686.76748  -4564139.63547  20965349.5334   20965356.7214
      -498.7504
 -12623781.89646  -8191773.33646  21641288.5024   21641295.0294
      -238.1564
  -2154964.60148  -3589422.96946  21561197.1354   21561204.6394
     -1737.2974
   -903296.79242   -562377.15543  24913131.5334   24913154.3114
      2409.0634
    -50605.14745                  25850859.4164
      1072.3594
  -2272487.11346  -1228434.98746  23521546.0254   23521554.9364
     -3599.8444
 01 10  2  0 52 15.0020000  0  8G 2G13G 8G28G27G 7G11G31
  -3500136.97446  -2635579.28446  22640737.5964   22640746.4364
       203.1564
   8726861.53245   8322528.37145  23812396.1664   23812408.1234
     -4574.1414
  -5977161.11548  -4558275.48447  20966781.7684   20966788.9434
      -504.9224
 -12620161.68346  -8188952.35146  21641977.6434   21641984.0294
      -244.7974
  -2128858.89648  -3569080.87246  21566165.1744   21566172.5374
     -1743.7194
   -939418.41442   -590523.74743  24906259.9944   24906274.4824
      2406.8754
    -66671.79543                  25847799.1974
      1069.5944
  -2218426.23446  -1186309.64946  23531834.1504   23531843.6114
     -3608.5314
 01 10  2  0 52 30.0020000  0  8G 2G13G 8G28G27G 7G11G31
  -3503142.52846  -2637921.23146  22640165.7054   22640175.2364
       197.3444
   8795513.78445   8376023.51945  23825460.4634   23825473.0884
     -4579.7034
  -5969536.06348  -4552333.87347  20968232.7054   20968239.8344
      -511.9844
 -12616435.19346  -8186048.55746  21642686.6504   21642692.8034
      -252.3124
  -2102650.37348  -3548658.64446  21571152.3694   21571159.8854
     -1751.0004
   -975500.30342   -618639.39343  24899392.5184   24899405.2604
      2403.7974
    -82690.85241         0.40854  25844747.1274   25844760.0574
      1066.0004
  -2164228.37446  -1144077.55746  23542146.5644   23542156.6934
     -3618.0944
 01 10  2  0 52 45.0020000  0  9G 2G13G 8G28G27G 7G11G26G31
  -3506069.33746  -2640201.83646  22639608.6504   22639617.3504
       192.5314
   8864241.16945   8429577.27145  23838538.4944   23838549.3034
     -4584.2974
  -5961813.14148  -4546316.00747  20969702.5644   20969709.6464
      -518.0784
 -12612604.32446  -8183063.43946  21643415.4164   21643421.8734
      -258.8444
  -2076340.63648  -3528157.55246  21576159.0724   21576166.4594
     -1757.3284
  -1011543.91242   -646725.11944  24892530.3544   24892549.7644
      2401.6724
    -98663.59043    -12445.76344  25841712.0024   25841728.3894
      1063.3444
     -4298.61253                  25553030.9554
      2149.5474
  -2109895.52246  -1101740.29246  23552486.4474   23552495.9794
     -3626.6564
 01 10  2  0 53  0.0020000  0  9G 2G13G 8G28G27G 7G11G26G31
  -3508925.04246  -2642427.02546  22639065.9244   22639074.6704
       187.9384
   8933035.79945   8483183.43245  23851629.9864   23851640.1744
     -4588.6094
  -5953999.93448  -4540227.79247  20971189.3464   20971196.4044
      -523.9694
 -12608676.78346  -8180002.97746  21644162.8934   21644169.4204
      -265.1414
  -2049937.19148  -3507583.44546  21581183.3544   21581190.6234
     -1763.4374
  -1047556.45942   -674786.53844  24885678.8074   24885698.9674
      2399.7194
   -114597.04344    -24861.37945  25838682.1824   25838694.1504
      1060.8444
    -36513.53543                  25546900.6504
      2145.4844
  -2055435.56946  -1059303.98046  23562849.7054   23562859.9164
     -3634.9694
 01 10  2  0 53 15.0020000  0  9G 2G13G 8G28G27G 7G11G26G31
  -3511706.81346  -2644594.61246  22638536.1664   22638545.0534
       182.9384
   9001900.21245   8536843.88645  23864734.1044   23864745.6974
     -4593.3444
  -5946093.42348  -4534066.86347  20972693.8224   20972700.9394
      -530.2664
 -12604649.62746  -8176864.90446  21644929.2294   21644935.7794
      -271.8444
  -2023437.09348  -3486934.02246  21586226.3934   21586233.6974
     -1769.9534
  -1083534.83342   -702821.52444  24878833.6114   24878846.1784
      2397.3594
   -130488.21643    -37244.03944  25835654.0024   25835664.9514
      1057.9224
    -68662.19342                  25540780.4244
      2140.9694
  -2000845.97046  -1016766.63646  23573239.0254   23573248.8734
     -3643.6724
 01 10  2  0 53 30.0020000  0  9G 2G13G 8G28G27G 7G11G26G31
  -3514414.52746  -2646704.46546  22638021.0494   22638029.6784
       178.3134
   9070834.27445   8590558.68545  23877852.7364   23877866.1824
     -4597.6564
  -5938093.38448  -4527833.05847  20974216.0494   20974223.2604
      -536.2034
 -12600522.70946  -8173649.09146  21645714.2364   21645720.6824
      -278.1874
  -1996840.01648  -3466209.03246  21591287.5334   21591294.8964
     -1776.1094
  -1119478.48842   -730829.42045  24871992.6044   24872011.2174
      2395.3914
   -146336.52243    -49593.20044  25832639.3464   25832654.5374
      1055.3754
   -100743.94142                  25534675.9324
      2136.7974
  -1946126.86646   -974128.39146  23583650.7134   23583659.7644
     -3651.9844
 01 10  2  0 53 45.0020000  0  9G 2G13G 8G28G27G 7G11G26G31
  -3517053.64446  -2648760.90346  22637518.5334   22637527.2794
       173.5634
   9139832.26045   8644323.25545  23890982.6664   23890994.3074
     -4602.0784
  -5930004.98148  -4521530.40147  20975755.1504   20975762.2094
      -542.2814
 -12596301.55846  -8170359.84946  21646517.7994   21646524.2794
      -284.6414
  -1970151.26448  -3445412.60446  21596366.0574   21596373.7014
     -1782.4064
  -1155392.53642   -758814.20645  24865158.7914   24865177.4044
      2393.1884
   -162146.83744    -61912.85144  25829633.3224   25829646.1464
      1052.6724
   -132763.85542                  25528584.0334
      2132.5004
  -1891284.02446   -931393.74346  23594086.6894   23594095.8814
     -3660.4064
 01 10  2  0 54  0.0020000  0  9G 2G13G 8G28G27G 7G11G26G31
  -3519616.93946  -2650758.24946  22637030.8074   22637040.2564
       168.5634
   9208901.31745   8698143.20545  23904126.2294   23904137.5534
     -4606.7504
  -5921820.77648  -4515153.09247  20977312.8304   20977319.9474
      -548.6254
 -12591978.85346  -8166991.47346  21647340.1894   21647346.8114
      -291.3594
  -1943363.40848  -3424538.95546  21601463.8544   21601471.3464
     -1788.9534
  -1191269.41442   -786770.09444  24858332.8614   24858344.5374
      2390.7194
   -177911.58644    -74197.06745  25826632.2294   25826644.0684
      1049.6724
   -164714.43042                  25522503.5414
      2127.9224
  -1836310.38046   -888557.13946  23604547.5804   23604557.4634
     -3669.0624
 01 10  2  0 54 15.0020000  0  9G 2G13G 8G28G27G 7G11G26G31
  -3522106.36946  -2652698.01846  22636556.9794   22636565.4434
       163.0004
   9278038.92745   8752016.59045  23917282.8224   23917293.0454
     -4611.9534
  -5913542.53948  -4508702.50947  20978888.0024   20978895.1074
      -555.5314
 -12587556.66646  -8163545.58546  21648181.7294   21648187.8224
      -298.6414
  -1916478.39748  -3403589.60146  21606579.8144   21606587.4474
     -1796.0944
  -1227110.76342   -814698.25144  24851510.7754   24851525.6744
      2387.7034
   -193632.43543    -86446.87945  25823638.5804   25823649.6114
      1046.0634
   -196597.26042                  25516436.6584
      2122.7344
  -1781208.29146   -845620.45746  23615033.5024   23615042.9044
     -3678.2664
 01 10  2  0 54 30.0020000  0  9G 2G13G 8G28G27G 7G11G26G31
  -3524521.90646  -2654580.22246  22636097.4864   22636106.1394
       158.9694
   9347244.84445   8805943.19345  23930452.1664   23930462.4944
     -4615.6414
  -5905170.21748  -4502178.61647  20980481.1974   20980488.2914
      -560.9064
 -12583034.95346  -8160022.13846  21649042.0724   21649048.3184
      -304.3754
  -1889496.04648  -3382564.39446  21611714.2524   21611721.8504
     -1801.6874
  -1262916.31142   -842598.56544  24844698.0574   24844708.4674
      2386.1884
   -209309.13243    -98662.29544  25820656.9394   25820667.6434
      1044.0164
   -228411.96642                  25510383.1044
      2119.0634
  -1725978.01046   -802583.89246  23625543.6504   23625553.1354
     -3685.8914
 01 10  2  0 54 45.0020000  0  9G 2G13G 8G28G27G 7G11G26G31
  -3526869.58846  -2656409.55046  22635650.7364   22635659.8574
       153.7664
   9416512.98045   8859918.28245  23943633.0104   23943642.3184
     -4620.4224
  -5896709.59348  -4495585.91947  20982091.1894   20982098.3654
      -567.4694
 -12578419.82046  -8156425.90246  21649920.4634   21649926.7214
      -311.2504
  -1862422.18548  -3361467.89046  21616866.2994   21616873.5684
     -1808.4534
  -1298691.63742   -870475.22445  24837888.8464   24837912.9474
      2383.4534
   -224947.07345   -110847.57544  25817682.8144   25817698.3114
      1040.7504
   -260164.20443                  25504340.8934
      2114.2504
  -1670625.89146   -759452.37346  23636076.0884   23636085.2444
     -3694.6724
 01 10  2  0 55  0.0020000  0  9G 2G13G 8G28G27G 7G11G26G31
  -3529142.80146  -2658180.86546  22635218.0334   22635226.8384
       149.3754
   9485849.67545   8913946.77345  23956827.5414   23956837.3894
     -4624.4224
  -5888153.75248  -4488919.02547  20983719.4164   20983726.4754
      -573.2504
 -12573704.67746  -8152751.72746  21650817.4864   21650823.6864
      -317.3754
  -1835250.04848  -3340294.79646  21622037.1044   21622044.7014
     -1814.4534
  -1334429.69942   -898322.75545  24831087.6974   24831104.3424
      2381.6094
   -240539.30943   -122997.48045  25814712.7524   25814725.9984
      1038.2814
   -291847.00342    -14805.38753  25498310.7054   25498320.7054
      2110.1724
  -1615145.56246   -716220.98446  23646634.2834   23646644.1434
     -3702.6564
 01 10  2  0 55 15.0020000  0  9G 2G13G 8G28G27G 7G11G26G31
  -3531344.28946  -2659896.27546  22634799.1194   22634807.9474
       144.5164
   9555252.02345   8968026.46345  23970034.5804   23970046.8654
     -4628.8594
  -5879505.30448  -4482179.96247  20985365.0494   20985372.2364
      -579.5004
 -12568892.21846  -8149001.73646  21651733.5414   21651739.4004
      -323.9374
  -1807982.20748  -3319047.13246  21627225.8854   21627233.4824
     -1820.9064
  -1370133.05243   -926143.52544  24824294.6354   24824309.8144
      2379.2034
   -256088.22343   -135113.29544  25811752.4794   25811767.2134
      1035.3134
   -323462.67741    -39440.83643  25492294.1114   25492303.2214
      2105.6094
  -1559540.02646   -672892.00946  23657215.4394   23657225.2754
     -3711.0624
 01 10  2  0 55 30.0020000  0  9G 2G13G 8G28G27G 7G11G26G31
  -3533474.28646  -2661555.97546  22634393.6434   22634402.0024
       139.8754
   9624719.45545   9022156.82945  23983253.3304   23983264.3854
     -4633.0474
  -5870764.28648  -4475368.76947  20987028.2364   20987035.4944
      -585.5624
 -12563982.62646  -8145176.04746  21652667.8384   21652673.9674
      -330.2814
  -1780618.81948  -3297725.01846  21632432.9474   21632440.3224
     -1827.1564
  -1405801.49442   -953936.99244  24817506.6974   24817522.2644
      2377.0004
   -271593.65343   -147195.26345  25808805.6744   25808824.7444
      1032.5004
   -355011.10642    -64024.13845  25486293.4394   25486302.3734
      2101.2504
  -1503809.79146   -629465.86046  23667820.7444   23667830.5924
     -3719.2344
 01 10  2  0 55 45.0020000  0  9G 2G13G 8G28G27G 7G11G26G31
  -3535534.28546  -2663161.13946  22634001.9004   22634010.9634
       134.5474
   9694250.14145   9076336.51245  23996484.9714   23996496.3654
     -4637.9534
  -5861932.09348  -4468486.53847  20988708.9554   20988716.1434
      -592.3124
 -12558977.56746  -8141275.97646  21653620.0964   21653626.3304
      -337.2974
  -1753161.21948  -3276329.49346  21637658.1744   21637665.7014
     -1834.1254
  -1441436.11743   -981704.07244  24810725.7834   24810733.6274
      2374.0314
   -287056.48044   -159244.10244  25805862.3854   25805876.4044
      1028.9694
   -386493.43542    -88555.78045  25480300.3934   25480314.8344
      2096.1564
  -1447956.49246   -585943.82946  23678449.4864   23678459.2754
     -3728.1094
 01 10  2  0 56  0.0020000  0  9G 2G13G 8G28G27G 7G11G26G31
  -3537521.83846  -2664709.85646  22633623.3854   22633631.8614
       130.1564
   9763846.36745   9130567.22945  24009729.1584   24009741.7714
     -4641.8594
  -5853006.04248  -4461531.16747  20990407.5494   20990414.7254
      -598.1414
 -12553874.54346  -8137299.56546  21654590.8614   21654597.1784
      -343.3914
  -1725606.82248  -3254858.53946  21642901.4864   21642908.9084
     -1840.1254
  -1477034.22742  -1009442.70444  24803951.5804   24803967.7914
      2372.0474
   -302474.02443   -171257.85943  25802925.8464   25802932.4434
      1026.3914
   -417906.95241   -113033.70743  25474320.7524   25474332.9324
      2092.0004
  -1391977.93846   -542324.19546  23689101.9864   23689112.0574
     -3736.0004
 01 10  2  0 56 15.0030000  0  9G 2G13G 8G28G27G 7G11G26G31
  -3539435.91246  -2666201.31046  22633259.4604   22633268.0544
       126.1094
   9833513.54645   9184853.26045  24022985.6554   24022998.2924
     -4645.4064
  -5843984.20648  -4454501.16147  20992124.2574   20992131.3044
      -603.6254
 -12548672.08946  -8133245.68046  21655581.2264   21655587.8474
      -349.1414
  -1697952.43248  -3233309.66746  21648164.1714   21648171.6874
     -1845.8124
  -1512596.71043  -1037153.49144  24797184.0544   24797202.1164
      2370.3754
   -317845.77843   -183235.64444  25800001.0384   25800010.9094
      1024.1094
   -449252.04242   -137458.52844  25468359.2264   25468368.6874
      2088.1724
  -1335869.73646   -498603.54146  23699778.3044   23699787.5654
     -3743.5314
 01 10  2  0 56 30.0030000  0  9G 2G13G 8G28G27G 7G11G26G31
  -3541283.36346  -2667640.84146  22632907.6014   22632916.8044
       120.8594
   9903235.12145   9239181.65545  24036254.1714   24036267.0194
     -4650.1724
  -5834874.76348  -4447402.88147  20993857.9134   20993865.0194
      -610.3444
 -12543378.05546  -8129120.43046  21656588.6874   21656594.4524
      -356.0944
  -1670208.73348  -3211691.20846  21653443.4524   21653450.7104
     -1852.7194
  -1548125.47343  -1064838.23944  24790423.1164   24790438.1674
      2367.4224
   -333176.31244   -195181.34845  25797086.1714   25797102.8744
      1020.5784
   -480531.23242   -161831.99644  25462405.1324   25462419.9604
      2083.0314
  -1279646.67646   -454793.37745  23710476.9604   23710485.7764
     -3752.2504
 01 10  2  0 56 45.0030000  0  9G 2G13G 8G28G27G 7G11G26G31
  -3543058.24446  -2669023.83646  22632569.6324   22632579.0934
       115.8754
   9973021.51745   9293560.60945  24049534.0074   24049545.2844
     -4654.6094
  -5825670.60948  -4440230.80947  20995609.2804   20995616.4334
      -616.7974
 -12537985.98946  -8124918.79146  21657614.6244   21657620.2614
      -362.7664
  -1642367.65348  -3189996.86146  21658741.3664   21658748.8124
     -1859.3594
  -1583616.55943  -1092493.39345  24783667.4524   24783685.8544
      2364.7814
   -348460.18043   -207090.72645  25794176.1084   25794189.3784
      1017.3134
   -511740.28642   -186150.69244  25456466.1164   25456477.1124
      2078.2034
  -1223299.17446   -410886.23846  23721200.9214   23721210.5584
     -3760.6724
 01 10  2  0 57  0.0030000  0  9G 2G13G 8G28G27G 7G11G26G31
  -3544764.42346  -2670353.29946  22632245.3904   22632254.4764
       111.2194
  10042868.68545   9347986.85145  24062825.0774   24062835.4994
     -4658.7344
  -5816375.53348  -4432987.88647  20997378.2494   20997385.3664
      -622.9374
 -12532499.69646  -8120643.73546  21658658.6084   21658664.4094
      -369.1254
  -1614432.86348  -3168229.49746  21664057.0154   21664064.3784
     -1865.6874
  -1619073.41443  -1120122.00845  24776920.1794   24776937.0584
      2362.4064
   -363700.83743   -218966.49245  25791273.8974   25791287.4954
      1014.3444
   -542882.70342   -210417.48345  25450540.6714   25450552.4764
      2073.7034
  -1166831.24946   -366885.28046  23731945.7804   23731955.6044
     -3768.7814
 01 10  2  0 57 15.0030000  0  9G 2G13G 8G28G27G 7G11G26G31
  -3546399.31546  -2671627.20246  22631934.0934   22631942.6514
       106.4384
  10112778.89745   9402462.26045  24076129.2964   24076140.2224
     -4662.9844
  -5806986.95048  -4425672.09547  20999164.6634   20999171.7104
      -629.2504
 -12526916.61746  -8116293.25646  21659720.9834   21659727.4764
      -375.6254
  -1586401.67048  -3146387.01946  21669391.3584   21669398.9094
     -1872.1414
  -1654493.12443  -1147721.61145  24770181.0774   24770201.2024
      2359.9064
   -378895.42443   -230806.32245  25788383.9054   25788395.5114
      1011.2194
   -573955.50841   -234630.03944  25444625.8584   25444634.7454
      2068.9844
  -1110240.72146   -322788.76346  23742714.3514   23742723.4604
     -3776.9694
 01 10  2  0 57 30.0030000  0  9G 2G13G 8G28G27G 7G11G26G31
  -3547962.44946  -2672845.20246  22631636.6554   22631645.4254
       102.0634
  10182752.48945   9456987.04445  24089443.9834   24089455.8004
     -4666.7664
  -5797503.95248  -4418282.73547  21000969.1874   21000976.5384
      -635.1094
 -12521236.37346  -8111867.06946  21660802.0154   21660807.8274
      -381.6724
  -1558273.45148  -3124468.93046  21674743.8274   21674751.1674
     -1878.2034
  -1689874.82243  -1175291.58545  24763449.1084   24763465.0504
      2357.7504
   -394042.85244   -242609.39645  25785503.6874   25785513.7804
      1008.5004
    -10325.81851   -258787.60644  25438728.0384   25438735.5894
      2064.7034
  -1053527.45446   -278596.61345  23753506.5854   23753515.5304
     -3784.7194
 01 10  2  0 57 45.0030000  0  9G 2G13G 8G28G27G 7G11G26G31
  -3549457.69746  -2674010.29346  22631351.6794   22631360.5304
        97.3594
  10252785.20945   9511557.94745  24102770.8514   24102778.9874
     -4670.8754
  -5787930.36948  -4410822.79747  21002790.9834   21002798.1714
      -641.3284
 -12515462.85346  -8107368.20146  21661900.6554   21661906.4214
      -388.0784
  -1530051.97248  -3102478.17546  21680114.3434   21680121.5774
     -1884.6094
  -1725222.05143  -1202834.77344  24756721.9444   24756745.5544
      2355.2194
   -409146.64943   -254378.47345  25782626.7884   25782645.7534
      1005.4064
    -41261.18541   -282893.09443  25432840.2024   25432847.2614
      2060.0784
   -996695.53946   -234312.01746  23764321.8664   23764331.2334
     -3792.8124
 01 10  2  0 58  0.0030000  0  9G 2G13G 8G28G27G 7G11G26G31
  -3550887.37646  -2675124.30146  22631079.6554   22631088.9644
        92.9224
  10322874.61545   9566172.93345  24116108.6554   24116119.7454
     -4674.7194
  -5778268.23948  -4403293.84947  21004629.6244   21004636.7884
      -647.3284
 -12509598.38846  -8102798.45846  21663016.4914   21663022.6444
      -394.2034
  -1501739.34248  -3080416.39346  21685502.0624   21685509.5894
     -1890.7664
  -1760536.77043  -1230352.53345  24750002.0694   24750020.4014
      2353.0164
   -424208.69843                  25779759.5384
      1002.5314
    -72131.47043   -306947.83044  25426968.1404   25426976.6284
      2055.6094
   -939747.49446   -189936.93945  23775157.2884   23775167.7224
     -3800.6094
 01 10  2  0 58 15.0030000  0  9G 2G13G 8G28G27G 7G11G26G31
  -3552248.69946  -2676185.03146  22630821.0854   22630830.1244
        88.6884
  10393023.12545   9620834.04845  24129457.5464   24129467.5694
     -4678.3124
  -5768514.67148  -4395693.65447  21006485.6554   21006492.7494
      -653.0624
 -12503640.16546  -8098155.66046  21664150.2264   21664156.4724
      -400.1254
  -1473332.67148  -3058281.32646  21690907.5774   21690915.0934
     -1896.7034
  -1795815.82643  -1257842.63145  24743288.1634   24743304.1404
      2350.9224
   -439225.94743                  25776903.5934
       999.8594
   -102933.55641   -330949.45944  25421103.8974   25421116.7694
      2051.4224
   -882680.87346   -145469.43446  23786017.8904   23786027.3514
     -3808.1724
 01 10  2  0 58 30.0030000  0  9G 2G13G 8G28G27G 7G11G26G31
  -3553540.64646  -2677191.71846  22630574.7104   22630583.3514
        83.9534
  10463231.52745   9675541.79945  24142819.1554   24142828.7104
     -4682.4224
  -5758668.46548  -4388021.28047  21008359.5154   21008366.5734
      -659.3594
 -12497587.21146  -8093439.04646  21665302.3824   21665308.4764
      -406.5314
  -1444830.81548  -3036072.09646  21696331.4374   21696338.8824
     -1903.1564
  -1831058.01643  -1285303.86244  24736581.9604   24736602.5694
      2348.3754
   -454196.82244                  25774055.6014
       996.6564
   -133666.07442                  25415257.4994
      2046.6254
   -825494.94246   -100908.97646  23796900.0464   23796908.6514
     -3816.2194
 01 10  2  0 58 45.0030000  0  9G 2G13G 8G28G27G 7G11G26G31
  -3554763.81746  -2678144.79446  22630342.4994   22630351.6444
        79.3754
  10533498.77545   9730295.41645  24156189.3044   24156202.1404
     -4686.3284
  -5748729.95748  -4380276.98047  21010250.7804   21010258.0734
      -665.5164
 -12491440.23846  -8088649.18146  21666471.5694   21666477.9334
      -412.8124
  -1416234.23148  -3013789.04946  21701773.2654   21701780.6514
     -1909.4844
  -1866263.38943  -1312736.50545  24729882.2884   24729895.3124
      2345.9384
   -469121.63243                  25771213.9524
       993.5634
   -164329.24342                  25409421.3044
      2042.0314
   -768190.63946    -56256.28145  23807804.4834   23807813.8274
     -3824.1094
 01 10  2  0 59  0.0030000  0  9G 2G13G 8G28G27G 7G11G26G31
  -3555920.12846  -2679045.78846  22630121.9444   22630130.7494
        74.7814
  10603822.93345   9785093.38345  24169571.2884   24169581.4404
     -4690.2664
  -5738700.91848  -4372462.13747  21012159.1244   21012166.1474
      -671.7034
 -12485201.02746  -8083787.43946  21667659.0154   21667665.3664
      -419.1094
  -1387544.63748  -2991433.52446  21707232.7964   21707240.2294
     -1915.8284
  -1901433.61543  -1340141.71144  24723191.2884   24723205.9294
      2343.4064
   -484001.73343                  25768383.8744
       990.4224
   -194924.56541                  25403600.7804
      2037.3134
   -710770.10146    -11513.00445  23818730.6324   23818740.7264
     -3832.0004
 01 10  2  0 59 15.0030000  0  9G 2G13G 8G28G27G 7G11G26G31
  -3557016.88746  -2679900.36846  22629912.9214   22629921.3514
        70.9224
  10674196.56645   9839929.84145  24182963.5384   24182972.9524
     -4693.4064
  -5728588.46848  -4364582.29347  21014083.4684   21014090.5384
      -677.1564
 -12478876.86346  -8078859.49846  21668862.4604   21668868.5774
      -424.6564
  -1358769.20548  -2969011.11646  21712708.3354   21712715.7574
     -1921.4374
  -1936575.52943  -1367524.79644  24716502.5774   24716518.5304
      2341.6414
   -498844.09843     -1539.82953  25765559.3274   25765572.8194
       988.0164
   -225459.06441                  25397790.8584
      2033.3914
   -653240.88946     33314.94045  23829678.9684   23829688.7574
     -3839.0944
 01 10  2  0 59 30.0030000  0  9G 2G13G 8G28G27G 7G11G26G31
  -3558039.13446  -2680696.89046  22629718.5544   22629727.4174
        65.8594
  10744634.23945   9894816.27045  24196366.7804   24196379.8394
     -4697.7974
  -5718377.40948  -4356625.61547  21016026.5544   21016033.7064
      -683.8444
 -12472452.96346  -8073853.84046  21670084.7574   21670091.1324
      -431.4064
  -1329892.89548  -2946510.09946  21718203.3904   21718210.6834
     -1928.2814
  -1971673.94543  -1394874.09345  24709822.6404   24709840.3744
      2338.5634
   -513633.47944    -13064.03145  25762744.1474   25762757.1014
       984.3594
   -255917.25643                  25391994.0224
      2028.1884
   -595588.35046     78239.02145  23840650.3744   23840660.1514
     -3847.4224
 01 10  2  0 59 45.0030000  0  9G 2G13G 8G28G27G 7G11G26G31
  -3558994.90646  -2681441.61146  22629536.5694   22629545.0814
        60.9534
  10815127.65645   9949746.13545  24209782.0304   24209793.5074
     -4701.9844
  -5708075.73748  -4348598.32747  21017986.6474   21017993.7294
      -690.3594
 -12465937.33246  -8068776.70946  21671325.0544   21671331.3944
      -437.9844
  -1300923.55648  -2923936.59046  21723715.9994   21723723.3274
     -1934.9534
  -2006736.51343  -1422195.36445  24703149.8974   24703165.4644
      2335.7504
   -528377.52444    -24552.85445  25759939.0384   25759949.6014
       980.8284
   -286306.82042                  25386211.2574
      2023.1094
   -537820.82846    123252.64445  23851642.1794   23851651.8624
     -3855.5624
 01 10  2  1  0  0.0030000  0  9G 2G13G 8G28G27G 7G11G26G31
  -3559874.07746  -2682126.63446  22629369.0224   22629377.7804
        56.2344
  10885686.69845  10004727.12545  24223208.6944   24223219.7494
     -4705.9224
  -5697672.93448  -4340492.23647  21019966.3904   21019973.4014
      -696.7194
 -12459319.86546  -8063620.22846  21672584.1164   21672590.2104
      -444.3754
  -1271850.86848  -2901282.55746  21729248.5074   21729256.0464
     -1941.4374
  -2041752.76243  -1449480.52044  24696486.9604   24696498.2264
      2333.0634
   -543065.55243    -35997.83145  25757141.8584   25757156.8394
       977.5164
    -10093.33551                  25380440.6634
      2018.2664
   -479928.51146    168363.54045  23862659.6474   23862669.5194
     -3863.4534
 01 10  2  1  0 15.0030000  0  9G 2G13G 8G28G27G 7G11G26G31
  -3560684.67246  -2682758.23046  22629215.1244   22629223.5654
        51.7664
  10956303.12845  10059752.78645  24236646.3744   24236660.0894
     -4709.6724
  -5687176.90548  -4332313.50147  21021963.6324   21021970.6084
      -702.8594
 -12452608.52346  -8058390.58846  21673860.9834   21673867.3354
      -450.5624
  -1242682.72848  -2878554.13746  21734799.1014   21734806.4054
     -1947.7344
  -2076730.26543  -1476735.59045  24689830.4374   24689848.6284
      2330.5164
   -557705.18343    -47405.32745  25754355.8124   25754371.8944
       974.3914
     -4025.52552                  25374689.3584
      2013.5634
   -421919.58846    213565.30546  23873698.0774   23873707.8904
     -3871.1414
 01 10  2  1  0 30.0030000  0  9G 2G13G 8G28G27G 7G11G26G31
  -3561426.50246  -2683336.23946  22629073.8434   22629082.7294
        47.2504
  11026976.72745  10114823.06245  24250095.9294   24250106.8194
     -4713.3754
  -5676587.31448  -4324061.85947  21023978.9214   21023986.0504
      -709.0004
 -12445803.13646  -8053087.67546  21675156.0384   21675162.4954
      -456.7344
  -1213418.73448  -2855751.03246  21740367.7574   21740375.1204
     -1954.0474
  -2111668.49243  -1503960.01345  24683182.3434   24683196.3154
      2328.0004
   -572295.67944    -58774.31945  25751580.7334   25751592.3744
       971.1564
    -34192.55342                  25368946.1944
      2008.7814
   -363794.19046    258857.81845  23884757.9684   23884767.9094
     -3878.8284
 01 10  2  1  0 45.0030000  0  9G 2G13G 8G28G27G 7G11G26G31
  -3562103.92146  -2683864.06446  22628945.3044   22628954.6014
        43.2194
  11097702.95845  10169934.33445  24263555.3124   24263567.8544
     -4716.6414
  -5665908.27748  -4315740.52247  21026010.9764   21026018.0814
      -714.7194
 -12438908.22446  -8047715.00346  21676468.2334   21676474.6674
      -462.4534
  -1184063.16448  -2832876.56646  21745953.9294   21745961.1984
     -1959.9064
  -2146571.53543  -1531156.99245  24676540.0464   24676556.5034
      2325.9064
   -586841.15843    -70108.38644  25748812.0464   25748824.2494
       968.3914
    -64291.53442                  25363220.0694
      2004.5314
   -305556.94046    304237.48645  23895841.3664   23895851.2144
     -3886.0004
 01 10  2  1  1  0.0030000  0  9G 2G13G 8G28G27G 7G11G26G31
  -3562712.73346  -2684338.42146  22628829.0224   22628837.4994
        38.2814
  11168485.82845  10225089.66845  24277024.2964   24277033.8974
     -4720.7664
  -5655135.49048  -4307346.12747  21028060.9764   21028067.9764
      -721.3444
 -12431919.50146  -8042269.23246  21677798.1324   21677804.2494
      -469.0624
  -1154611.76548  -2809927.42946  21751558.2654   21751565.6404
     -1966.6414
  -2181434.81843  -1558323.05745  24669906.1084   24669922.2264
      2322.8594
   -601337.13243    -81403.65044  25746054.9524   25746070.8234
       964.7034
    -94317.97641                  25357506.3974
      1999.3754
   -247204.08346    349707.25745  23906944.5154   23906954.7614
     -3894.0624
 01 10  2  1  1 15.0030000  0  9G 2G13G 8G28G27G 7G11G26G31
  -3563253.64846  -2684759.87046  22628726.0624   22628734.8084
        33.7814
  11239324.24745  10280288.34645  24290503.5694   24290514.9644
     -4724.4374
  -5644269.49948  -4298879.11547  21030128.9294   21030136.0224
      -727.5314
 -12424837.76046  -8036750.98046  21679145.9054   21679152.0224
      -475.2504
  -1125065.08148  -2786904.04746  21757180.7184   21757188.1044
     -1972.9844
  -2216258.80243  -1585458.43544  24663278.5304   24663288.7184
      2320.2194
   -615783.70744    -92660.75145  25743305.1794   25743318.0034
       961.4384
   -124272.31842                  25351807.3044
      1994.5004
   -188736.49446    395266.39745  23918071.3044   23918082.1244
     -3901.6874
 01 10  2  1  1 30.0030000  0  9G 2G13G 8G28G27G 7G11G26G31
  -3563725.88646  -2685127.82246  22628635.8354   22628644.3124
        29.1094
  11310218.89045  10335530.83845  24303995.8044   24304008.4644
     -4728.2814
  -5633309.36148  -4290338.73547  21032214.5154   21032221.5154
      -733.9374
 -12417662.20146  -8031159.62146  21680511.2724   21680517.7064
      -481.5784
  -1095422.16048  -2763805.67546  21762821.7024   21762829.1944
     -1979.4844
  -2251042.23443  -1612562.22045  24656659.6244   24656673.7374
      2317.4534
   -630179.77544   -103878.40745  25740566.7964   25740577.1594
       957.9534
   -154153.11943     -4650.98854  25346121.4444   25346136.2024
      1989.5314
   -130153.67446    440915.33545  23929218.9524   23929228.6944
     -3909.4374
 01 10  2  1  1 45.0030000  0  9G 2G13G 8G28G27G 7G11G26G31
  -3564128.57246  -2685441.54446  22628559.6714   22628568.1364
        24.5944
  11381170.28045  10390817.57345  24317497.3124   24317509.0344
     -4731.9064
  -5622253.68748  -4281723.91247  21034318.2024   21034325.2374
      -740.1724
 -12410391.91646  -8025494.45246  21681894.4834   21681900.5774
      -487.7814
  -1065681.96148  -2740631.49846  21768481.1404   21768488.6444
     -1985.8754
  -2285783.86643  -1639633.50245  24650048.6324   24650065.7334
      2314.8134
   -644524.19843   -115055.71944  25737834.2264   25737846.3004
       954.6254
   -183959.21542    -27876.42343  25340446.3124   25340451.5384
      1984.6724
    -71454.95646    486654.58445  23940389.2104   23940399.3274
     -3917.0314
 01 10  2  1  2  0.0030000  0  9G 2G13G 8G28G27G 7G11G26G31
  -3564466.17346  -2685704.57046  22628495.5464   22628504.4334
        20.4534
  11452173.69645  10446144.80345  24331008.5074   24331021.4254
     -4735.1724
  -5611107.01248  -4273038.17847  21036439.3434   21036446.5654
      -746.0164
 -12403031.41146  -8019758.97946  21683295.2574   21683300.9764
      -493.5784
  -1035848.81148  -2717384.89546  21774158.3124   21774165.8274
     -1991.8444
  -2320487.85843  -1666675.30544  24643445.4054   24643461.7104
      2312.4534
   -658820.85144   -126195.87145  25735114.3824   25735126.9014
       951.6414
   -213694.78242    -51047.11744  25334789.9684   25334797.2964
      1980.1254
    -12645.14346    532480.38945  23951580.3904   23951590.8704
     -3924.2344
 01 10  2  1  2 15.0030000  0  9G 2G13G 8G28G27G 7G11G26G31
  -3564735.92046  -2685914.72046  22628443.7184   22628451.9954
        15.9224
  11523231.67645  10501514.58745  24344530.0464   24344540.6324
     -4738.8124
  -5599866.43248  -4264279.27347  21038578.2574   21038585.2334
      -752.3284
 -12395578.04846  -8013951.15346  21684713.7104   21684719.5934
      -499.7974
  -1005919.80448  -2694063.59246  21779853.3044   21779860.6554
     -1998.2814
  -2355151.12243  -1693685.33444  24636848.4444   24636866.7884
      2309.7034
   -673066.61944   -137296.41245  25732405.2724   25732417.9334
       948.2034
   -243356.70841    -74160.33843  25329144.9294   25329154.5194
      1975.1884
     46278.20846    578394.70245  23962792.9684   23962803.4604
     -3931.8124
 01 10  2  1  2 30.0030000  0  9G 2G13G 8G28G27G 7G11G26G31
  -3564938.70146  -2686072.69346  22628405.2574   22628413.7804
        11.4534
  11594343.11045  10556925.95745  24358062.4604   24358071.2884
     -4742.3914
  -5588532.54148  -4255447.66047  21040735.1404   21040742.2694
      -758.5314
 -12388032.65146  -8008071.60946  21686149.2414   21686155.1944
      -505.9224
   -975895.63348  -2670668.14046  21785566.9684   21785574.3544
     -2004.6094
  -2389774.14343  -1720664.25544  24630258.5544   24630275.6204
      2307.0314
   -687262.03343   -148357.58445  25729701.8194   25729715.0194
       944.8444
   -272945.27743                  25323514.1794
      1970.3134
    105313.93446    624396.57345  23974026.9914   23974037.0384
     -3939.2974
 01 10  2  1  2 45.0030000  0  9G 2G13G 8G28G27G 7G11G26G31
  -3565080.39746  -2686183.06646  22628378.7654   22628387.7104
         6.9534
  11665501.81345  10612374.24045  24371603.3274   24371616.0464
     -4745.9374
  -5577111.10248  -4246547.82447  21042908.5854   21042915.7264
      -764.8284
 -12380401.10646  -8002124.92846  21687601.6794   21687607.9254
      -512.0944
   -945782.09048  -2647203.04746  21791297.3744   21791304.8784
     -2011.0164
  -2424362.49843  -1747616.01644  24623677.1404   24623688.7924
      2304.2814
   -701412.41143   -159383.71044  25727006.1794   25727022.7654
       941.3914
   -302466.19243                  25317897.7184
      1965.2974
    164455.93746    670481.22745  23985281.5694   23985291.4054
     -3946.7974
 01 10  2  1  3  0.0030000  0  9G 2G13G 8G28G27G 7G11G26G31
  -3565154.19346  -2686240.52246  22628364.4374   22628373.4524
         2.8284
  11736714.42845  10667864.47445  24385155.2414   24385166.6834
     -4749.1414
  -5565594.93348  -4237574.17747  21045099.9604   21045106.8904
      -770.7344
 -12372676.59846  -7996105.82346  21689071.7654   21689078.2104
      -517.8914
   -915572.18348  -2623662.86546  21797046.1874   21797053.7264
     -2017.0314
  -2458908.93043  -1774535.12045  24617103.2724   24617123.6904
      2301.8594
   -715510.58544   -170369.28344  25724328.1084   25724339.8314
       938.2814
   -331912.14642                  25312293.3904
      1960.7344
    223710.71446    716653.79745  23996556.8824   23996567.0344
     -3953.9064
 01 10  2  1  3 15.0030000  0  9G 2G13G 8G28G27G 7G11G26G31
  -3565156.99546  -2686242.65746  22628363.6634   22628372.2454
        -2.4064
  11807983.73444  10723398.91545  24398716.8584   24398727.6444
     -4753.3914
  -5553980.96148  -4228524.31747  21047310.1474   21047317.3004
      -777.7664
 -12364856.11046  -7990011.91846  21690559.7964   21690565.7374
      -524.7974
   -885262.74248  -2600045.12146  21802813.9214   21802821.1794
     -2024.1874
  -2493410.01043  -1801418.89544  24610536.7574   24610549.3354
      2298.3284
   -729553.06244   -181311.26045  25721655.6944   25721667.5464
       934.0634
   -361279.80642                  25306705.3974
      1954.9844
    283081.02846    762916.36645  24007856.2414   24007866.5694
     -3962.0944
 01 10  2  1  3 30.0030000  0  9G 2G13G 8G28G27G 7G11G26G31
  -3565094.42446  -2686193.86346  22628376.1084   22628384.5504
        -6.2034
  11879303.88745  10778972.94145  24412288.8354   24412299.7264
     -4756.2344
  -5542274.42848  -4219402.33347  21049537.8824   21049544.8944
      -783.3754
 -12356945.30646  -7983847.64046  21692065.3744   21692071.7144
      -530.2504
   -854859.22648  -2576354.07446  21808599.2334   21808606.4794
     -2029.8914
  -2527871.06443  -1828271.50145  24603978.9604   24603990.9764
      2296.2504
   -743544.98743   -192213.96445  25718991.7804   25719006.0464
       931.2504
   -390574.24143                  25301131.4764
      1950.6564
    342561.02746    809264.44845  24019172.8664   24019182.7964
     -3968.8444
 01 10  2  1  3 45.0030000  0  9G 2G13G 8G28G27G 7G11G26G31
  -3564965.30646  -2686093.20846  22628400.4294   22628409.2224
       -10.9064
  11950675.80845  10834587.31245  24425870.7264   24425882.4374
     -4759.9224
  -5530474.25148  -4210207.38047  21051783.0854   21051790.0624
      -789.9064
 -12348943.08046  -7977612.11946  21693587.6554   21693593.6904
      -536.6094
   -824360.37348  -2552588.74546  21814403.0774   21814410.4644
     -2036.5314
  -2562290.55843  -1855091.62645  24597429.4214   24597444.6944
      2293.1724
   -757484.93744   -203076.10245  25716339.5304   25716355.2724
       927.5004
   -419793.99343    -10616.81754  25295570.8904   25295588.2844
      1945.3754
    402151.50946    855698.59145  24030512.5544   24030520.9134
     -3976.4694
 01 10  2  1  4  0.0030000  0  9G 2G13G 8G28G27G 7G11G26G31
  -3564770.67946  -2685941.50346  22628437.8824   22628446.1944
       -15.2664
  12022098.17944  10890241.05245  24439461.0304   24439470.7844
     -4763.2814
  -5518580.94348  -4200939.86047  21054046.3824   21054053.5694
      -796.0944
 -12340850.30446  -7971306.05646  21695127.9764   21695133.8584
      -542.6414
   -793766.96848  -2528749.72946  21820224.9524   21820232.2694
     -2042.8284
  -2596669.12043  -1881879.89243  24590885.6634   24590901.9564
      2290.4384
   -771373.41845   -213898.24245  25713697.4374   25713710.5074
       924.0634
   -448939.71742    -33327.65942  25290022.3584   25290026.9764
      1940.4534
    461851.23946    902217.85745  24041873.3194   24041882.7804
     -3983.7194
 01 10  2  1  4 15.0030000  0  9G 2G13G 8G28G27G 7G11G26G31
  -3564505.71246  -2685734.99246  22628488.1244   22628496.6594
       -19.8444
  12093575.66145  10945937.65745  24453063.9604   24453075.5544
     -4766.8284
  -5506589.68548  -4191596.00747  21056328.2494   21056335.2964
      -802.5164
 -12332662.23746  -7964925.72446  21696686.0544   21696692.2534
      -548.8754
   -763074.08548  -2504833.20046  21826065.4764   21826072.9914
     -2049.3444
  -2631001.51943  -1908632.21945  24584354.0694   24584370.3044
      2287.4534
   -785205.16644   -224676.14345  25711064.3904   25711078.8434
       920.3754
   -478006.15743                  25284492.9134
      1935.2814
    521664.68546    948825.76145  24053255.9684   24053265.6514
     -3991.1874
 01 10  2  1  4 30.0030000  0  9G 2G13G 8G28G27G 7G11G26G31
  -3564176.66846  -2685478.55446  22628550.7184   22628559.0074
       -24.0784
  12165101.60245  11001672.10445  24466674.1874   24466685.2764
     -4770.0164
  -5494506.59748  -4182180.60947  21058627.6164   21058634.6514
      -808.6254
 -12324385.20846  -7958476.07646  21698260.7414   21698267.1754
      -554.7664
   -732287.88448  -2480843.95946  21831923.9914   21831931.3084
     -2055.5314
  -2665293.80443  -1935353.32745  24577827.2884   24577842.9374
      2284.7974
   -798986.06544   -235414.32145  25708440.4994   25708453.5814
       917.0314
   -506999.22042                  25278975.0304
      1930.4384
    581585.33246    995517.17745  24064658.3514   24064668.2224
     -3998.2814
 01 10  2  1  4 45.0030000  0  9G 2G13G 8G28G27G 7G11G26G31
  -3563782.08446  -2685171.04146  22628625.5544   22628633.6204
       -28.6874
  12236677.17445  11057445.16845  24480295.0154   24480305.5544
     -4773.5474
  -5482329.75848  -4172692.14947  21060944.7264   21060951.7264
      -815.1094
 -12316017.77446  -7951955.98046  21699853.1474   21699859.3824
      -561.0474
   -701406.78948  -2456780.76746  21837800.2414   21837807.7104
     -2062.1094
  -2699544.16843  -1962041.72644  24571310.4604   24571328.5464
      2281.7974
   -812714.22045   -246111.45445  25705831.0774   25705837.0894
       913.2664
   -535917.06243                  25273473.1554
      1925.1414
    641614.39246   1042293.09845  24076081.4994   24076090.8194
     -4005.7504
 01 10  2  1  5  0.0030000  0  9G 2G13G 8G28G27G 7G11G26G31
  -3563318.63046  -2684809.86546  22628713.8044   22628722.2694
       -33.2664
  12308305.56545  11113259.36645  24493925.5464   24493937.1984
     -4777.0624
  -5470055.86248  -4163128.06347  21063280.3904   21063287.5194
      -821.5944
 -12307556.48346  -7945362.76146  21701463.0694   21701468.8704
      -567.2974
   -670427.27048  -2432640.88246  21843695.4294   21843702.8624
     -2068.6564
  -2733748.88943  -1988694.62045  24564801.2264   24564816.8514
      2278.7194
   -826385.85045   -256764.63345  25703228.7184   25703235.4794
       909.4694
   -564755.97243                  25267985.0224
      1919.9064
    701754.99046   1089155.90145  24087526.0854   24087535.1244
     -4013.1564
 01 10  2  1  5 15.0030000  0  9G 2G13G 8G28G27G 7G11G26G31
  -3562787.15346  -2684395.68946  22628814.5464   22628822.8354
       -37.2034
  12379985.70145  11169113.89145  24507565.6474   24507574.9094
     -4779.9064
  -5457685.61148  -4153488.89747  21065634.4054   21065641.4644
      -827.3914
 -12299002.35746  -7938697.19446  21703091.1244   21703097.0654
      -572.8754
   -639350.07848  -2408424.89146  21849609.5074   21849617.0224
     -2074.5784
  -2767908.36543  -2015311.96045  24558300.5544   24558314.6794
      2276.3444
   -840001.63843   -267374.26745  25700635.0694   25700648.5384
       906.3284
   -593516.50443                  25262511.9834
      1915.2194
    762005.94746   1136104.70945  24098990.3434   24098999.5934
     -4019.9064
 01 10  2  1  5 30.0030000  0  9G 2G13G 8G28G27G 7G11G26G31
  -3562197.24046  -2683935.96446  22628926.7494   22628934.3944
       -41.4844
  12451707.77745  11225001.18045  24521215.6794   24521225.9834
     -4783.0624
  -5445228.12448  -4143781.75247  21068004.8974   21068012.2024
      -833.6094
 -12290364.97946  -7931966.75246  21704734.5934   21704740.3704
      -578.8124
   -608184.57548  -2384140.08546  21855539.9444   21855547.3904
     -2080.8594
  -2802031.84443  -2041901.68745  24551806.8514   24551818.7374
      2273.5164
   -853570.45145   -277947.16445  25698055.6014   25698067.2764
       902.8134
   -622207.61443                  25257053.5544
      1910.2194
    822357.42246   1183131.86945  24110475.4604   24110484.7334
     -4026.9694
 01 10  2  1  5 45.0030000  0  9G 2G13G 8G28G27G 7G11G26G31
  -3561546.00546  -2683428.47246  22629050.2654   22629058.6014
       -45.7034
  12523474.47044  11280923.18245  24534871.3664   24534885.1284
     -4786.1874
  -5432680.54748  -4134004.40947  21070392.5854   21070399.6204
      -839.7504
 -12281641.39846  -7925169.14246  21706394.7574   21706401.0734
      -584.6874
   -576927.76048  -2359784.12646  21861488.0074   21861495.4874
     -2087.0784
  -2836116.13443  -2068460.68145  24545319.5154   24545334.4254
      2270.7504
   -867089.11645   -288481.13745  25695483.2414   25695494.2964
       899.3284
   -650826.22143                  25251606.3194
      1905.2194
    882812.02746   1230239.35945  24121979.7184   24121988.8864
     -4033.9694
 01 10  2  1  6  0.0030000  0  9G 2G13G 8G28G27G 7G11G26G31
  -3560828.61146  -2682869.42146  22629187.2264   22629195.2454
       -50.3124
  12595290.19244  11336883.34945  24548537.2264   24548551.6554
     -4789.6254
  -5420037.92148  -4124153.00147  21072798.4134   21072805.3544
      -846.2974
 -12272826.92146  -7918300.69746  21708072.2024   21708078.3784
      -590.9374
   -545574.69148  -2335353.15846  21867454.4524   21867461.8514
     -2093.6874
  -2870156.10043  -2094985.08645  24538843.4764   24538862.3004
      2267.5784
   -880552.51644   -298971.94245  25692919.4914   25692930.2654
       895.4384
   -679367.11543                  25246174.9214
      1899.8284
    943374.23146   1277430.70145  24133505.3514   24133515.1984
     -4041.3284
 01 10  2  1  6 15.0030000  0  9G 2G13G 8G28G27G 7G11G26G31
  -3560046.28846  -2682259.76946  22629335.9604   22629344.5424
       -54.2194
  12667153.52045  11392880.64345  24562212.5544   24562226.0814
     -4792.3754
  -5407301.02748  -4114228.13847  21075222.1944   21075229.2534
      -852.1414
 -12263922.81946  -7911362.41946  21709766.3974   21709772.4334
      -596.4844
   -514126.41748  -2310848.01746  21873438.5304   21873445.8234
     -2099.6254
  -2904152.48643  -2121475.55445  24532374.8194   24532388.9094
      2265.0784
   -893961.33044   -309420.27945  25690368.4134   25690376.7964
       892.1884
   -707831.14343    -16258.16354  25240757.2964   25240773.2144
      1895.1254
   1004042.49746   1324704.71245  24145048.5384   24145057.5894
     -4047.9694
 01 10  2  1  6 30.0030000  0  9G 2G13G 8G28G27G 7G11G26G31
  -3559198.43646  -2681599.06846  22629497.3354   22629505.0734
       -58.8124
  12739064.78945  11448915.27045  24575896.8744   24575910.2494
     -4795.7664
  -5394469.30848  -4104229.38047  21077663.9054   21077670.8704
      -858.7194
 -12254928.39246  -7904353.76246  21711478.0304   21711484.3704
      -602.7504
   -482582.22848  -2286268.12946  21879441.2024   21879448.8824
     -2106.2664
  -2938104.45343  -2147931.44745  24525913.0774   24525932.8154
      2261.8284
   -907314.40445   -319825.18345  25687826.5544   25687839.2844
       888.2194
   -736217.28843    -38377.19945  25235357.3974   25235365.2764
      1889.6884
   1064817.13846   1372061.57345  24156614.1944   24156623.4564
     -4055.2974
 01 10  2  1  6 45.0030000  0  9G 2G13G 8G28G27G 7G11G26G31
  -3558285.37046  -2680887.55246  22629671.5304   22629680.1364
       -63.0624
  12811023.38245  11504986.82045  24589589.9764   24589601.9334
     -4798.8594
  -5381542.84848  -4094156.80447  21080123.7724   21080130.9014
      -864.9534
 -12245843.97646  -7897274.98546  21713206.7964   21713212.9604
      -608.6414
   -450942.31048  -2261613.65146  21885462.1474   21885469.7694
     -2112.5314
  -2972011.85643  -2174352.59945  24519460.1404   24519474.4404
      2259.0004
   -920611.87644   -330186.76345  25685296.8354   25685307.1164
       884.6254
   -764525.44443    -60435.43644  25229970.4214   25229983.5034
      1884.5944
   1125697.57746   1419500.91845  24168198.8904   24168210.1554
     -4062.2344
 01 10  2  1  7  0.0030000  0  9G 2G13G 8G28G27G 7G11G26G31
  -3557312.03346  -2680129.07146  22629856.4604   22629864.9484
       -66.7504
  12883024.16944  11561091.24345  24603290.5304   24603302.1124
     -4801.2974
  -5368526.37548  -4084014.08147  21082600.7184   21082607.8474
      -870.6094
 -12236674.61246  -7890130.00746  21714951.4914   21714957.4914
      -613.9694
   -419211.42548  -2236888.28746  21891500.3974   21891507.8544
     -2118.2814
  -3005879.36843  -2200742.67145  24513015.0934   24513030.2614
      2256.6414
   -933858.25043   -340508.49845  25682774.5384   25682784.0114
       881.5004
   -792760.21143    -82436.55544  25224596.5854   25224604.8154
      1880.0164
   1186678.66646   1467018.65345  24179804.5854   24179814.4794
     -4068.6094
 01 10  2  1  7 15.0030000  0  9G 2G13G 8G28G27G 7G11G26G31
  -3556275.13946  -2679321.05546  22630053.7104   22630062.1874
       -71.2034
  12955070.11844  11617230.83245  24617001.3664   24617011.8004
     -4804.5314
  -5355416.29748  -4073798.42647  21085095.3744   21085102.4094
      -877.0784
 -12227417.04046  -7882916.30146  21716712.9834   21716719.4404
      -620.0784
   -387386.11648  -2212089.34146  21897556.3354   21897563.9444
     -2124.8124
  -3039703.22843  -2227098.71945  24506579.6324   24506596.7224
      2253.5004
   -947049.64145   -350787.27545  25680266.5224   25680274.3784
       877.6094
   -820917.89843   -104377.61244  25219236.7654   25219240.0224
      1874.6414
   1247763.40346   1514617.17545  24191428.2804   24191438.0344
     -4075.7194
 01 10  2  1  7 30.0030000  0  9G 2G13G 8G28G27G 7G11G26G31
  -3555179.67646  -2678467.41046  22630262.1014   22630270.0264
       -75.1254
  13027156.12545  11673401.64545  24630719.1794   24630730.8544
     -4807.2034
  -5342217.58148  -4063513.69347  21087607.0304   21087614.0654
      -883.0314
 -12218076.23646  -7875637.73746  21718491.0154   21718497.1324
      -625.6414
   -355471.29448  -2187220.64746  21903629.7964   21903637.2534
     -2130.7814
  -3073488.19443  -2253424.48745  24500150.6404   24500163.8274
      2250.8754
   -960190.74345   -361027.06145  25677767.2334   25677779.6834
       874.2664
   -849003.16843   -126262.11744  25213892.4994   25213899.7334
      1869.7504
   1308946.47046   1562292.32245  24203070.9054   24203079.8514
     -4082.2814
 01 10  2  1  7 45.0030000  0  9G 2G13G 8G28G27G 7G11G26G31
  -3554021.98146  -2677565.26346  22630481.9834   22630490.6834
       -79.2034
  13099285.59245  11729606.35845  24644445.4214   24644458.2334
     -4810.0164
  -5328926.29848  -4053156.83547  21090136.3194   21090143.4834
      -889.1254
 -12208648.52746  -7868291.45546  21720284.7654   21720290.9054
      -631.3444
   -323463.14648  -2162279.23646  21909720.5154   21909728.2414
     -2136.9224
  -3107230.13543  -2279716.70545  24493728.7334   24493743.9014
      2248.1094
   -973277.71543   -371224.55745  25675271.7884   25675285.3624
       870.6884
   -877011.90244   -148087.12045  25208564.1874   25208572.6514
      1864.7344
   1370231.17946   1610046.64745  24214732.9914   24214742.7574
     -4088.9694
 01 10  2  1  8  0.0030000  0  9G 2G13G 8G28G27G 7G11G26G31
  -3552802.87846  -2676615.27346  22630714.3824   22630722.8124
       -83.3124
  13171457.39144  11785843.93045  24658179.0154   24658186.6594
     -4812.8594
  -5315543.10148  -4042728.35447  21092683.0464   21092690.1404
      -895.2814
 -12199134.92246  -7860878.24046  21722094.9994   21722101.1284
      -637.1094
   -291362.43248  -2137265.69146  21915829.1014   21915836.7574
     -2143.1414
  -3140929.65543  -2305975.89845  24487315.5694   24487328.6634
      2245.2034
   -986310.71745   -381379.98645  25672794.2334   25672805.2064
       867.0634
   -904944.63443   -169852.81344  25203248.8974   25203259.4834
      1859.6414
   1431616.41946   1657879.33945  24226414.5464   24226423.4794
     -4095.6874
 01 10  2  1  8 15.0030000  0  9G 2G13G 8G28G27G 7G11G26G31
  -3551521.13646  -2675616.47046  22630957.8974   22630965.9174
       -87.7504
  13243672.49645  11842115.40845  24671921.6714   24671933.0894
     -4815.9844
  -5302066.55748  -4032227.13647  21095247.5934   21095254.6044
      -901.7664
 -12189534.16446  -7853397.11046  21723922.2574   21723928.5034
      -643.1724
   -259167.77048  -2112178.94246  21921955.5074   21921962.9404
     -2149.6564
  -3174585.21243  -2332200.75545  24480911.6474   24480925.4444
      2242.0164
   -999288.10945   -391492.06945  25670325.8744   25670338.4764
       863.0784
   -932799.75243   -191558.13044  25197948.0774   25197955.8974
      1854.2034
   1493103.10846   1705791.03045  24238114.4054   24238123.4444
     -4102.6874
 01 10  2  1  8 30.0030000  0  9G 2G13G 8G28G27G 7G11G26G31
  -3550175.81846  -2674568.13946  22631214.1324   22631222.4334
       -91.6094
  13315931.60844  11898421.08645  24685672.2184   24685688.7224
     -4818.5474
  -5288495.51648  -4021652.27947  21097829.9134   21097836.9014
      -907.6874
 -12179845.21946  -7845847.26446  21725766.1944   21725772.5814
      -648.6724
   -226878.04348  -2087018.11446  21928100.1944   21928107.7454
     -2155.6254
  -3208195.42543  -2358390.40445  24474513.6324   24474524.2654
      2239.3594
  -1012208.58744   -401559.95345  25667865.7264   25667872.9374
       859.6564
   -960575.80244   -213201.75745  25192662.5934   25192674.4794
      1849.2814
   1554691.94646   1753782.37445  24249833.9294   24249843.1444
     -4109.1254
 01 10  2  1  8 45.0030000  0  9G 2G13G 8G28G27G 7G11G26G31
  -3548770.67246  -2673473.18446  22631481.2884   22631489.3434
       -95.5784
  13388230.79244  11954758.08545  24699429.2334   24699444.3784
     -4821.1564
  -5274833.59148  -4011006.60847  21100429.7024   21100436.8194
      -913.7344
 -12170071.98946  -7838231.74246  21727625.7494   21727631.7964
      -654.2664
   -194496.89747  -2061786.05146  21934261.8904   21934269.6164
     -2161.7194
  -3241763.69043  -2384547.26645  24468127.5464   24468138.9644
      2236.5784
  -1025075.61543   -411586.04745  25665415.8974   25665430.8314
       856.0784
   -988276.31542   -234786.46044  25187388.8194   25187401.6204
      1844.2664
   1616378.84946   1801850.08745  24261572.4834   24261580.7724
     -4115.6254
 01 10  2  1  9  0.0030000  0  9G 2G13G 8G28G27G 7G11G26G31
  -3547304.45846  -2672330.64146  22631760.3044   22631768.4404
       -99.9534
  13460570.95044  12011126.83245  24713195.6874   24713203.5654
     -4824.2194
  -5261079.18248  -4000288.86747  21103046.9444   21103054.0154
      -920.2194
 -12160213.11846  -7830549.48746  21729501.5694   21729507.9214
      -660.2814
   -162022.89047  -2036481.62646  21940441.5304   21940449.0224
     -2168.2034
  -3275288.34443  -2410670.11345  24461745.7264   24461758.6794
      2233.3444
  -1037887.24345   -421569.04145  25662981.3664   25662993.5814
       852.0634
  -1015899.53445   -256311.04445  25182135.8434   25182152.0654
      1838.7814
   1678164.90646   1849995.08945  24273331.0464   24273340.5194
     -4122.5474
 01 10  2  1  9 15.0030000  0  9G 2G13G 8G28G27G 7G11G26G31
  -3545775.50446  -2671139.21146  22632051.4214   22632059.6164
      -103.9694
  13532953.47744  12067528.76945  24726970.1714   24726983.7454
     -4826.8594
  -5247230.66448  -3989497.79647  21105682.3584   21105689.2294
      -926.3284
 -12150266.98346  -7822799.23246  21731394.4134   21731400.3434
      -665.9374
   -129454.29547  -2011103.49646  21946639.3194   21946647.0224
     -2174.3444
  -3308767.40543  -2436757.62245  24455377.6404   24455394.1084
      2230.4694
  -1050641.50644   -431507.35745  25660550.8664   25660562.6244
       848.4224
  -1043443.31345   -277773.78145  25176895.4444   25176905.5504
      1833.6414
   1740051.40246   1898218.33945  24285106.1244   24285114.9174
     -4129.0624
 01 10  2  1  9 30.0030000  0  9G 2G13G 8G28G27G 7G11G26G31
  -3544188.45246  -2669902.51746  22632353.3194   22632362.0654
      -108.1724
  13605373.54444  12123959.84045  24740751.6404   24740764.4524
     -4829.6874
  -5233292.30948  -3978636.71647  21108334.4914   21108341.6444
      -932.6414
 -12140238.22046  -7814984.59346  21733302.8434   21733308.7374
      -671.7664
    -96795.57347  -1985655.13746  21952853.9684   21952861.4134
     -2180.6874
  -3342205.17543  -2462812.81245  24449013.2964   24449022.6754
      2227.3594
  -1063342.79944   -441404.24445  25658133.5544   25658147.1634
       844.5474
  -1070912.32742   -299178.01045  25171664.9764   25171677.0974
      1828.3284
   1802033.52346   1946516.10145  24296902.1874   24296912.3514
     -4135.7504
 01 10  2  1  9 45.0030000  0  9G 2G13G 8G28G27G 7G11G26G31
  -3542536.03546  -2668614.87846  22632667.8514   22632675.9644
      -112.1414
  13677838.19044  12180425.67545  24754540.8274   24754552.5384
     -4832.2664
  -5219256.66348  -3967699.82847  21111005.7494   21111012.6084
      -938.7344
 -12130119.60246  -7807099.93446  21735228.5154   21735234.5384
      -677.3594
    -64039.32447  -1960130.78346  21959087.1474   21959094.6404
     -2186.7814
  -3375593.92943  -2488829.80745  24442659.1714   24442669.5694
      2224.5004
  -1075983.23845   -451253.77945  25655730.0544   25655741.4134
       840.8754
  -1098298.40445   -320517.67744  25166456.1634   25166459.2694
      1823.1884
   1864118.21946   1994893.82545  24308715.7654   24308725.9994
     -4142.1724
 01 10  2  1 10  0.0030000  0  9G 2G13G 8G28G27G 7G11G26G31
  -3540828.41046  -2667284.22846  22632992.4764   22633000.3544
      -115.8124
  13750336.91844  12236918.08545  24768336.8194   24768347.2534
     -4834.5164
  -5205133.71648  -3956694.91147  21113693.1164   21113699.9374
      -944.5784
 -12119921.38446  -7799153.25046  21737169.2414   21737174.9134
      -682.6724
    -31195.62847  -1934538.28846  21965337.3124   21965344.8974
     -2192.6414
  -3408943.54443  -2514816.33345  24436314.1634   24436330.1754
      2221.8444
  -1088572.65345   -461063.63745  25653332.7574   25653343.2024
       837.4384
  -1125611.55042   -341800.90944  25161253.2574   25161265.0854
      1818.3134
   1926294.98546   2043343.23445  24320547.6084   24320558.5114
     -4148.3284
 01 10  2  1 10 15.0030000  0  9G 2G13G 8G28G27G 7G11G26G31
  -3539058.35946  -2665904.93646  22633329.3664   22633337.5854
      -120.2504
  13822876.73644  12293442.56745  24782140.5694   24782153.4524
     -4837.5314
  -5190916.22148  -3945616.32547  21116398.6014   21116405.5544
      -951.1564
 -12109636.40946  -7791138.96446  21739126.0854   21739132.0034
      -688.7344
      1742.87947  -1908871.91846  21971605.1014   21971612.6514
     -2199.2344
  -3442246.52243  -2540766.56745  24429976.7104   24429991.9834
      2218.4694
  -1101103.50644   -470827.82045  25650947.6324   25650956.2724
       833.2504
  -1152844.30745   -363020.85245  25156076.7494   25156092.8544
      1812.6254
   1988570.75246   2091869.82745  24332398.3904   24332407.7574
     -4155.1724
 01 10  2  1 10 30.0030000  0  9G 2G13G 8G28G27G 7G11G26G31
  -3537225.79246  -2664476.93246  22633678.1084   22633686.4914
      -124.4064
  13895457.53144  12349998.85545  24795952.4914   24795964.2614
     -4840.2034
  -5176603.68448  -3934463.67947  21119122.1874   21119129.0934
      -957.4844
 -12099264.45446  -7783056.89846  21741099.7884   21741105.5774
      -694.5004
     34776.45047  -1883131.47246  21977891.3744   21977898.9254
     -2205.5474
  -3475502.34243  -2566679.97445  24423647.0154   24423659.5694
      2215.3134
  -1113575.10345   -480545.75345  25648577.1874   25648585.5584
       829.3284
  -1179995.84845   -384177.91045  25150909.6794   25150917.3474
      1807.2504
   2050945.28846   2140473.39345  24344267.7104   24344277.8044
     -4161.7194
 01 10  2  1 10 45.0030000  0  9G 2G13G 8G28G27G 7G11G26G31
  -3535331.47046  -2663000.80646  22634038.5224   22634046.5894
      -128.2664
  13968078.24544  12406586.36645  24809771.1014   24809785.1554
     -4842.6254
  -5162196.84048  -3923237.54747  21121863.7024   21121870.5734
      -963.5164
 -12088806.34746  -7774907.70046  21743089.8904   21743095.5034
      -700.0004
     67904.48147  -1857317.42046  21984195.2654   21984202.8394
     -2211.6094
  -3508711.43543  -2592556.97845  24417327.5304   24417341.3974
      2212.4694
  -1125987.93544   -490218.09245  25646212.3824   25646224.2224
       825.6254
  -1207067.03343   -405272.43745  25145754.3124   25145765.5894
      1802.1094
   2113417.49846   2189152.99745  24356155.6554   24356165.0224
     -4167.9844
 01 10  2  1 11  0.0030000  0  9G 2G13G 8G28G27G 7G11G26G31
  -3533379.89546  -2661480.06046  22634410.0384   22634418.1984
      -132.0314
  14040734.09944  12463201.15744  24823597.4604   24823611.2224
     -4844.9224
  -5147699.83948  -3911941.15947  21124622.2414   21124629.0854
      -969.4844
 -12078266.69346  -7766694.95746  21745095.3974   21745101.0224
      -705.3914
    101122.59047  -1831433.17146  21990516.5774   21990524.0934
     -2217.5784
  -3541877.93343  -2618400.88245  24411016.4684   24411029.8314
      2209.6564
  -1138346.07244   -499847.68745  25643860.0154   25643874.6674
       822.0314
  -1234061.50545   -426306.90545  25140620.1084   25140629.9794
      1797.0474
   2175982.75146   2237905.18545  24368061.4764   24368072.0264
     -4174.1414
 01 10  2  1 11 15.0030000  0  9G 2G13G 8G28G27G 7G11G26G31
  -3531366.09446  -2659910.83246  22634793.0624   22634800.7654
      -136.1724
  14113429.90144  12519847.18545  24837431.4834   24837447.5774
     -4847.5784
  -5133107.64348  -3900570.60147  21127398.9914   21127405.7884
      -975.8444
 -12067640.53046  -7758414.80946  21747117.8664   21747123.6444
      -711.1414
    134435.95147  -1805474.70946  21996855.8354   21996863.1044
     -2223.9224
  -3574996.47943  -2644207.36945  24404715.1014   24404731.5934
      2206.4694
  -1150644.21545   -509430.47245  25641522.6084   25641532.6084
       818.0004
  -1260974.21443   -447277.76845  25135495.6714   25135511.5654
      1791.5944
   2238645.73446   2286733.48345  24379986.3124   24379995.9724
     -4180.6254
 01 10  2  1 11 30.0030000  0  9G 2G13G 8G28G27G 7G11G26G31
  -3529297.76846  -2658299.11846  22635186.7334   22635194.6244
      -139.8594
  14186157.65343  12576518.03245  24851269.7654   24851280.5154
     -4849.7664
  -5118427.73648  -3889131.69147  21130192.6404   21130199.4014
      -981.7664
 -12056935.64346  -7750073.31146  21749154.7414   21749160.4484
      -716.4534
    167836.92847  -1779447.97146  22003211.9134   22003219.4294
     -2229.8284
  -3608074.53143  -2669982.30245  24398420.2414   24398433.2534
      2203.6564
  -1162889.53645   -518972.15845  25639191.9374   25639203.7294
       814.4064
  -1287812.41345   -468190.65345  25130392.8904   25130397.7884
      1786.5474
   2301398.42246   2335631.67145  24391927.4524   24391937.0544
     -4186.6564
 01 10  2  1 11 45.0030000  0  9G 2G13G 8G28G27G 7G11G26G31
  -3527167.05246  -2656638.80146  22635592.4444   22635600.6164
      -144.0314
  14258924.97944  12633219.75045  24865118.1404   24865129.5344
     -4852.3594
  -5103652.03048  -3877618.13047  21133004.3044   21133011.2804
      -988.1254
 -12046144.18946  -7741664.36346  21751208.2804   21751213.9644
      -722.2194
    201333.55547  -1753346.70046  22009586.1324   22009593.6834
     -2236.2034
  -3641103.75143  -2695719.20245  24392134.1084   24392149.5114
      2200.4534
  -1175074.04743   -528466.47245  25636867.1634   25636877.0814
       810.3444
  -1314567.86243   -489039.04145  25125297.9604   25125309.1084
      1781.0474
   2364248.39746   2384605.69145  24403887.1014   24403895.6364
     -4193.1414
 01 10  2  1 12  0.0030000  0  9G 2G13G 8G28G27G 7G11G26G31
  -3524976.33146  -2654931.70346  22636008.9914   22636017.3154
      -148.1254
  14331729.17244  12689950.15445  24878971.9524   24878984.4834
     -4854.9224
  -5088782.83348  -3866031.72047  21135833.8354   21135840.7064
      -994.4844
 -12035268.41546  -7733189.70846  21753277.8124   21753283.4254
      -727.9374
    234923.47447  -1727172.74046  22015977.9684   22015985.5894
     -2242.5314
  -3674086.30943  -2721419.69245  24385857.7964   24385870.6794
      2197.1724
  -1187199.35745   -537914.60845  25634565.3274   25634577.6364
       806.2974
  -1341242.65444   -509824.38945  25120224.4604   25120230.1554
      1775.5314
   2427192.83546   2433653.31045  24415865.2184   24415873.7064
     -4199.5164
 01 10  2  1 12 15.0030000  0  9G 2G13G 8G28G27G 7G11G26G31
  -3522728.22646  -2653179.90946  22636437.1164   22636445.7104
      -151.7664
  14404567.32044  12746706.99445  24892832.6244   24892843.8194
     -4856.9844
  -5073822.57248  -3854374.35447  21138680.6634   21138687.3784
     -1000.3754
 -12024311.08446  -7724651.49746  21755363.1634   21755369.1754
      -733.1874
    268604.18148  -1700928.03046  22022387.3124   22022394.7224
     -2248.3754
  -3707024.44943  -2747085.63645  24379589.9524   24379604.2534
      2194.3914
  -1199267.76845   -547318.55245  25632266.6874   25632278.8664
       802.7034
  -1367838.83743   -530548.70445  25115161.9214   25115168.8744
      1770.4694
   2490228.80346   2482772.30545  24427860.8824   24427871.0584
     -4205.4224
 01 10  2  1 12 30.0030000  0  9G 2G13G 8G28G27G 7G11G26G31
  -3520420.25246  -2651381.45946  22636875.8824   22636884.2064
      -156.0164
  14477441.69944  12803492.14045  24906701.4214   24906714.0584
     -4859.6414
  -5058768.50748  -3842643.89347  21141545.3044   21141552.2224
     -1006.8914
 -12013269.71546  -7716047.80646  21757464.1634   21757469.9994
      -739.0474
    302378.31147  -1674610.52446  22028814.3974   22028821.9254
     -2254.8754
  -3739915.22543  -2772714.63945  24373330.6164   24373344.3314
      2191.0004
  -1211276.50244   -556675.84945  25629981.3044   25629994.3274
       798.4064
  -1394353.74444   -551209.57345  25110117.1164   25110127.2104
      1764.7974
   2553358.54046   2531964.28745  24439874.6404   24439884.3704
     -4211.9064
 01 10  2  1 12 45.0030000  0  9G 2G13G 8G28G27G 7G11G26G31
  -3518049.51446  -2649534.09746  22637327.1164   22637335.4054
      -159.8754
  14550354.91943  12860307.59044  24920574.8904   24920592.6474
     -4861.9064
  -5043617.58348  -3830837.95847  21144428.4214   21144435.2064
     -1013.0314
 -12002141.50846  -7707376.45346  21759581.8274   21759587.3824
      -744.5164
    336248.88947  -1648217.86346  22035259.6554   22035267.2064
     -2261.0004
  -3772755.52443  -2798304.29745  24367081.4684   24367093.9294
      2187.9224
  -1223222.15545   -565984.04945  25627710.2184   25627719.2694
       794.5474
  -1420783.95343   -571804.54645  25105086.3664   25105091.0194
      1759.4534
   2616584.69246   2581231.48945  24451905.0384   24451915.7064
     -4218.0164
 01 10  2  1 13  0.0030000  0  9G 2G13G 8G28G27G 7G11G26G31
  -3515620.95446  -2647641.68646  22637789.2574   22637797.4174
      -163.6094
  14623301.83844  12917149.16045  24934457.5384   24934467.0344
     -4864.0164
  -5028374.48948  -3818960.20347  21147329.1244   21147335.7574
     -1019.0624
 -11990931.38146  -7698641.26346  21761714.6714   21761720.3194
      -749.8594
    370211.12147  -1621753.78946  22041722.3904   22041730.1984
     -2266.9844
  -3805549.86743  -2823858.19645  24360840.3664   24360853.1324
      2184.9694
  -1235109.31245   -575246.68045  25625447.7264   25625457.2804
       790.7504
  -1447134.06944   -592337.07245  25100073.9604   25100083.1044
      1754.2034
   2679902.00546   2630569.63845  24463954.8274   24463963.4214
     -4223.9694
 01 10  2  1 13 15.0030000  0  9G 2G13G 8G28G27G 7G11G26G31
  -3513132.94846  -2645702.95946  22638263.0934   22638271.0774
      -168.0784
  14696283.88443  12974018.27745  24948345.5384   24948358.2104
     -4866.8754
  -5013037.45348  -3807009.24547  21150247.6554   21150254.4524
     -1025.8444
 -11979637.70546  -7689840.96546  21763863.7574   21763869.4174
      -755.9224
    404266.80547  -1595216.88646  22048203.0774   22048210.7694
     -2273.7194
  -3838296.18643  -2849374.69145  24354608.2494   24354620.1124
      2181.2504
  -1246935.99344   -584462.13045  25623194.4444   25623206.7764
       786.2034
  -1473402.05244   -612805.43845  25095073.9914   25095083.8974
      1748.2034
   2743311.88546   2679979.96145  24476020.3194   24476030.6594
     -4230.6414
 01 10  2  1 13 30.0030000  0  9G 2G13G 8G28G27G 7G11G26G31
  -3510585.78046  -2643718.11346  22638747.5464   22638755.3544
      -171.9374
  14769300.51243  13030914.17845  24962239.2264   24962249.7414
     -4869.0784
  -4997606.59448  -3794985.17847  21153183.9684   21153190.7534
     -1032.0164
 -11968260.77746  -7680975.79746  21766028.8194   21766034.3744
      -761.3914
    438415.73847  -1568607.33046  22054701.2334   22054708.8084
     -2279.8594
  -3870994.51543  -2874853.71045  24348386.1944   24348401.0694
      2178.1414
  -1258701.86145   -593630.18545  25620958.1794   25620968.9874
       782.2194
  -1499587.92843   -633210.05645  25090089.4604   25090099.9294
      1742.8444
   2806813.68946   2729461.89645  24488104.8434   24488115.0194
     -4236.6724
 01 10  2  1 13 45.0030000  0  9G 2G13G 8G28G27G 7G11G26G31
  -3507979.87746  -2641687.51546  22639243.1084   22639250.8354
      -175.6094
  14842351.00443  13087836.46345  24976140.3744   24976145.8944
     -4871.0944
  -4982082.19148  -3782888.22347  21156138.1794   21156144.9524
     -1038.0164
 -11956801.18146  -7672046.20946  21768209.4294   21768215.3824
      -766.6564
    472657.61247  -1541925.35346  22061217.3514   22061225.0194
     -2285.8284
  -3903644.98943  -2900295.45045  24342173.0304   24342187.2264
      2175.1414
  -1270407.04545   -602751.06645  25618729.9444   25618740.3084
       778.3914
  -1525691.52144   -653550.45145  25085123.4834   25085134.9254
      1737.5634
   2870406.71346   2779014.91045  24500206.1714   24500215.7024
     -4242.5004
 01 10  2  1 14  0.0030000  0  9G 2G13G 8G28G27G 7G11G26G31
  -3505311.31146  -2639608.08046  22639750.9294   22639758.9834
      -179.8594
  14915439.08443  13144788.15145  24990049.9684   24990065.8624
     -4873.6414
  -4966460.06248  -3770715.11447  21159110.9444   21159117.7414
     -1044.6094
 -11945254.86746  -7663049.05446  21770406.5074   21770412.3194
      -772.5004
    506996.53447  -1515167.74946  22067751.6714   22067759.4094
     -2292.3594
  -3936243.14443  -2925696.49745  24335970.2414   24335984.1444
      2171.6094
  -1282047.17545   -611821.13645  25616515.5384   25616526.8274
       773.9534
  -1551708.71745   -673823.47145  25080173.5384   25080183.1164
      1731.7194
   2934094.62846   2828641.89545  24512325.3904   24512335.0034
     -4248.8754
 01 10  2  1 14 15.0030000  0  9G 2G13G 8G28G27G 7G11G26G31
  -3502582.84646  -2637481.97046  22640270.1404   22640278.0654
      -183.4374
  14988561.74443  13201766.70245  25003963.6474   25003976.9524
     -4875.5314
  -4950742.71948  -3758467.81947  21162101.9374   21162108.7104
     -1050.5474
 -11933624.70846  -7653986.56746  21772619.5624   21772625.7494
      -777.6874
    541429.85647  -1488336.58846  22074304.2264   22074311.3314
     -2298.2504
  -3968791.44043  -2951058.56945  24329775.2724   24329789.1284
      2168.6884
  -1293624.64045   -620842.40845  25614311.0774   25614320.9134
       770.1884
  -1577641.79543   -694031.13245  25075235.7724   25075244.2614
      1726.5164
   2997874.37946   2878340.43745  24524461.6014   24524470.1594
     -4254.5784
 01 10  2  1 14 30.0030000  0  9G 2G13G 8G28G27G 7G11G26G31
  -3499799.34146  -2635312.98046  22640799.6794   22640807.7334
      -187.5624
  15061713.85143  13258768.25645  25017884.2804   25017895.3824
     -4877.9224
  -4934934.90548  -3746150.01847  21165110.0154   21165116.7884
     -1057.0164
 -11921915.51446  -7644862.48946  21774847.7104   21774853.3474
      -783.3914
    575952.84947  -1461435.55146  22080873.8514   22080881.4014
     -2304.6724
  -4001294.42343  -2976385.46145  24323590.4294   24323605.6674
      2165.2034
  -1305143.89445   -629818.36845  25612120.1474   25612128.2494
       765.8444
  -1603495.25945   -714176.48945  25070318.8044   25070330.0464
      1720.7344
   3061740.84846   2928106.52745  24536616.2264   24536625.6634
     -4260.7974
 01 10  2  1 14 45.0030000  0  9G 2G13G 8G28G27G 7G11G26G31
  -3496953.15746  -2633095.13246  22641341.3044   22641349.3584
      -191.7504
  15134902.78043  13315798.42945  25031812.2264   25031822.9644
     -4880.4064
  -4919028.77748  -3733755.61247  21168136.8354   21168143.5974
     -1063.5944
 -11910119.69546  -7635670.91246  21777092.5074   21777098.0384
      -789.1874
    610573.24347  -1434458.61546  22087461.9914   22087469.2494
     -2311.2034
  -4033744.05543  -3001670.75145  24317415.1084   24317430.7804
      2161.6254
  -1316596.99545   -638742.79445  25609939.0384   25609953.8194
       761.3914
  -1629261.05344   -734253.75745  25065414.9134   25065425.4994
      1714.8754
   3125701.35746   2977945.90045  24548787.6084   24548797.9014
     -4267.0784
 01 10  2  1 15  0.0030000  0  9G 2G13G 8G28G27G 7G11G26G31
  -3494044.30546  -2630828.47046  22641894.9054   22641902.7144
      -195.8754
  15208128.24743  13372857.18245  25045746.2964   25045761.4524
     -4882.7814
  -4903024.22548  -3721284.51547  21171182.2884   21171189.1084
     -1070.1254
 -11898237.28246  -7626411.85746  21779353.4914   21779359.3274
      -794.9064
    645291.17347  -1407405.68146  22094068.2104   22094075.9484
     -2317.6564
  -4066140.08643  -3026914.26345  24311250.9374   24311261.9444
      2158.0634
  -1327983.45045   -647615.12845  25607772.7884   25607785.1674
       756.9844
  -1654938.83844   -754262.35345  25060528.3194   25060540.4404
      1709.0474
   3189755.68546   3027858.37645  24560975.6164   24560985.2764
     -4273.2814
 01 10  2  1 15 15.0030000  0  9G 2G13G 8G28G27G 7G11G26G31
  -3491074.85346  -2628514.58046  22642459.8274   22642467.9644
      -200.1874
  15281388.02043  13429942.54245  25059686.5304   25059697.0344
     -4885.3284
  -4886923.00748  -3708738.09147  21174246.4134   21174253.1984
     -1076.8444
 -11886270.34146  -7617086.94146  21781631.0304   21781636.9134
      -800.8124
    680104.73247  -1380278.23046  22100693.2334   22100700.8664
     -2324.2974
  -4098484.22843  -3052117.32145  24305095.4214   24305105.1044
      2154.3134
  -1339304.75145   -656436.85545  25605619.9444   25605632.9214
       752.3754
  -1680530.22744   -774203.53845  25055659.5774   25055670.7494
      1703.0004
   3253901.39346   3077842.06145  24573183.8434   24573192.8944
     -4279.6254
 01 10  2  1 15 30.0030000  0  9G 2G13G 8G28G27G 7G11G26G31
  -3488049.83446  -2626157.39146  22643035.3744   22643043.6634
      -203.9064
  15354676.78743  13487050.60345  25073633.6874   25073641.6834
     -4887.2814
  -4870730.03748  -3696120.17247  21177327.6794   21177334.4404
     -1082.9694
 -11874224.12146  -7607700.25046  21783923.0694   21783928.6594
      -806.1094
    715008.92847  -1353080.14746  22107335.3124   22107342.6984
     -2330.3444
  -4130781.07643  -3077283.53345  24298949.0934   24298964.7064
      2151.1724
  -1350565.71444   -665211.57045  25603473.8904   25603485.9524
       748.3444
  -1706040.13043   -794081.42145  25050802.8434   25050815.3864
      1697.5634
   3318133.13046   3127892.76945  24585405.7104   24585415.2654
     -4285.3594
 01 10  2  1 15 45.0030000  0  9G 2G13G 8G28G27G 7G11G26G31
  -3484959.62546  -2623749.40146  22643623.8124   22643632.0424
      -207.8914
  15428003.84343  13544188.42545  25087587.4604   25087601.1284
     -4889.4694
  -4854435.57348  -3683423.16847  21180428.2964   21180435.0814
     -1089.4224
 -11862088.81146  -7598244.13446  21786232.4604   21786238.3314
      -811.7034
    750013.54347  -1325803.82446  22113996.2804   22114003.6444
     -2336.7034
  -4163020.68644  -3102405.15445  24292815.0854   24292828.0154
      2147.6884
  -1361756.39045   -673931.30845  25601346.7334   25601356.6284
       743.9694
  -1731458.26245   -813887.61045  25045968.1554   25045977.5934
      1691.7504
   3382460.32546   3178017.85845  24597646.0154   24597654.9134
     -4291.3754
 01 10  2  1 16  0.0030000  0  9G 2G13G 8G28G27G 7G11G26G31
  -3481811.38046  -2621296.18746  22644222.3354   22644230.3194
      -211.7034
  15501361.91743  13601350.35644  25101548.1164   25101560.6364
     -4891.4694
  -4838046.37748  -3670652.34447  21183547.3044   21183553.9014
     -1095.6724
 -11849871.60246  -7588724.20946  21788557.1084   21788562.8274
      -817.0944
    785111.57447  -1298454.70346  22120675.3974   22120682.9484
     -2342.8754
  -4195209.83044  -3127487.47845  24286688.9134   24286701.0934
      2144.3594
  -1372883.27445   -682601.56845  25599229.2414   25599241.3974
       739.7664
  -1756791.53943   -833627.79345  25041145.3904   25041155.3314
      1686.1564
   3446875.57346   3228211.59245  24609905.0074   24609914.7964
     -4297.1724
 01 10  2  1 16 15.0030000  0  9G 2G13G 8G28G27G 7G11G26G31
  -3478605.24146  -2618797.85946  22644832.6714   22644840.8194
      -215.9374
  15574750.50243  13658536.24445  25115513.9054   25115524.2694
     -4893.8594
  -4821562.51648  -3657807.75547  21186683.7724   21186690.4404
     -1102.3444
 -11837572.85846  -7579140.74846  21790897.5544   21790903.2144
      -822.9064
    820302.90947  -1271032.87546  22127372.1714   22127379.6284
     -2349.4694
  -4227348.31844  -3152530.29045  24280574.1164   24280586.6124
      2140.6094
  -1383946.34445   -691222.01645  25597122.9914   25597130.8704
       735.1254
  -1782039.62845   -853301.55145  25036342.9444   25036357.0114
      1680.0784
   3511378.34546   3278473.49245  24622179.6244   24622189.3434
     -4303.3594
 01 10  2  1 16 30.0030000  0  9G 2G13G 8G28G27G 7G11G26G31
  -3475336.09146  -2616250.42946  22645454.7264   22645462.5464
      -220.1414
  15648174.44243  13715749.55245  25129484.7964   25129499.9294
     -4896.1874
  -4804978.89148  -3644885.42947  21189839.5544   21189846.3154
     -1109.0164
 -11825187.33746  -7569489.66646  21793254.3824   21793259.9604
      -828.6874
    855592.81448  -1243534.24246  22134087.6794   22134095.2064
     -2356.0474
  -4259430.81244  -3177529.50445  24274468.6714   24274479.4564
      2136.8594
  -1394940.11445   -699788.39045  25595031.6944   25595041.6364
       730.5004
  -1807197.15143   -872904.74245  25031552.4994   25031562.3944
      1674.0314
   3575973.33746   3328807.29145  24634471.2724   24634481.5424
     -4309.5004
 01 10  2  1 16 45.0030000  0  9G 2G13G 8G28G27G 7G11G26G31
  -3472004.97646  -2613654.72146  22646088.6014   22646096.6444
      -223.9064
  15721632.41943  13772989.46545  25143463.2724   25143477.3514
     -4898.0944
  -4788296.11148  -3631885.84247  21193014.1634   21193020.8784
     -1115.2504
 -11812716.14746  -7559771.82246  21795627.7724   21795633.3864
      -834.0164
    890980.43447  -1215959.46446  22140821.4374   22140828.7764
     -2362.1874
  -4291457.85444  -3202485.48845  24268374.0384   24268386.9094
      2133.5164
  -1405864.94545   -708301.20345  25592952.2884   25592963.3904
       726.2664
  -1832264.65444   -892437.80545  25026784.4764   25026793.7614
      1668.3914
   3640659.25746   3379211.91345  24646780.5074   24646789.8974
     -4315.1724
 01 10  2  1 17  0.0030000  0  9G 2G13G 8G28G27G 7G11G26G31
  -3468616.17346  -2611014.05746  22646733.0384   22646741.4684
      -228.3124
  15795120.02843  13830252.33745  25157447.4444   25157464.3354
     -4900.6254
  -4771518.29548  -3618812.19747  21196207.0384   21196213.7064
     -1122.1564
 -11800163.55246  -7549990.55546  21798016.6244   21798022.3314
      -840.0164
    926461.61947  -1188311.77746  22147573.5934   22147581.0034
     -2369.0004
  -4323433.41844  -3227401.37845  24262288.6014   24262299.6674
      2129.5004
  -1416724.89745   -716763.39845  25590886.6244   25590899.1904
       721.3594
  -1857246.08643   -911903.75745  25022029.9834   25022042.3394
      1662.1094
   3705431.60146   3429683.91745  24659106.0074   24659115.1984
     -4321.5004
 01 10  2  1 17 15.0030000  0  9G 2G13G 8G28G27G 7G11G26G31
  -3465166.73546  -2608326.14346  22647389.8434   22647398.3084
      -231.9694
  15868639.98443  13887540.44844  25171438.8974   25171445.6714
     -4902.3914
  -4754642.30648  -3605662.05247  21199418.0854   21199424.7184
     -1128.3284
 -11787526.69346  -7540143.62746  21800420.7184   21800426.5194
      -845.2664
    962039.44847  -1160588.78946  22154343.6474   22154351.1044
     -2375.0784
  -4355354.16244  -3252274.52345  24256213.9134   24256226.6794
      2126.2194
  -1427516.48045   -725172.20145  25588832.4054   25588842.8974
       717.1564
  -1882138.05443   -931300.05345  25017292.7654   25017304.7104
      1656.4694
   3770292.99146   3480225.25745  24671449.0304   24671458.8314
     -4327.0624
 01 10  2  1 17 30.0030000  0  9G 2G13G 8G28G27G 7G11G26G31
  -3461658.80446  -2605592.65846  22648057.3584   22648065.6014
      -236.1254
  15942189.80543  13944851.86945  25185434.1324   25185444.5304
     -4904.6254
  -4737670.14248  -3592436.96447  21202648.0854   21202654.8584
     -1135.0004
 -11774807.72246  -7530232.72346  21802841.5074   21802847.2374
      -850.9844
    997711.87847  -1132792.07846  22161131.7334   22161139.1554
     -2381.6254
  -4387221.88744  -3277106.36145  24250149.3824   24250163.2724
      2122.4064
  -1438241.60444   -733529.37145  25586788.7334   25586796.9404
       712.4694
  -1906942.37844   -950628.01345  25012573.4604   25012583.4604
      1650.3594
   3835240.98546   3530834.12845  24683807.1714   24683817.6754
     -4333.0624
 01 10  2  1 17 45.0030000  0  9G 2G13G 8G28G27G 7G11G26G31
  -3458086.02146  -2602808.63346  22648737.1244   22648745.2964
      -240.1564
  16015775.71543  14002191.52045  25199438.1404   25199446.2294
     -4906.7344
  -4720595.22348  -3579131.80847  21205897.1944   21205904.1014
     -1141.5624
 -11762000.36247  -7520252.93046  21805278.6554   21805284.3394
      -856.5784
   1033485.42747  -1104916.57646  22167939.4294   22167946.9214
     -2388.0784
  -4419029.84244  -3301891.70645  24244096.7574   24244111.0344
      2118.7504
  -1448893.41045   -741829.29145  25584764.3274   25584777.2224
       707.8594
  -1931652.21443   -969882.34845  25007870.6244   25007882.6984
      1644.3914
   3900281.67946   3581515.19145  24696185.5854   24696194.2494
     -4338.9374
 01 10  2  1 18  0.0030000  0  9G 2G13G 8G28G27G 7G11G26G31
  -3454448.81046  -2599974.39746  22649429.0544   22649436.8514
      -244.9694
  16089397.02443  14059558.57645  25213447.2654   25213455.7064
     -4909.6254
  -4703417.84548  -3565746.80947  21209165.9444   21209172.8394
     -1148.9224
 -11749104.93347  -7510204.52146  21807732.3904   21807737.7454
      -862.9844
   1069359.76747  -1076962.53446  22174766.0854   22174773.5424
     -2395.3284
  -4450778.12344  -3326630.41045  24238056.0774   24238071.6204
      2114.2034
  -1459471.80845   -750072.18645  25582751.9444   25582763.9014
       702.4384
  -1956267.88344   -989063.25845  25003187.6714   25003195.1284
      1637.5474
   3965414.35046   3632267.96045  24708579.1554   24708587.9604
     -4345.5784
 01 10  2  1 18 15.0030000  0  9G 2G13G 8G28G27G 7G11G26G31
  -3450748.20846  -2597090.77546  22650133.3274   22650141.0194
      -248.8754
  16163052.36843  14116952.32644  25227464.4994   25227469.4914
     -4911.5624
  -4686138.72948  -3552282.53747  21212453.9684   21212460.8514
     -1155.3754
 -11736122.47447  -7500088.29946  21810203.0154   21810208.3584
      -868.4374
   1105333.97947  -1048930.66746  22181611.7884   22181619.0344
     -2401.6564
  -4482467.45244  -3351323.29545  24232025.0384   24232036.6554
      2110.5944
  -1469977.63645   -758258.39145  25580750.2184   25580762.6324
       697.9064
  -1980789.68143  -1008171.15845  24998519.6874   24998532.7224
      1631.5944
   4030637.77046   3683091.43745  24720991.2574   24721001.8544
     -4351.2974
 01 10  2  1 18 30.0030000  0  9G 2G13G 8G28G27G 7G11G26G31
  -3446986.98546  -2594159.90946  22650849.1164   22650857.1244
      -252.3284
  16236738.73843  14174370.10645  25241485.9604   25241494.8124
     -4913.0164
  -4668760.56148  -3538741.08447  21215760.9054   21215767.7024
     -1161.3914
 -11723055.86947  -7489906.50746  21812689.3514   21812695.0814
      -873.4694
   1141405.34647  -1020823.09846  22188475.6324   22188483.0544
     -2407.5474
  -4514100.31444  -3375972.14345  24226005.3274   24226016.8044
      2107.4224
  -1480413.20145   -766389.81845  25578766.3974   25578779.1164
       693.7974
  -2005220.30043  -1027207.86545  24993871.5544   24993882.6084
      1626.1254
   4095948.86346   3733983.21545  24733419.5624   24733429.1634
     -4356.5314
 01 10  2  1 18 45.0030000  0  9G 2G13G 8G28G27G 7G11G26G31
  -3443170.34046  -2591185.85646  22651575.7494   22651583.7334
      -256.3754
  16310450.70143  14231807.81144  25255512.1874   25255526.3124
     -4915.0784
  -4651288.48848  -3525126.45347  21219085.6244   21219092.3044
     -1168.0164
 -11709910.42047  -7479663.27346  21815190.9294   21815196.4374
      -879.0784
   1177568.71147   -992643.84546  22195357.1874   22195364.5264
     -2414.0474
  -4545681.45144  -3400580.63545  24219994.7024   24220010.1634
      2103.6254
  -1490783.23045   -774470.28945  25576793.8044   25576801.9524
       689.0784
  -2029564.47743  -1046177.36745  24989238.5224   24989248.5814
      1619.9694
   4161341.98346   3784938.92945  24745863.2964   24745871.4214
     -4362.3594
 01 10  2  1 19  0.0040000  0  9G 2G13G 8G28G27G 7G11G26G31
  -3439295.42946  -2588166.40146  22652312.5594   22652320.4144
      -260.4694
  16384195.45643  14289271.12344  25269546.5044   25269552.7384
     -4917.1414
  -4633718.45448  -3511435.49347  21222429.2544   21222436.0514
     -1174.7194
 -11696682.64647  -7469355.89846  21817708.0194   21817713.5274
      -884.7344
   1213829.28447   -964388.84746  22202257.5434   22202264.9884
     -2420.5944
  -4577210.17844  -3425148.38845  24213996.3094   24214010.7504
      2099.7034
  -1501085.45445   -782497.84145  25574830.3554   25574841.3054
       684.2664
  -2053820.85944  -1065078.23345  24984624.0044   24984633.5234
      1613.7664
   4226823.80146   3835963.74245  24758322.9024   24758330.8164
     -4368.2034
 01 10  2  1 19 15.0040000  0  9G 2G13G 8G28G27G 7G11G26G31
  -3435351.64746  -2585093.28746  22653062.9414   22653070.4454
      -264.8594
  16457974.13743  14346761.00544  25283586.1684   25283600.7974
     -4919.5004
  -4616041.53348  -3497661.24347  21225792.9804   21225799.7544
     -1181.6874
 -11683363.16947  -7458977.05246  21820242.6764   21820248.0664
      -890.6874
   1250193.48447   -936053.08746  22209177.4184   22209184.6764
     -2427.4374
  -4608670.74044  -3449662.94345  24208007.9344   24208020.7694
      2095.5474
  -1511306.93745   -790462.53445  25572886.3244   25572898.0124
       679.1254
  -2077974.66843  -1083899.41245  24980025.4104   24980030.6134
      1607.2814
   4292396.58445   3887059.42845  24770800.8714   24770809.6994
     -4374.3124
 01 10  2  1 19 30.0040000  0  9G 2G13G 8G28G27G 7G11G26G31
  -3431347.81046  -2581973.37446  22653824.9964   22653832.6994
      -268.6564
  16531782.28943  14404273.62945  25297631.2234   25297643.8124
     -4921.2344
  -4598265.38948  -3483809.68247  21229175.6844   21229182.4574
     -1188.1094
 -11669960.25547  -7448533.19546  21822792.9104   21822798.3484
      -896.0314
   1286654.71547   -907641.74046  22216115.8554   22216123.2664
     -2433.7194
  -4640073.83444  -3474132.76645  24202032.9414   24202046.8914
      2091.8914
  -1521457.04345   -798371.63845  25570954.6684   25570966.0394
       674.5634
  -2102036.25543  -1102648.53745  24975448.6764   24975459.0864
      1601.2814
   4358055.26545   3938222.06445  24783296.1214   24783304.3524
     -4379.8284
 01 10  2  1 19 45.0040000  0  9G 2G13G 8G28G27G 7G11G26G31
  -3427283.88946  -2578806.63446  22654598.2304   22654606.2154
      -272.8124
  16605619.64543  14461809.09044  25311682.1764   25311697.9654
     -4923.3444
  -4580389.86848  -3469880.68447  21232577.2854   21232584.0004
     -1194.9224
 -11656474.02447  -7438024.42646  21825359.5194   21825365.1094
      -901.7504
   1323213.10247   -879154.67546  22223072.7624   22223080.2424
     -2440.3594
  -4671419.32044  -3498557.66845  24196067.4024   24196080.2734
      2087.8594
  -1531535.45445   -806224.74545  25569036.7154   25569048.4374
       669.6094
  -2126005.25843  -1121325.71545  24970885.9494   24970897.9184
      1594.9534
   4423799.65746   3989451.48845  24795807.5274   24795817.7274
     -4385.7034
 01 10  2  1 20  0.0040000  0  9G 2G13G 8G28G27G 7G11G26G31
  -3423164.68846  -2575596.82246  22655382.1524   22655390.2664
      -276.5474
  16679481.26943  14519363.53345  25325738.0434   25325752.7894
     -4924.9844
  -4562419.55848  -3455877.81847  21235996.8554   21236003.4064
     -1201.2664
 -11642909.25947  -7427454.45146  21827940.7694   21827946.3244
      -907.0314
   1359864.01247   -850595.52246  22230047.0124   22230054.3524
     -2446.5784
  -4702711.54944  -3522941.08545  24190112.7624   24190125.1294
      2084.2504
  -1541546.63445   -814025.53745  25567131.3404   25567144.7154
       665.0784
  -2149886.02144  -1139933.91445  24966343.5124   24966357.0274
      1589.0004
   4489624.49646   4040743.60545  24808333.7774   24808344.2234
     -4391.0944
 01 10  2  1 20 15.0040000  0  9G 2G13G 8G28G27G 7G11G26G31
  -3418981.26846  -2572336.98046  22656178.1604   22656186.1214
      -281.1254
  16753375.75543  14576943.54745  25339799.5904   25339815.4614
     -4927.4844
  -4544345.33648  -3441793.98747  21239436.2154   21239443.0234
     -1208.5004
 -11629256.83947  -7416816.17746  21830538.5904   21830544.0164
      -913.1724
   1396616.49147   -821957.22146  22237040.6604   22237048.1414
     -2453.6414
  -4733941.07544  -3547275.65945  24184170.3014   24184182.9024
      2079.7974
  -1551481.11945   -821766.60645  25565242.7694   25565254.1054
       659.6414
  -2173669.36742  -1158466.32945  24961814.0514   24961820.9224
      1582.2194
   4555538.50846   4092105.17645  24820876.4494   24820886.2624
     -4397.3284
 01 10  2  1 20 30.0040000  0  9G 2G13G 8G28G27G 7G11G26G31
  -3414736.84946  -2569029.59946  22656986.1054   22656994.3244
      -284.5314
  16827299.65343  14634546.43445  25353867.6054   25353877.9574
     -4928.7504
  -4526170.16548  -3427631.49947  21242894.8874   21242901.5204
     -1214.5944
 -11615520.13547  -7406112.22246  21833152.4344   21833158.1294
      -918.1414
   1433467.47147   -793242.16546  22244053.1844   22244060.4414
     -2459.5474
  -4765110.95944  -3571563.72445  24178238.3714   24178251.1844
      2076.4694
  -1561341.67443   -829450.03345  25563362.1054   25563372.7974
       655.3594
  -2197357.84344  -1176924.79445  24957310.0354   24957318.6414
      1576.5314
   4621538.21145   4143533.54145  24833434.1844   24833442.5784
     -4402.3754
 01 10  2  1 20 45.0040000  0  9G 2G13G 8G28G27G 7G11G26G31
  -3410434.75646  -2565677.27646  22657804.7384   22657812.8284
      -289.1874
  16901249.31843  14692169.39644  25367940.0984   25367946.5194
     -4931.2974
  -4507897.25348  -3413392.84647  21246371.9574   21246378.7304
     -1221.9064
 -11601702.50347  -7395345.21546  21835782.1134   21835787.7854
      -924.3284
   1470413.71847   -764452.87446  22251083.8094   22251091.1024
     -2466.7194
  -4796224.13944  -3595807.61945  24172318.3484   24172329.8484
      2071.8594
  -1571131.18845   -837078.13945  25561502.5194   25561516.0474
       649.8134
  -2220954.77443  -1195311.93445  24952817.0514   24952824.4734
      1569.6094
   4687619.92646   4195025.76245  24846011.0744   24846020.4304
     -4408.6254
 01 10  2  1 21  0.0040000  0  9G 2G13G 8G28G27G 7G11G26G31
  -3406064.67146  -2562271.97546  22658636.1604   22658644.0864
      -293.8754
  16975235.04843  14749820.44344  25382019.6374   25382024.5354
     -4933.8594
  -4489516.09648  -3399069.84447  21249869.9264   21249876.6994
     -1229.2974
 -11587793.58247  -7384507.06646  21838428.6134   21838434.1564
      -930.5624
   1507465.69647   -735581.20546  22258134.6684   22258142.1954
     -2473.9374
  -4827269.84044  -3619998.93545  24166409.5984   24166422.3984
      2067.1564
  -1580839.01145   -844642.54245  25559654.7384   25559664.9494
       644.1884
  -2244449.02943  -1213619.07545  24948344.3014   24948354.1954
      1562.5784
   4753793.73745   4246589.81345  24858601.9184   24858610.6174
     -4414.9224
 01 10  2  1 21 15.0040000  0  9G 2G13G 8G28G27G 7G11G26G31
  -3401631.37146  -2558817.41146  22659479.6844   22659487.5864
      -297.5944
  17049251.73043                  25396103.4024
     -4935.4064
  -4471031.14748  -3384665.96947  21253387.4884   21253394.1334
     -1235.7194
 -11573798.20347  -7373601.55446  21841091.6914   21841097.4574
      -935.8444
   1544618.74347   -706630.77846  22265204.6294   22265212.0164
     -2480.1724
  -4858252.52344  -3644141.11845  24160513.6684   24160524.4064
      2063.4694
  -1590469.45444   -852146.62645  25557819.9104   25557833.1214
       639.5164
  -2267845.27644  -1231849.74845  24943896.3634   24943905.3914
      1556.5164
   4820054.53745   4298221.63745  24871211.9414   24871220.5944
     -4420.2034
 01 10  2  1 21 30.0040000  0  9G 2G13G 8G28G27G 7G11G26G31
  -3397136.53846  -2555314.89946  22660335.2624   22660342.9184
      -301.8444
  17123297.38643                  25410194.1054
     -4937.4534
  -4452444.09348  -3370182.53447  21256924.4804   21256931.2424
     -1242.6724
 -11559718.21547  -7362630.11446  21843771.4574   21843776.9304
      -941.6094
   1581871.26147   -677602.83046  22272293.4574   22272300.6214
     -2486.9534
  -4889173.55944  -3668235.34745  24154629.5824   24154643.4374
      2059.2034
  -1600023.81045   -859591.45645  25556002.9494   25556014.6844
       634.2814
  -2291144.80342  -1250005.23645  24939459.2384   24939467.3984
      1549.9224
   4886400.36045   4349919.68545  24883836.9264   24883846.8554
     -4426.0164
 01 10  2  1 21 45.0040000  0  9G 2G13G 8G28G27G 7G11G26G31
  -3392582.48846  -2551766.25546  22661201.5744   22661209.3014
      -305.6874
  17197369.43143                  25424289.1844
     -4939.1414
  -4433756.96148  -3355621.10747  21260480.4104   21260486.9964
     -1249.2664
 -11545555.88147  -7351594.49946  21846466.5194   21846472.1094
      -947.0164
   1619221.08247   -648499.07046  22279400.7774   22279408.1644
     -2493.3444
  -4920034.90744  -3692282.97445  24148756.5274   24148769.2114
      2055.3134
  -1609504.11245   -866978.60445  25554199.2384   25554208.3484
       629.4224
  -2314349.48044  -1268086.66745  24935046.0124   24935057.9104
      1543.6724
   4952828.67145   4401681.96245  24896478.1844   24896487.7274
     -4431.4064
 01 10  2  1 22  0.0040000  0  9G 2G13G 8G28G27G 7G11G26G31
  -3387965.37846  -2548168.45446  22662080.0744   22662087.9884
      -310.2034
  17271471.55343                  25438390.5984
     -4941.4374
  -4414965.89948  -3340978.70147  21264056.1054   21264062.7734
     -1256.5004
 -11531307.37946  -7340491.74446  21849177.3944   21849183.0434
      -953.0624
   1656672.10947   -619316.44746  22286527.6604   22286535.1174
     -2500.4064
  -4950832.44344  -3716280.96245  24142895.8634   24142909.2974
      2050.7034
  -1618906.06845   -874304.67845  25552409.7464   25552421.7624
       623.8754
  -2337455.26843  -1286091.07845  24930647.1054   24930654.0354
      1536.7814
   5019342.91746   4453511.30245  24909136.1444   24909144.9144
     -4437.4374
 01 10  2  1 22 15.0040000  0  9G 2G13G 8G28G27G 7G11G26G31
  -3383284.97446  -2544521.34646  22662970.5274   22662978.3484
      -313.9374
  17345603.60843                  25452498.6684
     -4942.9224
  -4396070.40248  -3326254.91547  21267651.8554   21267658.5354
     -1262.9844
 -11516972.49147  -7329321.68146  21851905.7304   21851911.4844
      -958.3284
   1694224.70647   -590054.67846  22293673.7384   22293681.0664
     -2506.6874
  -4981565.55344  -3740228.69445  24137048.1054   24137058.0124
      2046.9384
  -1628228.96645   -881569.16345  25550637.4804   25550646.0274
       619.0784
  -2360461.27043  -1304017.80745  24926269.8484   24926279.6724
      1530.6254
   5085943.02545   4505407.49845  24921808.4104   24921816.5594
     -4442.6724
 01 10  2  1 22 30.0040000  0  9G 2G13G 8G28G27G 7G11G26G31
  -3378547.96946  -2540830.13946  22663872.2544   22663880.0394
      -317.8914
  17419758.73143     42371.80755  25466609.4344   25466623.1844
     -4944.6414
  -4377076.98548  -3311454.83647  21271266.2074   21271272.7584
     -1269.7034
 -11502558.00347  -7318089.59246  21854648.3554   21854653.8984
      -963.8284
   1731872.26547   -560718.91446  22300837.7384   22300845.3834
     -2513.2194
  -5012240.52844  -3764131.10445  24131210.0664   24131221.7424
      2042.8754
  -1637479.03745   -888776.88845  25548876.2774   25548885.1764
       614.0164
  -2383374.12743  -1321871.82445  24921910.3094   24921918.1414
      1524.1884
   5152622.11745   4557365.21345  24934497.8554   24934506.3444
     -4448.1094
 01 10  2  1 22 45.0040000  0  9G 2G13G 8G28G27G 7G11G26G31
  -3373749.69346  -2537091.17946  22664785.1844   22664793.0744
      -321.9844
  17493941.37243    100176.44644  25480725.4964   25480736.7624
     -4946.5004
  -4357980.74148  -3296574.62447  21274900.2774   21274906.8054
     -1276.5784
 -11488059.29947  -7306791.87646  21857407.4494   21857413.1214
      -969.4534
   1769619.52647   -531305.46146  22308020.6914   22308028.1604
     -2519.8754
  -5042852.43744  -3787984.42945  24125385.4184   24125397.3754
      2038.6094
  -1646651.56644   -895924.24645  25547127.5514   25547142.0274
       608.8444
  -2406188.70043  -1339649.40845  24917567.6294   24917577.1134
      1517.6094
   5219384.40345   4609387.82745  24947201.6604   24947210.3944
     -4453.6564
 01 10  2  1 23  0.0040000  0  9G 2G13G 8G28G27G 7G11G26G31
  -3368890.57546  -2533304.81046  22665709.8404   22665717.5664
      -325.9844
  17568150.84843    158001.78245  25494847.7854   25494856.2504
     -4948.1564
  -4338781.87648  -3281614.45347  21278553.4964   21278559.9774
     -1283.3754
 -11473476.68547  -7295428.77046  21860182.4264   21860188.1334
      -974.9844
   1807466.25947   -501814.49446  22315222.6054   22315229.9104
     -2526.4534
  -5073401.35544  -3811788.63245  24119571.8094   24119581.1874
      2034.4694
  -1655746.31345   -903010.84045  25545398.2234   25545410.2854
       603.7194
  -2428904.81643  -1357350.14445  24913245.6524   24913255.3834
      1511.1094
   5286229.28845   4661474.70945  24959921.4024   24959929.9494
     -4459.0944
 01 10  2  1 23 15.0040000  0  9G 2G13G 8G28G27G 7G11G26G31
  -3363973.31346  -2529473.13446  22666645.7074   22666653.4694
      -330.0474
  17642384.04443    215845.66745  25508975.1444   25508989.4344
     -4949.9534
  -4319483.12948  -3266576.44347  21282225.9964   21282232.5824
     -1290.2194
 -11458813.04247  -7284002.52446  21862972.6684   21862978.0594
      -980.5624
   1845409.84147   -472248.06046  22322443.3324   22322450.6024
     -2533.0944
  -5103889.55944  -3835545.54145  24113769.6994   24113783.8594
      2030.2504
  -1664765.69345   -910038.84045  25543680.8634   25543692.6914
       598.5004
  -2451525.05843  -1374976.25645  24908940.7854   24908953.1524
      1504.5004
   5353153.75945   4713623.67345  24972656.4654   24972665.8794
     -4464.5784
 01 10  2  1 23 30.0040000  0  9G 2G13G 8G28G27G 7G11G26G31
  -3358989.63146  -2525589.70146  22667594.1214   22667602.1764
      -334.3754
  17716649.02043    273714.43845  25523105.2854   25523115.9654
     -4951.9694
  -4300075.90948  -3251453.90947  21285919.1454   21285925.7074
     -1297.3444
 -11444060.13046  -7272506.72646  21865780.2464   21865785.9184
      -986.4224
   1883458.62447   -442599.64746  22329683.6914   22329691.1024
     -2540.0164
  -5134308.55244  -3859248.49645  24107980.7624   24107994.4884
      2025.7034
  -1673701.00745   -917001.27045  25541982.2304   25541993.9304
       592.9694
  -2474040.69643  -1392520.80045  24904655.4804   24904664.0984
      1497.6564
   5420165.81145   4765840.89045  24985408.9654   24985417.4654
     -4470.3124
 01 10  2  1 23 45.0040000  0  9G 2G13G 8G28G27G 7G11G26G31
  -3353945.43246  -2521659.10746  22668553.6764   22668561.5084
      -338.4844
  17790939.68443    331603.14844  25537242.6994   25537258.6414
     -4953.7344
  -4280565.94848  -3236251.32347  21289631.5124   21289638.0624
     -1304.2664
 -11429223.89747  -7260946.00146  21868603.3634   21868608.8594
      -992.0474
   1921606.80047   -412873.78546  22336943.0274   22336950.2154
     -2546.7034
  -5164663.78544  -3882901.82945  24102205.0824   24102216.0434
      2021.3754
  -1682557.73745   -923902.49645  25540297.3404   25540307.5624
       587.6414
  -2496457.29843  -1409988.22645  24900390.9344   24900401.2854
      1490.9534
   5487259.24045   4818121.44845  24998177.3014   24998185.5084
     -4475.7664
 01 10  2  1 24  0.0040000  0  9G 2G13G 8G28G27G 7G11G26G31
  -3348837.79046  -2517679.09746  22669525.7464   22669533.3324
      -342.5474
  17865258.79743    389514.02244  25551385.2304   25551401.0664
     -4955.4694
  -4260950.22948  -3220966.32647  21293364.3484   21293370.9694
     -1311.1564
 -11414301.35446  -7249318.02146  21871442.4964   21871447.9804
      -997.6254
   1959857.45547   -383068.07646  22344221.9964   22344229.3714
     -2553.3754
  -5194952.06844  -3906502.93845  24096440.7154   24096452.2624
      2017.0314
  -1691332.51845   -930739.89045  25538627.7234   25538637.4654
       582.3284
  -2518771.51743  -1427375.82545  24896141.8324   24896151.2464
      1484.2974
   5554436.66645   4870467.53045  25010961.1994   25010970.1564
     -4481.2034
 01 10  2  1 24 15.0040000  0  9G 2G13G 8G28G27G 7G11G26G31
  -3343668.00146  -2513650.64546  22670509.6604   22670517.2464
      -346.5474
  17939604.82443    447445.76344  25565533.7694   25565551.2114
     -4957.0944
  -4241229.73148  -3205599.68047  21297116.9494   21297123.4534
     -1318.0164
 -11399293.80246  -7237623.79646  21874298.6214   21874304.2814
     -1003.1414
   1998209.35247   -353183.46246  22351520.0824   22351527.0124
     -2559.9844
  -5225174.29644  -3930052.60745  24090689.4414   24090701.3984
      2012.7814
  -1700026.33545   -937514.16445  25536973.1684   25536982.2664
       577.0634
  -2540984.32644  -1444684.44545  24891918.7384   24891927.4964
      1477.6254
   5621696.63245   4922877.94345  25023759.2234   25023769.2934
     -4486.5624
 01 10  2  1 24 30.0040000  0  9G 2G13G 8G28G27G 7G11G26G31
  -3338438.48346  -2509575.65546  22671504.6684   22671512.2194
      -350.6414
  18013974.96543    505396.36543  25579684.7694   25579704.1684
     -4958.8444
  -4221406.76848  -3190153.19247  21300889.1054   21300895.6914
     -1324.9694
 -11384203.72947  -7225865.27146  21877170.0194   21877175.4694
     -1008.7814
   2036660.18347   -323221.76846  22358836.8324   22358843.8094
     -2566.7034
  -5255332.54744  -3953552.38045  24084950.4964   24084962.4534
      2008.3914
  -1708641.28145   -944226.97645  25535333.4654   25535344.4144
       571.6564
  -2563097.67843  -1461915.52345  24887707.8404   24887717.6874
      1470.8914
   5689036.22945   4975350.33145  25036574.7384   25036582.6414
     -4491.9844
 01 10  2  1 24 45.0040000  0  9G 2G13G 8G28G27G 7G11G26G31
  -3333145.44546  -2505451.16846  22672511.9264   22672519.4304
      -354.6094
  18088372.98143    563368.78745  25593843.4494   25593859.3554
     -4960.4064
  -4201477.35548  -3174623.76447  21304681.6524   21304688.2034
     -1331.7974
 -11369027.41546  -7214039.54746  21880058.0594   21880063.3324
     -1014.2504
   2075213.91047   -293179.89246  22366173.2934   22366180.7504
     -2573.2974
  -5285422.68345  -3976999.10045  24079224.2624   24079236.6414
      2004.0944
  -1717172.97445   -950874.94745  25533709.9104   25533717.9534
       566.3754
  -2585107.44343  -1479066.00645  24883520.2154   24883527.6374
      1464.2344
   5756459.05945   5027887.65045  25049402.3014   25049410.8834
     -4497.2344
 01 10  2  1 25  0.0040000  0  9G 2G13G 8G28G27G 7G11G26G31
  -3327791.08246  -2501278.90546  22673530.2854   22673537.6954
      -358.7664
  18162796.28443    621360.86644  25608005.4264   25608018.8484
     -4962.1414
  -4181443.53148  -3159012.96747  21308493.7854   21308500.3834
     -1338.8284
 -11353767.06747  -7202148.34046  21882962.0434   21882967.5984
     -1019.9224
   2113868.37047   -263059.51946  22373529.1214   22373536.4964
     -2580.0944
  -5315446.54444  -4000394.21145  24073510.0514   24073523.0624
      1999.6094
  -1725623.28745   -957459.50745  25532100.4024   25532107.5664
       560.8594
  -2607015.60344  -1496137.08745  24879352.7154   24879362.3404
      1457.3594
   5823962.55445   5080487.73245  25062248.7234   25062258.0314
     -4502.6874
 01 10  2  1 25 15.0040000  0  9G 2G13G 8G28G27G 7G11G26G31
  -3322375.46146  -2497058.90546  22674561.0514   22674568.4024
      -363.0314
  18237244.51043    679372.29944  25622172.4184   25622191.0904
     -4963.9844
  -4161305.16248  -3143320.71147  21312326.0594   21312332.9534
     -1346.0004
 -11338422.85647  -7190191.78646  21885881.7234   21885887.3944
     -1025.6874
   2152623.55947   -232860.65946  22380904.1374   22380911.5474
     -2586.9844
  -5345403.95845  -4023737.51845  24067811.0434   24067823.6334
      1995.0004
  -1733991.87845   -963980.34345  25530510.2304   25530516.9104
       555.2344
  -2628821.66943  -1513128.78045  24875202.0594   24875210.7464
      1450.3754
   5891546.42945   5133150.49545  25075108.2854   25075116.9964
     -4508.2034
 01 10  2  1 25 30.0040000  0  9G 2G13G 8G28G27G 7G11G26G31
  -3316900.37446  -2492792.56046  22675603.0984   22675610.5314
      -366.9534
  18311715.69843    737401.68945  25636343.9024   25636356.1174
     -4965.4844
  -4141063.92148  -3127548.29347  21316177.8634   21316184.4614
     -1352.8284
 -11322996.53147  -7178171.24546  21888817.5434   21888823.0514
     -1031.1414
   2191477.83147   -202584.59646  22388297.7854   22388305.1954
     -2593.5624
  -5375296.25444  -4047030.04645  24062122.1054   24062130.8524
      1990.6724
  -1742280.20545   -970438.72545  25528930.0194   25528938.7194
       549.8914
  -2650527.05743  -1530042.00245  24871070.7464   24871078.2384
      1443.7034
   5959208.58945   5185874.23445  25087985.0194   25087992.8874
     -4513.3914
 01 10  2  1 25 45.0040000  0  9G 2G13G 8G28G27G 7G11G26G31
  -3311361.61546  -2488476.60246  22676656.9414   22676664.5624
      -371.4534
  18386213.73543    795451.91945  25650520.5824   25650534.6724
     -4967.5004
  -4120715.37248  -3111692.25547  21320050.0204   21320056.5124
     -1360.2504
 -11307483.98247  -7166083.51646  21891769.1214   21891774.6994
     -1037.1254
   2230435.45147   -172228.00146  22395711.1294   22395718.4224
     -2600.7194
  -5405118.98045  -4070268.40145  24056446.6684   24056457.7114
      1985.7504
  -1750483.62045   -976830.88945  25527370.3554   25527379.5944
       543.9694
  -2672127.46444  -1546873.42845  24866961.1684   24866965.7624
      1436.4064
   6026952.91345   5238662.00545  25100876.8714   25100886.4144
     -4519.1094
 01 10  2  1 26  0.0040000  0  9G 2G13G 8G28G27G 7G11G26G31
  -3305760.75746  -2484112.25746  22677722.6604   22677730.0944
      -374.8444
  18460736.87443    853521.81444  25664701.7154   25664716.6844
     -4968.4224
  -4100260.95848  -3095753.73047  21323942.2934   21323948.9144
     -1366.5314
 -11291886.77947  -7153929.82546  21894737.3554   21894742.6994
     -1042.0164
   2269494.97047   -141791.99646  22403143.8094   22403151.1254
     -2606.7344
  -5434873.29244  -4093453.45445  24050784.3324   24050795.9734
      1981.9534
  -1758603.29545   -983157.82645  25525824.2854   25525833.9104
       539.1414
  -2693623.75543  -1563623.66645  24862870.1294   24862877.7384
      1430.2664
   6094777.62845   5291512.38245  25113783.9574   25113793.0554
     -4523.6874
 01 10  2  1 26 15.0040000  0  9G 2G13G 8G28G27G 7G11G26G31
  -3300101.71146  -2479702.56646  22678799.7464   22678807.5904
      -379.3124
  18535281.00043    911607.98445  25678887.6684   25678893.2344
     -4970.4064
  -4079704.38348  -3079735.60547  21327854.1374   21327860.8754
     -1373.9374
 -11276208.84147  -7141713.21446  21897720.8324   21897726.1524
     -1047.9844
   2308652.61447   -111279.53746  22410595.1524   22410602.4454
     -2613.8914
  -5464562.77145  -4116587.97645  24045134.6914   24045146.5904
      1977.0314
  -1766642.81045   -989422.30245  25524294.0664   25524305.9064
       533.2034
  -2715019.63044  -1580295.72545  24858798.5904   24858808.8014
      1422.9384
   6162678.43745   5344422.08145  25126704.2624   25126711.6954
     -4529.3444
 01 10  2  1 26 30.0040000  0  9G 2G13G 8G28G27G 7G11G26G31
  -3294379.22746  -2475243.45846  22679888.5124   22679896.0164
      -383.7034
  18609850.98843    969714.32444  25693077.4494   25693087.6484
     -4972.2814
  -4059040.20548  -3063633.62947  21331786.4264   21331793.0004
     -1381.2814
 -11260444.99947  -7129429.68246  21900720.3484   21900726.0434
     -1053.8754
   2347913.70047    -80686.47346  22418066.2544   22418073.5234
     -2620.9374
  -5494181.91145  -4139667.65345  24039498.6134   24039512.1054
      1972.1564
  -1774596.49645   -995619.80445  25522781.9574   25522791.8874
       527.2974
  -2736309.49343  -1596885.12345  24854747.6604   24854758.7624
      1415.6884
   6230660.37945   5397394.98945  25139640.5824   25139648.9414
     -4534.9064
 01 10  2  1 26 45.0040000  0  9G 2G13G 8G28G27G 7G11G26G31
  -3288593.18746  -2470734.81646  22680989.5984   22680997.0554
      -387.6094
  18684446.72343   1027840.71744  25707272.7544   25707282.5194
     -4973.6564
  -4038268.28648  -3047447.69747  21335738.9264   21335745.6994
     -1388.1414
 -11244595.08947  -7117079.07146  21903736.6444   21903742.1054
     -1059.2664
   2387278.51147    -50012.58746  22425557.4654   22425564.8164
     -2627.5314
  -5523730.16344  -4162692.16145  24033874.4344   24033885.5004
      1967.7664
  -1782463.85845  -1001750.14545  25521284.1374   25521294.1024
       521.8594
  -2757492.67843  -1613391.44845  24850713.9804   24850722.8794
      1408.9224
   6298723.28345   5450431.03145  25152591.4414   25152601.0314
     -4539.9694
 01 10  2  1 27  0.0040000  0  9G 2G13G 8G28G27G 7G11G26G31
  -3282748.51046  -2466180.49146  22682101.7154   22682109.1374
      -391.9534
  18759063.07843   1085983.26543  25721470.8794   25721489.8794
     -4975.4694
  -4017393.14848  -3031181.33747  21339711.4654   21339718.0394
     -1395.4694
 -11228664.08547  -7104665.28146  21906768.4104   21906773.8014
     -1065.1094
   2426742.21747    -19261.63746  22433067.2074   22433074.5944
     -2634.5624
  -5553212.03344  -4185664.89945  24028265.2304   24028277.4224
      1962.8754
  -1790249.32445  -1007816.60245  25519802.8164   25519811.5624
       515.9534
  -2778573.89244  -1629818.22045  24846705.9734   24846717.2504
      1401.6414
   6366861.81145   5503525.95845  25165557.7624   25165567.2234
     -4545.4534
 01 10  2  1 27 15.0040000  0  9G 2G13G 8G28G27G 7G11G26G31
  -3276835.95446  -2461573.26246  22683226.5824   22683233.8404
      -396.3124
  18833709.11043   1144148.78444  25735675.8554   25735687.9304
     -4977.2504
  -3996405.32548  -3014827.17247  21343705.3484   21343711.9224
     -1402.8284
 -11212642.73747  -7092181.08546  21909817.0904   21909822.6214
     -1070.9844
   2466314.16247     11573.65746  22440597.2854   22440604.6374
     -2641.6094
  -5582618.03545  -4208578.52245  24022668.7384   24022680.4374
      1957.9844
  -1797943.33545  -1013811.83945  25518336.0434   25518345.2584
       510.0164
  -2799543.48543  -1646158.13745  24842712.7544   24842723.1874
      1394.3444
   6435084.99145   5556686.86345  25178541.1054   25178550.3324
     -4550.9064
 01 10  2  1 27 30.0040000  0  9G 2G13G 8G28G27G 7G11G26G31
  -3270859.54046  -2456916.27446  22684364.0514   22684371.3204
      -400.5164
  18908380.52943   1202334.22643  25749885.7694   25749906.3164
     -4978.8754
  -3975308.81448  -2998388.31447  21347719.8954   21347726.5984
     -1410.0164
 -11196535.08247  -7079629.64046  21912882.2384   21912887.4884
     -1076.6724
   2505990.31747     42490.14646  22448147.2464   22448154.8554
     -2648.5004
  -5611951.80644  -4231435.86445  24017087.1374   24017099.1644
      1953.2194
  -1805549.50845  -1019738.59645  25516890.6684   25516901.2664
       504.1884
  -2820405.07843  -1662413.81645  24838744.1684   24838754.6844
      1387.2194
   6503388.54845   5609910.40545  25191539.1134   25191548.9844
     -4556.1874
 01 10  2  1 27 45.0040000  0  9G 2G13G 8G28G27G 7G11G26G31
  -3264822.02346  -2452211.68646  22685513.0354   22685520.3284
      -404.6094
  18983074.33543   1260537.03444  25764100.4734   25764109.3944
     -4980.4224
  -3954106.18548  -2981866.76647  21351754.4494   21351761.0474
     -1417.1254
 -11180344.07147  -7067013.24546  21915962.9884   21915968.3674
     -1082.2504
   2545768.06947     73485.80746  22455716.8714   22455724.4694
     -2655.3124
  -5641215.80145  -4254238.85145  24011517.6444   24011530.2114
      1948.5164
  -1813070.13645  -1025598.72345  25515459.0354   25515467.1844
       498.4534
  -2841161.13744  -1678587.31345  24834795.1844   24834803.3324
      1380.1414
   6571769.55345   5663194.24245  25204551.1054   25204561.1764
     -4561.3914
 01 10  2  1 28  0.0040000  0  9G 2G13G 8G28G27G 7G11G26G31
  -3258726.80546  -2447462.12646  22686672.7154   22686680.3484
      -408.0474
  19057787.04443   1318754.63244  25778318.9964   25778329.8284
     -4981.2344
  -3932800.61948  -2965265.01147  21355808.8554   21355815.5474
     -1423.5784
 -11164073.04247  -7054334.48946  21919059.5194   21919065.0394
     -1087.1564
   2585644.13747    104558.07246  22463305.0984   22463312.5554
     -2661.4534
  -5670413.03345  -4276989.79345  24005961.5984   24005971.7624
      1944.5164
  -1820508.34645  -1031394.60845  25514042.6214   25514052.9614
       493.3594
  -2861814.58243  -1694680.85645  24830863.0824   24830871.9574
      1373.7194
   6640224.18045   5716535.52845  25217576.2304   25217585.0824
     -4565.8594
 01 10  2  1 28 15.0040000  0  9G 2G13G 8G28G27G 7G11G26G31
  -3252573.91446  -2442667.63046  22687843.6684   22687851.1134
      -412.0164
  19132518.17443   1376986.45544  25792538.1444   25792548.0274
     -4982.6094
  -3911391.97748  -2948582.93947  21359882.7384   21359889.3714
     -1430.5944
 -11147722.04047  -7041593.42746  21922170.8094   21922176.1294
     -1092.6414
   2625618.58447    135707.00446  22470911.6134   22470918.8014
     -2668.1564
  -5699543.17845  -4299688.46345  24000418.2624   24000429.8444
      1939.8594
  -1827863.78745  -1037126.00045  25512643.8944   25512653.9654
       487.6724
  -2882365.13344  -1710694.15645  24826955.0594   24826962.7504
      1366.6884
   6708752.17345   5769933.92745  25230618.4264   25230626.6914
     -4570.8914
 01 10  2  1 28 30.0040000  0  9G 2G13G 8G28G27G 7G11G26G31
  -3246362.23846  -2437827.33246  22689025.5594   22689032.9694
      -416.5624
  19207268.63143   1435233.46045  25806764.9184   25806775.0944
     -4984.5164
  -3889878.92548  -2931819.50847  21363976.6524   21363983.1454
     -1438.1874
 -11131289.94147  -7028789.17246  21925297.9884   21925303.1564
     -1098.6724
   2665692.64347    166933.54046  22478537.5434   22478544.9654
     -2675.4224
  -5728604.84045  -4322333.76445  23994888.9574   23994901.0664
      1934.6724
  -1835134.85245  -1042791.62845  25511260.7694   25511271.1094
       481.4064
  -2902811.32343  -1726626.15945  24823062.4574   24823072.9144
      1359.0784
   6777354.41145   5823390.17745  25243673.8014   25243683.5434
     -4576.4374
 01 10  2  1 28 45.0040000  0  9G 2G13G 8G28G27G 7G11G26G31
  -3240083.98646  -2432935.14546  22690220.0904   22690227.5594
      -420.4694
  19282046.05043   1493501.39845  25820993.8164   25821003.2304
     -4985.7504
  -3868253.57548  -2914968.57247  21368091.6684   21368098.3714
     -1445.1414
 -11114769.05047  -7015915.72746  21928441.8634   21928447.3714
     -1104.0474
   2705874.17147    198243.83146  22486183.9494   22486191.3484
     -2682.0624
  -5757589.77845  -4344919.26845  23989372.4344   23989384.4734
      1930.0634
  -1842313.35545  -1048385.19245  25509894.4494   25509907.5664
       475.7814
  -2923144.85143  -1742470.40345  24819193.2774   24819200.6994
      1352.1094
   6846038.28245   5876910.08545  25256744.3164   25256753.6134
     -4581.3284
 01 10  2  1 29  0.0040000  0  9G 2G13G 8G28G27G 7G11G26G31
  -3233746.96746  -2427997.17546  22691426.1764   22691433.3754
      -424.6254
  19356842.17843   1551783.96345  25835226.8094   25835242.5164
     -4987.2344
  -3846523.69148  -2898036.18147  21372226.8874   21372233.5084
     -1452.3594
 -11098167.22547  -7002979.22246  21931600.7624   21931606.3054
     -1109.6874
   2746155.44847    229631.84546  22493849.3874   22493856.5744
     -2688.9534
  -5786505.67245  -4367451.02045  23983869.5124   23983880.9184
      1925.2034
  -1849406.75945  -1053912.36545  25508545.6524   25508556.2154
       469.8594
  -2943373.47344  -1758232.89045  24815344.9024   24815351.5824
      1344.8594
   6914795.78045   5930487.31945  25269827.5904   25269837.0164
     -4586.4844
 01 10  2  1 29 15.0040000  0  9G 2G13G 8G28G27G 7G11G26G31
  -3227348.82846  -2423011.58646  22692643.5274   22692650.9024
      -428.3594
  19431659.13843   1610082.73545  25849464.0434   25849475.9304
     -4988.2814
  -3824686.56448  -2881020.22247  21376382.1294   21376388.5864
     -1459.1724
 -11081482.17247  -6989977.85646  21934775.9734   21934781.6914
     -1114.8914
   2786538.93447    261099.50046  22501533.6524   22501541.1094
     -2695.4224
  -5815349.70345  -4389926.75945  23978381.2774   23978392.7074
      1920.7664
  -1856412.40645  -1059371.21745  25507212.0514   25507222.0744
       464.3134
  -2963494.33043  -1773911.35845  24811515.9734   24811524.4144
      1337.9844
   6983628.83845   5984123.49545  25282926.7384   25282935.9414
     -4591.1564
 01 10  2  1 29 30.0040000  0  9G 2G13G 8G28G27G 7G11G26G31
  -3220889.86246  -2417978.58846  22693873.2074   22693880.6764
      -432.7664
  19506496.63243   1668397.54144  25863704.5124   25863719.9734
     -4990.0004
  -3802742.44948  -2863920.90347  21380557.9184   21380564.5514
     -1466.6564
 -11064714.14147  -6976911.83846  21937966.9184   21937972.0984
     -1120.7664
   2827024.44047    292646.65346  22509237.9264   22509245.5124
     -2702.5624
  -5844121.85645  -4412346.45545  23972905.8794   23972916.8754
      1915.5944
  -1863330.11445  -1064761.49645  25505893.6374   25505905.5354
       458.1254
  -2983507.29343  -1789505.85845  24807706.0824   24807715.1914
      1330.4694
   7052536.91545   6037818.04445  25296038.7854   25296049.6994
     -4596.4844
 01 10  2  1 29 45.0040000  0  9G 2G13G 8G28G27G 7G11G26G31
  -3214370.98146  -2412898.90346  22695113.3944   22695120.6874
      -436.5944
  19581353.37943   1726727.30844  25877949.7384   25877966.8984
     -4991.1094
  -3780692.07648  -2846738.78047  21384754.0744   21384760.5314
     -1473.5784
 -11047864.17447  -6963781.97346  21941173.0194   21941178.3524
     -1126.0784
   2867611.11147    324272.63246  22516961.3094   22516968.7894
     -2709.1564
  -5872822.71645  -4434710.61645  23967443.7304   23967455.2544
      1910.9844
  -1870160.37945  -1070083.65945  25504594.7544   25504604.5434
       452.4384
  -3003412.93044  -1805016.66345  24803919.2694   24803928.1444
      1323.4384
   7121518.86845   6091570.23745  25309164.9024   25309175.0194
     -4601.2664
 01 10  2  1 30  0.0040000  0  9G 2G13G 8G28G27G 7G11G26G31
  -3207787.99446  -2407769.28146  22696365.8714   22696373.1644
      -441.0944
  19656233.28343   1785075.24144  25892199.1054   25892213.5704
     -4992.8444
  -3758530.99848  -2829470.39847  21388971.2464   21388977.6804
     -1481.1724
 -11030928.02447  -6950584.94946  21944395.8244   21944401.5434
     -1132.0314
   2908303.26747    355980.81346  22524705.0984   22524712.5664
     -2716.4064
  -5901447.76245  -4457015.74345  23961996.5124   23962008.0354
      1905.7194
  -1876898.73845  -1075334.25745  25503313.8794   25503323.5394
       446.0634
  -3023206.67144  -1820440.26545  24800153.5354   24800165.6804
      1315.7504
   7190578.59345   6145382.99245  25322306.2624   25322316.5084
     -4606.6564
 01 10  2  1 30 15.0040000  0  9G 2G13G 8G28G27G 7G11G26G31
  -3201135.53646  -2402585.51746  22697631.9344   22697639.2154
      -445.4064
  19731141.48043   1843445.10244  25906454.2854   25906461.6844
     -4994.4064
  -3736253.74348  -2812111.48547  21393210.4344   21393216.9024
     -1488.6254
 -11013900.38647  -6937316.64846  21947636.0044   21947641.4774
     -1137.8284
   2949106.32747    387775.40646  22532469.4734   22532477.0474
     -2723.5004
  -5929991.28145  -4479257.29645  23956565.0664   23956575.7234
      1900.5784
  -1883539.39945  -1080508.66245  25502049.2624   25502058.2774
       439.8444
  -3042882.78243  -1835772.26545  24796406.9734   24796414.0434
      1308.2194
   7259721.08345   6199260.23145  25335464.8244   25335472.8794
     -4611.8594
 01 10  2  1 30 30.0040000  0  9G 2G13G 8G28G27G 7G11G26G31
  -3194422.54246  -2397354.58246  22698909.1994   22698916.7974
      -449.3444
  19806068.85843   1901829.76144  25920712.0124   25920723.9224
     -4995.5784
  -3713868.99748  -2794668.81447  21397470.0514   21397476.6844
     -1495.6724
 -10996790.21947  -6923984.02346  21950892.0274   21950897.4884
     -1143.2034
   2990011.41447    419649.50946  22540253.4024   22540261.0124
     -2730.1874
  -5958461.78645  -4501441.96545  23951147.5824   23951158.5084
      1895.7974
  -1890090.93545  -1085613.62745  25500801.0194   25500810.9844
       434.0004
  -3062449.88244  -1851019.26045  24792685.5434   24792695.3914
      1301.0474
   7328937.20045   6253194.84145  25348636.9494   25348644.5474
     -4616.6254
 01 10  2  1 30 45.0040000  0  9G 2G13G 8G28G27G 7G11G26G31
  -3187650.64346  -2392077.74746  22700197.7774   22700205.0124
      -453.1414
  19881013.49543   1960228.07942  25934974.0594   25934994.0784
     -4996.5944
  -3691378.34948  -2777143.62047  21401749.7934   21401756.3794
     -1502.6254
 -10979599.28147  -6910588.47446  21954163.4414   21954168.9264
     -1148.4694
   3031017.02047    451601.92846  22548056.4184   22548063.9224
     -2736.7814
  -5986860.69545  -4523570.86845  23945743.1444   23945753.0394
      1891.1414
  -1896554.61245  -1090650.16045  25499572.7384   25499582.4344
       428.2504
  -3081909.34144  -1866182.41545  24788981.4414   24788990.5394
      1293.9694
   7398225.02545   6307185.38145  25361822.5664   25361831.4534
     -4621.2814
 01 10  2  1 31  0.0040000  0  9G 2G13G 8G28G27G 7G11G26G31
  -3180820.80047  -2386755.75946  22701497.3714   22701504.6054
      -457.3914
  19955974.00043   2018638.79044  25949239.3484   25949252.5474
     -4998.0164
  -3668782.70048  -2759536.60747  21406049.4654   21406056.1804
     -1510.0314
 -10962328.52247  -6897130.72546  21957450.0044   21957455.3364
     -1154.1874
   3072122.23347    483631.96746  22555878.6374   22555886.1994
     -2743.8124
  -6015188.66145  -4545644.45245  23940352.7384   23940363.5704
      1886.0164
  -1902930.89045  -1095618.56745  25498359.4414   25498367.9534
       422.0314
  -3101261.63743  -1881262.06845  24785296.5274   24785306.9964
      1286.4534
   7467583.27745   6361230.81745  25375019.7774   25375027.8444
     -4626.3594
 01 10  2  1 31 15.0040000  0  9G 2G13G 8G28G27G 7G11G26G31
  -3173928.58747  -2381385.17746  22702808.9804   22702816.2384
      -461.7504
  20030954.64643   2077065.19244  25963507.7464   25963516.2464
     -4999.5474
  -3646077.21948  -2741844.01247  21410370.2074   21410376.8404
     -1517.5474
 -10944973.53647  -6883607.33846  21960752.3324   21960757.6874
     -1159.9694
   3113331.63847    515743.19846  22563720.3794   22563727.7424
     -2750.9534
  -6043440.84645  -4567659.02045  23934976.4574   23934988.0394
      1880.7504
  -1909215.12145  -1100515.27645  25497161.8324   25497171.3634
       415.6724
  -3120501.99844  -1896254.46245  24781637.5274   24781648.0194
      1278.7814
   7537016.03645   6415334.28345  25388231.9184   25388243.0434
     -4631.5164
 01 10  2  1 31 30.0040000  0  9G 2G13G 8G28G27G 7G11G26G31
  -3166972.72847  -2375965.00746  22704132.9884   22704140.2234
      -465.7504
  20105956.52643   2135507.93143  25977778.1764   25977789.7464
     -5000.7194
  -3623260.52748  -2724064.75547  21414712.1294   21414718.6454
     -1524.7344
 -10927533.10747  -6870017.37846  21964071.3714   21964076.7274
     -1165.4374
   3154646.53347    547936.63146  22571582.3714   22571589.2774
     -2757.7504
  -6071615.70945  -4589613.32345  23929614.1994   23929623.9304
      1875.8284
  -1915405.54245  -1105338.87345  25495984.7934   25495993.3054
       409.6564
  -3139628.87144  -1911158.41945  24777996.4804   24778004.7814
      1271.4384
   7606524.17745   6469496.49345  25401459.0194   25401467.3094
     -4636.2974
 01 10  2  1 31 45.0040000  0  9G 2G13G 8G28G27G 7G11G26G31
  -3159962.61947  -2370502.55446  22705466.9264   22705474.1724
      -469.2504
  20180970.02543   2193959.79845  25992053.6844   25992068.6764
     -5001.3754
  -3600341.90748  -2706206.07647  21419073.4184   21419079.9694
     -1531.4064
 -10910016.67347  -6856368.18746  21967404.5984   21967409.9884
     -1170.4064
   3196057.58847    580204.99146  22579462.7624   22579470.0314
     -2764.0474
  -6099722.31145  -4611514.44345  23924265.4024   23924276.0474
      1871.3914
  -1921511.25345  -1110096.49345  25494822.6764   25494831.5394
       404.0944
  -3158651.29943  -1925981.05745  24774375.1764   24774385.3754
      1264.5784
   7676098.24245   6523710.04545  25414698.8164   25414705.3444
     -4640.5624
 01 10  2  1 32  0.0040000  0  9G 2G13G 8G28G27G 7G11G26G31
  -3152894.31147  -2364994.75446  22706811.9414   22706819.0824
      -473.1874
  20255998.85643   2252423.86744  26006331.7304   26006345.9734
     -5002.4374
  -3577317.17448  -2688264.70947  21423454.8634   21423461.3444
     -1538.5474
 -10892420.23747  -6842656.66246  21970752.9734   21970758.3284
     -1175.7974
   3237568.89747    612551.47446  22587361.7934   22587369.5314
     -2770.7974
  -6127756.30745  -4633359.00345  23918930.7304   23918940.0044
      1866.4844
  -1927527.84945  -1114784.63745  25493677.0274   25493688.2464
       398.1094
  -3177564.83345  -1940718.75145  24770779.0514   24770787.3284
      1257.2194
   7745741.92345   6577977.91545  25427952.0744   25427961.8524
     -4645.2504
 01 10  2  1 32 15.0040000  0  9G 2G13G 8G28G27G 7G11G26G31
  -3145769.28647  -2359442.76446  22708167.7154   22708174.8204
      -476.9534
  20331041.21743                  26020612.3324
     -5003.3444
  -3554187.78248  -2670241.78747  21427856.4024   21427862.8714
     -1545.5314
 -10874745.47047  -6828884.09646  21974116.2544   21974121.6684
     -1180.9844
   3279178.98947    644974.93046  22595280.3714   22595287.8284
     -2777.3594
  -6155718.96645  -4655147.96945  23913609.4964   23913619.7074
      1861.7344
  -1933456.53245  -1119404.29645  25492549.6914   25492559.1524
       392.2504
  -3196370.72445  -1955372.66645  24767200.4804   24767208.2894
      1250.0634
   7815453.25245   6632298.49545  25441216.0594   25441224.8404
     -4649.7344
 01 10  2  1 32 30.0040000  0  9G 2G13G 8G28G27G 7G11G26G31
  -3138580.83947  -2353841.35246  22709535.3014   22709542.4414
      -481.3594
  20406103.69143                  26034895.5664
     -5004.8444
  -3530946.77848  -2652131.89447  21432278.9264   21432285.4884
     -1553.1254
 -10856985.69147  -6815045.29246  21977496.1444   21977501.5354
     -1186.8444
   3320894.65247    677480.64646  22603218.3554   22603225.6844
     -2784.5784
  -6183603.04445  -4676875.69545  23908303.6764   23908314.8594
      1856.2974
  -1939290.17145  -1123949.86345  25491437.7694   25491449.2934
       385.7194
  -3215061.87044  -1969937.13045  24763641.8634   24763649.5194
      1242.2344
   7885238.68145   6686676.80545  25454496.7544   25454506.0744
     -4654.8284
 01 10  2  1 32 45.0040000  0  9G 2G13G 8G28G27G 7G11G26G31
  -3131335.26347  -2348195.41546  22710914.4964   22710921.6374
      -484.9374
  20481179.66743                  26049182.5044
     -5005.4844
  -3507600.36648  -2633939.86947  21436721.3714   21436727.7234
     -1559.9374
 -10839147.10347  -6801145.07446  21980890.3244   21980895.5514
     -1191.8444
   3362709.76347    710063.85546  22611175.5664   22611182.8244
     -2790.9844
  -6211414.59145  -4698546.88345  23903011.5594   23903022.5314
      1851.6884
  -1945034.62045  -1128425.92945  25490346.4734   25490356.3324
       380.0004
  -3233644.08245  -1984416.71945  24760107.0274   24760115.5984
      1235.2034
   7955091.73545   6741107.80745  25467789.3634   25467799.3164
     -4659.1094
 01 10  2  1 33  0.0040000  0  9G 2G13G 8G28G27G 7G11G26G31
  -3124029.44347  -2342502.54146  22712304.4804   22712311.6094
      -489.2194
  20556272.06443                  26063472.2694
     -5006.8594
  -3484145.14848  -2615663.05547  21441184.8484   21441191.1874
     -1567.4534
 -10821226.68147  -6787181.08646  21984300.6994   21984306.0434
     -1197.5784
   3404627.48847    742727.02746  22619152.0824   22619159.3524
     -2798.0944
  -6239150.17645  -4720158.90745  23897733.3014   23897744.9184
      1846.3134
  -1950686.41245  -1132829.85645  25489270.1214   25489279.8164
       373.5474
  -3252114.11744  -1998808.89545  24756590.6994   24756601.4734
      1227.4384
   8025015.22545   6795593.68345  25481094.6134   25481103.5474
     -4664.0164
 01 10  2  1 33 15.0040000  0  9G 2G13G 8G28G27G 7G11G26G31
  -3116659.39847  -2336759.63146  22713706.8874   22713714.2034
      -493.2664
  20631384.56743                  26077765.5744
     -5007.9694
  -3460576.99248  -2597298.23947  21445669.7154   21445676.2894
     -1574.7664
 -10803220.46047  -6773150.24246  21987727.0984   21987732.6994
     -1203.0624
   3446651.84447    775473.28146  22627149.3714   22627156.4774
     -2804.9694
  -6266805.48845  -4741708.38445  23892470.3714   23892480.6994
      1841.2344
  -1956241.30645  -1137158.24945  25488213.9344   25488224.8014
       367.2814
  -3270467.54945  -2013110.21745  24753099.3484   24753108.6564
      1219.8914
   8095012.62945   6850137.12845  25494414.0354   25494423.8594
     -4668.7194
 01 10  2  1 33 30.0040000  0  9G 2G13G 8G28G27G 7G11G26G31
  -3109228.69147  -2330969.43646  22715120.7624   22715127.8094
      -497.2664
  20706513.41543                  26092060.8944
     -5009.0004
  -3436899.33248  -2578848.09547  21450175.4574   21450181.9734
     -1582.0314
 -10785131.99547  -6759055.31746  21991168.9574   21991174.2424
     -1208.5004
   3488779.38247    808299.94946  22635165.8094   22635172.6054
     -2811.7974
  -6294383.78045  -4763197.81445  23887222.4964   23887233.8794
      1836.0944
  -1961702.34745  -1141413.47345  25487173.2304   25487183.9574
       361.0634
  -3288707.57245  -2027323.13745  24749628.1994   24749637.7664
      1212.3284
   8165080.40245   6904735.51345  25507747.8944   25507756.7114
     -4673.3914
 01 10  2  1 33 45.0040000  0  9G 2G13G 8G28G27G 7G11G26G31
  -3101736.84547  -2325131.60946  22716546.5904   22716554.0234
      -501.5164
  20781658.78243                  26106363.5984
     -5010.2344
  -3413111.44548  -2560312.06147  21454702.0984   21454708.5434
     -1589.5474
 -10766960.89547  -6744895.99446  21994627.0664   21994632.3984
     -1214.1724
   3531010.74247    841207.50646  22643202.2464   22643209.3164
     -2818.9064
  -6321884.21445  -4784626.61345  23881988.6054   23882000.5394
      1830.7344
  -1967068.61345  -1145594.91045  25486152.5124   25486160.7304
       354.5634
  -3306833.18945  -2041446.90145  24746180.4344   24746188.0784
      1204.5474
   8235218.73345   6959388.84545  25521094.8484   25521105.6914
     -4678.2664
 01 10  2  1 34  0.0040000  0  9G 2G13G 8G28G27G 7G11G26G31
  -3094179.56947  -2319242.79046  22717984.5434   22717991.9534
      -505.3754
  20856824.87143                  26120666.5354
     -5011.1414
  -3389208.96448  -2541686.73147  21459250.8714   21459257.1874
     -1596.7034
 -10748702.78347  -6730668.87646  21998101.7074   21998106.7464
     -1219.4844
   3573350.24047    874199.33046  22651258.9104   22651266.2974
     -2825.6094
  -6349302.06945  -4805991.03845  23876771.3014   23876782.6844
      1825.7344
  -1972335.49745  -1149698.88145  25485149.9494   25485158.2854
       348.4384
  -3324839.90844  -2055478.10845  24742752.2934   24742762.1054
      1197.0944
   8305431.46145   7014100.18545  25534455.6914   25534463.8524
     -4682.7194
 01 10  2  1 34 15.0040000  0  9G 2G13G 8G28G27G 7G11G26G31
  -3086566.18347  -2313310.25146  22719433.3484   22719440.6644
      -509.8284
  20932001.82243                  26134972.1134
     -5012.5624
  -3365201.07748  -2522979.26847  21463819.2234   21463825.6684
     -1604.4694
 -10730367.12147  -6716381.32146  22001590.5744   22001595.8834
     -1225.3754
   3615788.56847    907268.17246  22659334.8094   22659342.2304
     -2832.9374
  -6376646.50145  -4827298.26645  23871567.9494   23871578.7234
      1820.0944
  -1977512.00145  -1153732.41745  25484164.9414   25484171.6094
       341.6724
  -3342736.70044  -2069423.55445  24739345.8944   24739356.1054
      1189.0474
   8375709.02845   7068862.00545  25547830.7304   25547839.3594
     -4687.7194
 01 10  2  1 34 30.0040000  0  9G 2G13G 8G28G27G 7G11G26G31
  -3078890.64147  -2307329.28646  22720893.7464   22720901.0984
      -513.7814
  21007195.75642                  26149280.5044
     -5013.5004
  -3341081.35848  -2504184.66147  21468409.0044   21468415.4964
     -1611.7194
 -10711947.94547  -6702028.69846  22005095.5044   22005101.0594
     -1230.7344
   3658331.87847    940418.80746  22667430.5434   22667437.9654
     -2839.7344
  -6403911.09645  -4848543.29145  23866379.9414   23866390.3634
      1814.9534
  -1982591.73045  -1157690.53545  25483199.0514   25483208.4884
       335.4064
  -3360517.13045  -2083278.39345  24735963.6294   24735971.9064
      1181.4384
   8446057.20045   7123678.90545  25561216.5664   25561227.7624
     -4692.2344
 01 10  2  1 34 45.0040000  0  9G 2G13G 8G28G27G 7G11G26G31
  -3071156.99047  -2301303.03346  22722365.7624   22722373.1844
      -517.8754
  21082402.16143                  26163592.2624
     -5014.5164
  -3316854.17248  -2485306.31547  21473019.1994   21473025.7624
     -1619.1094
 -10693449.34547  -6687614.18646  22008615.7854   22008621.0944
     -1236.2504
   3700976.18247    973648.14746  22675545.6604   22675552.9064
     -2846.6874
  -6431099.51345  -4869728.93145  23861205.2384   23861216.1644
      1809.6724
  -1987578.35045  -1161576.14845  25482248.3244   25482256.7194
       328.9694
  -3378184.98245  -2097045.52745  24732601.8244   24732611.0744
      1173.7344
   8516471.40245   7178547.16545  25574615.1134   25574624.8094
     -4696.8594
 01 10  2  1 35  0.0040000  0  9G 2G13G 8G28G27G 7G11G26G31
  -3063361.77947  -2295228.81646  22723848.8484   22723856.1524
      -521.7974
  21157624.38443                  26177906.9964
     -5015.3914
  -3292515.57848  -2466341.15547  21477650.6914   21477657.0084
     -1626.3594
 -10674867.80947  -6673135.04446  22012151.8014   22012156.9104
     -1241.5944
   3743725.06547   1006958.97146  22683680.3794   22683687.6024
     -2853.4694
  -6458208.10645  -4890852.39345  23856047.1444   23856057.8124
      1804.5004
  -1992467.99745  -1165386.20445  25481318.3554   25481327.6994
       322.6564
  -3395736.43744  -2110721.91645  24729260.1684   24729267.3444
      1166.1414
   8586955.18345   7233469.68745  25588028.6994   25588039.1684
     -4701.2814
 01 10  2  1 35 15.0040000  0  9G 2G13G 8G28G27G 7G11G26G31
  -3055504.77947  -2289106.44746  22725343.7774   22725350.7544
      -525.5474
  21232862.36042                  26192223.4964
     -5016.0944
  -3268065.27448  -2447288.94947  21482303.5354   21482309.9104
     -1633.4534
 -10656203.28347  -6658591.23246  22015703.3554   22015708.5944
     -1246.7664
   3786578.75247   1040351.46446  22691835.2234   22691842.4574
     -2860.1094
  -6485236.28145  -4911913.18245  23850903.1844   23850913.3014
      1799.5004
  -1997260.15545  -1169120.26445  25480406.5824   25480413.7814
       316.5164
  -3413170.88145  -2124307.13245  24725942.9344   24725952.4184
      1158.6884
   8657508.32045   7288446.27845  25601454.9344   25601462.4844
     -4705.5474
 01 10  2  1 35 30.0040000  0  9G 2G13G 8G28G27G 7G11G26G31
  -3047588.59647  -2282937.96046  22726850.3484   22726857.3244
      -530.2504
  21308113.17843                  26206544.6764
     -5017.6724
  -3243505.63748  -2428151.54847  21486977.0194   21486983.4414
     -1641.5004
 -10637458.24047  -6643984.67846  22019270.4184   22019275.4454
     -1252.8754
   3829534.80347   1073823.72246  22700009.6684   22700016.7504
     -2867.6724
  -6512186.30545  -4932913.08845  23845775.0664   23845786.3914
      1793.5164
  -2001956.91445  -1172779.96645  25479513.6214   25479522.4734
       309.4064
  -3430490.57545  -2137802.95745  24722648.0044   24722658.1094
      1150.2814
   8728127.99845   7343474.73145  25614892.1134   25614901.6684
     -4710.7344
 01 10  2  1 35 45.0040000  0  9G 2G13G 8G28G27G 7G11G26G31
  -3039607.18347  -2276718.64546  22728369.2694   22728376.3984
      -534.2504
  21383382.82542                  26220867.8014
     -5018.5474
  -3218830.44748  -2408924.10947  21491672.5594   21491678.8634
     -1648.8444
 -10618626.86547  -6629310.85646  22022854.1054   22022859.1914
     -1258.2814
   3872599.30147   1107380.48546  22708204.3324   22708211.6024
     -2874.5624
  -6539051.70945  -4953847.02945  23840662.6134   23840672.5904
      1788.2034
  -2006551.96345  -1176360.47945  25478638.0434   25478646.9884
       302.9534
  -3447689.11345  -2151204.34245  24719375.4344   24719384.4374
      1142.5314
   8798819.79345   7398559.36845  25628343.1764   25628354.3364
     -4715.1724
 01 10  2  1 36  0.0040000  0  9G 2G13G 8G28G27G 7G11G26G31
  -3031560.60047  -2270448.55146  22729900.8094   22729908.0784
      -538.2034
  21458670.71742                  26235192.6524
     -5019.4064
  -3194039.75548  -2389606.66947  21496389.9574   21496396.2854
     -1656.1724
 -10599709.17247  -6614569.77946  22026453.6444   22026458.6374
     -1263.6564
   3915772.27147   1141021.75946  22716419.8244   22716426.9884
     -2881.4224
  -6565832.33645  -4974714.95545  23835566.4414   23835577.8244
      1782.9694
  -2011044.93945  -1179861.41245  25477782.6914   25477790.4534
       296.5474
  -3464766.20145  -2164511.12145  24716124.8324   24716133.9884
      1134.8134
   8869583.47945   7453699.96245  25641809.4964   25641818.6524
     -4719.5624
 01 10  2  1 36 15.0040000  0  9G 2G13G 8G28G27G 7G11G26G31
  -3023456.22747  -2264133.41846  22731442.6914   22731450.0084
      -542.6094
  21533969.39742                  26249523.4964
     -5020.6564
  -3169140.70348  -2370204.79247  21501128.1054   21501134.4454
     -1663.9374
 -10580712.47247  -6599767.12746  22030068.7074   22030073.9224
     -1269.4694
   3959046.38747   1174741.85946  22724654.8324   22724662.1844
     -2888.7034
  -6592535.15445  -4995522.22445  23830484.9884   23830495.3284
      1777.2034
  -2015442.95845  -1183288.32145  25476946.8094   25476954.8404
       289.6254
  -3481728.95145  -2177728.82745  24712898.5434   24712907.6054
      1126.6414
   8940411.27345   7508890.43945  25655289.1914   25655300.1294
     -4724.3754
 01 10  2  1 36 30.0040000  0  9G 2G13G 8G28G27G 7G11G26G31
  -3015288.27047  -2257768.74246  22732996.7694   22733004.0274
      -546.5784
  21609284.42742                  26263856.0124
     -5021.4694
  -3144127.18348  -2350713.71447  21505888.1374   21505894.5594
     -1671.3124
 -10561631.07047  -6584898.48046  22033699.9414   22033705.1214
     -1274.8444
   4002427.59047   1208545.39746  22732909.7154   22732916.8444
     -2895.5944
  -6619154.09945  -5016264.10945  23825418.7854   23825429.0084
      1771.8594
  -2019739.73345  -1186636.39245  25476129.0044   25476137.3634
       283.1254
  -3498571.16145  -2190852.58345  24709691.8874   24709699.5784
      1118.8284
   9011308.77944   7564135.32945  25668777.1134   25668784.1844
     -4728.7664
 01 10  2  1 36 45.0040000  0  9G 2G13G 8G28G27G 7G11G26G31
  -3007055.68547  -2251353.70946  22734563.6054   22734570.6874
      -550.7034
  21684616.70243                  26278192.1684
     -5022.4224
  -3118998.19648  -2331132.67347  21510669.7854   21510676.2424
     -1678.8444
 -10542464.01747  -6569963.09346  22037347.0664   22037352.1764
     -1280.3594
   4045917.00347   1242433.25446  22741185.5664   22741192.6604
     -2902.6094
  -6645687.80945  -5036939.61745  23820369.7934   23820380.2854
      1766.3284
  -2023933.90745  -1189904.53345  25475331.1684   25475340.0194
       276.4694
  -3515291.27045  -2203881.16945  24706509.9494   24706517.3124
      1110.8914
   9082276.84045   7619435.11645  25682285.0824   25682294.6844
     -4733.2814
 01 10  2  1 37  0.0040000  0  9G 2G13G 8G28G27G 7G11G26G31
  -2998761.17447  -2244890.42146  22736141.8944   22736149.0124
      -554.9534
  21759963.20542                  26292529.4184
     -5023.5004
  -3093756.16148  -2311463.53347  21515473.1524   21515479.3984
     -1686.5004
 -10523213.98147  -6554963.05246  22041010.4184   22041015.7384
     -1286.0164
   4089511.90047   1276403.31146  22749481.2934   22749488.4924
     -2909.7504
  -6672138.59745  -5057550.50745  23815336.4964   23815347.3984
      1760.7034
  -2028027.81045  -1193094.51645  25474551.9574   25474559.9414
       269.6564
  -3531891.90045  -2216816.68745  24703351.2854   24703358.1564
      1102.7814
   9153312.57345   7674787.75945  25695801.5594   25695808.1564
     -4737.9064
 01 10  2  1 37 15.0040000  0  9G 2G13G 8G28G27G 7G11G26G31
  -2990407.63747  -2238381.14246  22737731.4654   22737738.4414
      -558.8754
  21835320.69242                  26306869.4574
     -5024.2194
  -3068403.81848  -2291708.44647  21520297.5594   21520303.8984
     -1693.8444
 -10503883.89647  -6539900.63146  22044688.7934   22044693.8674
     -1291.3444
   4133209.43447   1310453.32846  22757796.8404   22757804.4494
     -2916.6094
  -6698509.06045  -5078098.81345  23810318.3484   23810328.5354
      1755.3284
  -2032023.98545  -1196208.40245  25473790.4884   25473800.7814
       263.1254
  -3548375.43745  -2229660.97445  24700215.5514   24700223.3834
      1094.9694
   9224412.67545   7730190.52145  25709332.6214   25709342.4804
     -4742.1414
 01 10  2  1 37 30.0040000  0  9G 2G13G 8G28G27G 7G11G26G31
  -2981996.14547  -2231826.69746  22739332.0984   22739339.2034
      -563.1254
  21910687.98242                  26321210.1374
     -5025.2504
  -3042942.22448  -2271868.22947  21525142.9184   21525149.2814
     -1701.5164
 -10484474.85947  -6524776.68746  22048382.2774   22048387.4224
     -1297.0004
   4177008.69347   1344582.63246  22766131.3094   22766138.7774
     -2923.7664
  -6724799.89845  -5098585.03745  23805315.3874   23805325.9614
      1749.6254
  -2035923.11445  -1199246.55545  25473048.3164   25473057.4844
       256.2504
  -3564742.70345  -2242414.63245  24697100.6844   24697108.2344
      1086.8284
   9295575.75745   7785642.33945  25722872.6374   25722881.9224
     -4746.7344
 01 10  2  1 37 45.0040000  0  9G 2G13G 8G28G27G 7G11G26G31
  -2973519.18847  -2225221.24146  22740945.1604   22740952.3364
      -567.3284
  21986072.27642                  26335556.5984
     -5026.2034
  -3017363.70748  -2251936.90047  21530010.2854   21530016.4374
     -1709.1564
 -10464979.49147  -6509585.46946  22052091.8324   22052097.3164
     -1302.5944
   4220917.12947   1378796.99746  22774486.8094   22774494.2074
     -2930.8914
  -6751003.49045  -5119003.32645  23800328.6294   23800338.7814
      1743.9694
  -2039717.24845  -1202203.00445  25472326.7934   25472333.2504
       249.4064
  -3580985.73645  -2255071.50545  24694009.4574   24694019.3524
      1078.7034
   9366808.83945   7841148.81345  25736428.5744   25736437.6954
     -4751.2194
 01 10  2  1 38  0.0040000  0  9G 2G13G 8G28G27G 7G11G26G31
  -2964984.06747  -2218570.46446  22742569.3794   22742576.6024
      -570.8914
  22061465.95742                  26349904.1444
     -5026.5004
  -2991675.28248  -2231919.93547  21534898.7624   21534905.2304
     -1716.1724
 -10445405.07047  -6494332.65646  22055817.0594   22055822.3324
     -1307.5314
   4264927.59747   1413090.86846  22782862.0124   22782869.2344
     -2937.3754
  -6777126.70545  -5139358.95345  23795357.3324   23795366.8984
      1738.9224
  -2043413.38245  -1205082.98745  25471623.8094   25471630.5474
       243.1884
  -3597111.58845  -2267637.06845  24690939.6914   24690949.5514
      1071.2034
   9438104.58045   7896703.88245  25749996.3634   25750005.5904
     -4755.0624
 01 10  2  1 38 15.0040000  0  9G 2G13G 8G28G27G 7G11G26G31
  -2956386.77647  -2211871.24246  22744205.1844   22744212.4884
      -575.4064
  22136872.73542                  26364254.2624
     -5027.7504
  -2965873.01448  -2211814.25247  21539808.6524   21539814.9454
     -1724.1254
 -10425747.61647  -6479015.14246  22059557.3714   22059562.5044
     -1313.4534
   4309044.12247   1447467.38946  22791256.7304   22791263.9534
     -2944.8124
  -6803165.18645  -5159648.56445  23790401.9574   23790411.3124
      1732.9064
  -2047007.24445  -1207883.37445  25470937.9654   25470946.0904
       235.9844
  -3613115.97345  -2280107.93445  24687894.8554   24687902.3834
      1062.7194
   9509466.58545   7952310.83745  25763574.5124   25763581.8054
     -4759.8754
 01 10  2  1 38 30.0040000  0  9G 2G13G 8G28G27G 7G11G26G31
  -2947727.14347  -2205123.44046  22745852.9964   22745860.3484
      -579.4224
  22212292.76842                  26378604.1764
     -5028.5004
  -2939956.40148  -2191619.47147  21544740.3874   21544746.7504
     -1731.6254
 -10406007.11247  -6463632.91346  22063313.8714   22063319.0624
     -1318.8444
   4353266.90747   1481926.69346  22799672.1684   22799679.5664
     -2951.7664
  -6829118.53645  -5179871.83645  23785463.5744   23785473.7034
      1727.3444
  -2050498.35345  -1210603.59745  25470274.9104   25470284.2304
       229.2504
  -3628998.33745  -2292483.80645  24684872.5664   24684881.9224
      1054.7034
   9580894.79645   8007969.21245  25777168.3484   25777178.6174
     -4764.1094
 01 10  2  1 38 45.0040000  0  9G 2G13G 8G28G27G 7G11G26G31
  -2939004.79347  -2198326.77646  22747513.2304   22747520.4654
      -583.3594
  22287726.21241                  26392957.7624
     -5029.1094
  -2913924.88048  -2171335.15247  21549693.8714   21549700.1994
     -1739.0474
 -10386183.11347  -6448185.62546  22067086.2774   22067091.4804
     -1324.1564
   4397596.49047   1516469.23746  22808107.9804   22808115.2034
     -2958.6414
  -6854985.92645  -5200028.14845  23780540.7854   23780551.9694
      1721.8444
  -2053885.78345  -1213243.14245  25469629.1844   25469636.8284
       222.5944
  -3644757.87945  -2304763.91545  24681873.5434   24681881.7504
      1046.7344
   9652389.32245   8063679.36545  25790772.7464   25790782.7464
     -4768.2974
 01 10  2  1 39  0.0040000  0  9G 2G13G 8G28G27G 7G11G26G31
  -2930219.83047  -2191481.32346  22749184.9734   22749192.1844
      -588.0164
  22363172.62742                  26407317.0434
     -5030.4374
  -2887778.53348  -2150961.36047  21554669.2934   21554675.5984
     -1747.1724
 -10366275.74847  -6432673.38246  22070874.7074   22070879.8634
     -1330.1874
   4442032.76647   1551094.90546  22816563.6444   22816570.7854
     -2966.2344
  -6880767.24445  -5220117.35045  23775635.5744   23775645.9374
      1715.6254
  -2057169.40245  -1215801.72645  25469007.1524   25469016.4614
       215.1724
  -3660394.51445  -2316948.26145  24678899.1054   24678909.9024
      1038.0474
   9723949.84245   8119440.87545  25804390.2774   25804401.0624
     -4773.1724
 01 10  2  1 39 15.0040000  0  9G 2G13G 8G28G27G 7G11G26G31
  -2921371.37447  -2184586.38546  22750868.2154   22750875.2854
      -591.9844
  22438632.70242                  26421675.2934
     -5031.1094
  -2861516.44948  -2130497.38247  21559666.7544   21559673.1994
     -1754.6564
 -10346284.22447  -6417095.55646  22074678.8874   22074684.0554
     -1335.5474
   4486576.72747   1585804.48446  22825040.0744   22825047.3794
     -2973.1724
  -6906461.25145  -5240138.56145  23770745.2854   23770754.9224
      1710.0314
  -2060347.83745  -1218278.35445  25468400.7154   25468410.0704
       208.4064
  -3675906.78645  -2329035.68845  24675946.6684   24675955.2734
      1030.0314
   9795576.75445   8175254.17845  25818019.5984   25818025.0004
     -4777.3124
 01 10  2  1 39 30.0040000  0  9G 2G13G 8G28G27G 7G11G26G31
  -2912463.05247  -2177644.81246  22752563.8794   22752571.1844
      -595.9374
  22514102.50342                  26436038.0984
     -5031.7034
  -2835141.80948  -2109945.69447  21564685.6294   21564691.9804
     -1762.1094
 -10326212.24947  -6401455.04046  22078498.2464   22078503.4494
     -1340.8754
   4531224.77747   1620595.16846  22833536.3634   22833543.7854
     -2980.0784
  -6932071.16345  -5260094.20045  23765871.9654   23765882.7974
      1704.4534
  -2063424.48845  -1220675.68345  25467815.6444   25467824.0394
       201.6414
  -3691298.26544  -2341029.01845  24673015.2934   24673023.7694
      1021.9844
   9867266.36445   8231116.24545  25831663.1374   25831672.2584
     -4781.4374
 01 10  2  1 39 45.0040000  0  9G 2G13G 8G28G27G 7G11G26G31
  -2903492.37847  -2170654.64146  22754270.6374   22754278.1644
      -600.2194
  22589584.28342                  26450400.2854
     -5032.6094
  -2808652.11548  -2089304.36247  21569726.3014   21569732.4884
     -1769.9064
 -10306057.32347  -6385749.88846  22082333.5354   22082338.8094
     -1346.5314
   4575979.46247   1655468.94846  22842052.8164   22842060.4264
     -2987.2974
  -6957594.22545  -5279982.21245  23761015.5194   23761025.6604
      1698.5634
  -2066396.47445  -1222991.46745  25467249.6994   25467257.7194
       194.5474
  -3706565.94645  -2352925.84545  24670110.9414   24670120.6484
      1013.5944
   9939020.74245   8287028.93945  25845315.9574   25845324.0354
     -4785.8754
 01 10  2  1 40  0.0040000  0  9G 2G13G 8G28G27G 7G11G26G31
  -2894457.14647  -2163614.17346  22755989.7154   22755997.0434
      -604.5004
  22665079.90942                  26464768.3874
     -5033.4694
  -2782045.18148  -2068571.66447  21574789.5664   21574795.8124
     -1777.7034
 -10285817.32347  -6369978.44546  22086185.0044   22086190.2664
     -1352.1564
   4620842.99147   1690427.54446  22850589.9574   22850597.1804
     -2994.5314
  -6983028.09045  -5299800.67645  23756175.0744   23756184.2304
      1692.6094
  -2069261.27845  -1225223.69645  25466704.9734   25466714.8204
       187.4064
  -3721707.35145  -2364724.29645  24667230.0744   24667241.4224
      1005.2344
  10010841.94245   8342993.47545  25858984.1604   25858993.6214
     -4790.2664
 01 10  2  1 40 15.0040000  0  9G 2G13G 8G28G27G 7G11G26G31
  -2885352.69547  -2156519.76846  22757722.3094   22757729.5664
      -609.2504
  22740593.82042                  26479139.5194
     -5034.8594
  -2755316.09348  -2047743.78647  21579876.0274   21579882.4964
     -1785.9844
 -10265487.62847  -6354137.11146  22090053.9654   22090059.1804
     -1358.2814
   4665820.11947   1725474.65346  22859148.9574   22859156.0164
     -3002.2504
  -7008367.64345  -5319545.67645  23751352.7304   23751363.3404
      1686.1884
  -2072013.92845  -1227368.55045  25466181.2934   25466191.4454
       179.7664
  -3736717.49645  -2376420.50845  24664373.0594   24664381.0784
       996.2814
  10082734.15345   8399013.66245  25872663.8094   25872675.3914
     -4795.1564
 01 10  2  1 40 30.0040000  0  9G 2G13G 8G28G27G 7G11G26G31
  -2876179.73047  -2149371.97246  22759467.6914   22759474.7734
      -613.4694
  22816125.21442                  26493512.0434
     -5035.6564
  -2728465.28748  -2026821.06747  21584985.5744   21584991.9844
     -1793.7664
 -10245068.85847  -6338226.36846  22093939.3324   22093944.2664
     -1363.8754
   4710910.19447   1760609.77346  22867729.7234   22867736.9924
     -3009.4224
  -7033613.35445  -5339217.55545  23746548.9734   23746559.2544
      1680.2504
  -2074654.60045  -1229426.14045  25465677.6214   25465686.9064
       172.6724
  -3751596.73445  -2388014.64845  24661542.1444   24661548.6374
       987.9064
  10154696.50545   8455088.20345  25886358.2934   25886368.9844
     -4799.4694
 01 10  2  1 40 45.0050000  0  9G 2G13G 8G28G27G 7G11G26G31
  -2866944.84747  -2142175.93546  22761225.2594   22761232.3534
      -617.6874
  22891671.57942                  26507888.5324
     -5036.4224
  -2701498.11748  -2005807.67047  21590117.2354   21590123.5054
     -1801.5474
 -10224567.02147  -6322250.89746  22097840.6184   22097845.6814
     -1369.4534
   4756109.08547   1795829.68746  22876330.4234   22876337.9504
     -3016.6094
  -7058773.68545  -5358822.90945  23741760.6884   23741771.7434
      1674.2974
  -2077190.42146  -1231402.03945  25465196.1654   25465204.2674
       165.5004
  -3766352.95545  -2399512.94745  24658734.6884   24658744.0324
       979.5004
  10226726.29945   8511215.48645  25900065.6104   25900072.7984
     -4803.7814
 01 10  2  1 41  0.0050000  0  9G 2G13G 8G28G27G 7G11G26G31
  -2857642.01447  -2134926.94646  22762995.4704   22763002.6454
      -622.2504
  22967229.81342                  26522267.5094
     -5037.5624
  -2674410.72248  -1984700.59447  21595271.7434   21595278.1534
     -1809.6874
 -10203977.55247  -6306207.13546  22101758.6964   22101763.9464
     -1375.3914
   4801418.12447   1831135.43246  22884952.5404   22884960.0674
     -3024.1564
  -7083837.77345  -5378353.23945  23736991.5174   23737001.4114
      1668.0004
  -2079613.37345  -1233289.99145  25464733.8294   25464741.0054
       157.9694
  -3780976.46845  -2410907.85545  24655951.7284   24655958.9154
       970.7034
  10298821.07645   8567393.37545  25913783.4784   25913794.9894
     -4808.3914
 01 10  2  1 41 15.0050000  0  9G 2G13G 8G28G27G 7G11G26G31
  -2848279.89547  -2127631.76346  22764777.2044   22764784.3214
      -625.9844
  23042795.52642                  26536645.9704
     -5037.8284
  -2647210.49648  -1963505.59647  21600447.9384   21600454.2084
     -1816.9844
 -10183308.42147  -6290101.31046  22105691.9784   22105697.1224
     -1380.4694
   4846831.06047   1866522.12746  22893593.9624   22893601.4314
     -3030.8754
  -7108816.19445  -5397816.83645  23732238.0484   23732248.7984
      1662.4694
  -2081932.65445  -1235097.11045  25464293.0244   25464302.0174
       151.2814
  -3795477.34145  -2422207.21345  24653191.4074   24653199.2864
       962.7504
  10370975.88345   8623617.99645  25927514.6344   25927522.0204
     -4812.1724
 01 10  2  1 41 30.0050000  0  9G 2G13G 8G28G27G 7G11G26G31
  -2838853.61347  -2120286.58146  22766570.8604   22766577.8954
      -630.7814
  23118373.32942                  26551027.6424
     -5039.1254
  -2619892.44648  -1942218.78847  21605646.2514   21605652.8374
     -1825.3444
 -10162554.77447  -6273929.62246  22109641.1884   22109646.3334
     -1386.5944
   4892352.81947   1901993.61846  22902256.8994   22902264.1574
     -3038.6254
  -7133703.88345  -5417209.71945  23727502.1654   23727512.5524
      1655.9224
  -2084142.86445  -1236819.28045  25463871.9544   25463880.2084
       143.5004
  -3809850.28045  -2433406.87245  24650456.4234   24650464.5604
       953.7034
  10443195.45845   8679893.18645  25941256.9784   25941270.2824
     -4816.9844
 01 10  2  1 41 45.0050000  0  9G 2G13G 8G28G27G 7G11G26G31
  -2829365.61847  -2112893.30746  22768376.3684   22768383.3454
      -634.6724
  23193960.51642                  26565411.9154
     -5039.5314
  -2592458.93948  -1920842.01447  21610866.5564   21610873.0244
     -1832.8284
 -10141719.22447  -6257694.11546  22113606.3294   22113611.4274
     -1391.8444
   4937980.95947   1937548.01346  22910939.4784   22910947.1104
     -3045.5004
  -7158502.93245  -5436533.57045  23722783.9784   23722794.1884
      1650.2344
  -2086246.31445  -1238458.32145  25463471.5094   25463481.4384
       136.5784
  -3824097.55045  -2444508.55345  24647744.5874   24647753.2744
       945.5474
  10515476.64045   8736216.35945  25955012.3844   25955018.6184
     -4820.8914
 01 10  2  1 42  0.0050000  0  9G 2G13G 8G28G27G 7G11G26G31
  -2819818.19047  -2105453.73146  22770193.1884   22770200.2944
      -638.5944
  23269554.61042                  26579795.6574
     -5039.9374
  -2564911.96748  -1899376.82947  21616108.7124   21616115.1574
     -1840.3754
 -10120803.96647  -6241396.50846  22117586.0324   22117591.3174
     -1397.1094
   4983713.37247   1973183.66046  22919642.2674   22919649.7594
     -3052.4064
  -7183215.27245  -5455789.83045  23718080.4074   23718090.1734
      1644.4844
  -2088244.84445  -1240015.49645  25463091.5014   25463099.9194
       129.6094
  -3838221.03345  -2455513.83945  24645057.6424   24645066.7284
       937.3284
  10587817.33345   8792585.82745  25968776.5874   25968787.0324
     -4824.7664
 01 10  2  1 42 15.0050000  0  9G 2G13G 8G28G27G 7G11G26G31
  -2810209.94247  -2097966.76546  22772021.4074   22772028.3724
      -642.5474
  23345156.89142                  26594183.9704
     -5040.3914
  -2537250.01248  -1877822.04547  21621372.5174   21621378.9744
     -1847.9374
 -10099807.69547  -6225035.77146  22121581.6104   22121586.7674
     -1402.4224
   5029551.45347   2008901.65446  22928364.7674   22928372.4234
     -3059.3594
  -7207839.21145  -5474977.18145  23713394.5244   23713403.9974
      1638.6884
  -2090136.71245  -1241489.59445  25462731.7674   25462738.2474
       122.5944
  -3852218.97545  -2466421.29145  24642393.1344   24642400.8254
       929.0314
  10660218.28045   8849002.16445  25982554.8844   25982561.9894
     -4828.7034
 01 10  2  1 42 30.0050000  0  9G 2G13G 8G28G27G 7G11G26G31
  -2800533.40547  -2090426.58146  22773862.7744   22773869.8104
      -647.0314
  23420774.36842                  26608574.3454
     -5041.3124
  -2509465.65048  -1856171.87847  21626659.5634   21626666.0324
     -1856.0314
 -10078722.96947  -6208606.10246  22125594.0324   22125599.2244
     -1408.2344
   5075502.68347   2044707.80446  22937109.1344   22937116.2394
     -3066.8284
  -7232367.03645  -5494089.69045  23708726.3994   23708735.8024
      1632.3444
  -2091914.09645  -1242874.49945  25462393.2044   25462399.1224
       115.0314
  -3866083.55745  -2477224.80145  24639756.2744   24639764.6924
       920.1884
  10732686.82345   8905471.40745  25996344.5634   25996352.5484
     -4833.1414
